Time,TemperatureF,DewpointF,PressureIn,WindDirection,WindDirectionDegrees,WindSpeedMPH,WindSpeedGustMPH,Humidity,HourlyPrecipIn,Conditions,Clouds,dailyrainin,SoftwareType,DateUTC
2013-03-06 00:00:00,31.6,30.9,29.76,NE,47,3.0,6.0,97,0.00,,---,0.07,VWS V14.01,2013-03-06 05:00:00,
2013-03-06 00:01:00,31.5,30.8,29.75,NE,38,9.0,12.0,97,0.00,,---,0.00,VWS V14.01,2013-03-06 05:01:00,
2013-03-06 00:02:00,31.5,30.8,29.75,NE,38,5.0,12.0,97,0.00,,---,0.00,VWS V14.01,2013-03-06 05:02:00,
2013-03-06 00:03:00,31.5,30.8,29.75,NE,39,6.0,12.0,97,0.00,,---,0.00,VWS V14.01,2013-03-06 05:03:00,
2013-03-06 00:04:00,31.5,30.8,29.75,ENE,57,11.0,14.0,97,0.00,,---,0.00,VWS V14.01,2013-03-06 05:04:00,
2013-03-06 00:05:00,31.5,30.8,29.76,NE,45,4.0,7.0,97,0.00,,---,0.07,VWS V14.01,2013-03-06 05:05:00,
2013-03-06 00:06:00,31.5,30.8,29.75,NE,40,12.0,12.0,97,0.00,,---,0.00,VWS V14.01,2013-03-06 05:06:00,
2013-03-06 00:07:00,31.5,30.8,29.75,NNE,17,9.0,12.0,97,0.00,,---,0.00,VWS V14.01,2013-03-06 05:07:00,
2013-03-06 00:08:00,31.5,30.8,29.75,NNE,16,12.0,14.0,97,0.00,,---,0.00,VWS V14.01,2013-03-06 05:08:00,
2013-03-06 00:09:00,31.5,30.8,29.75,NE,46,8.0,14.0,97,0.00,,---,0.00,VWS V14.01,2013-03-06 05:09:00,
2013-03-06 00:10:00,31.5,30.8,29.75,NE,50,12.0,12.0,97,0.00,,---,0.00,VWS V14.01,2013-03-06 05:10:00,
2013-03-06 00:11:00,31.5,30.8,29.75,NE,45,5.0,10.0,97,0.00,,---,0.00,VWS V14.01,2013-03-06 05:11:00,
2013-03-06 00:12:00,31.5,30.8,29.75,NE,48,10.0,10.0,97,0.00,,---,0.00,VWS V14.01,2013-03-06 05:12:00,
2013-03-06 00:13:00,31.5,30.8,29.75,NE,40,7.0,13.0,97,0.00,,---,0.00,VWS V14.01,2013-03-06 05:13:00,
2013-03-06 00:14:00,31.5,30.8,29.72,NE,55,4.0,13.0,97,0.00,,---,0.00,VWS V14.01,2013-03-06 05:14:00,
2013-03-06 00:15:00,31.5,30.8,29.75,North,11,9.0,12.0,97,0.00,,---,0.00,VWS V14.01,2013-03-06 05:15:00,
2013-03-06 00:16:00,31.5,30.8,29.72,NE,34,4.0,8.0,97,0.00,,---,0.00,VWS V14.01,2013-03-06 05:16:00,
2013-03-06 00:17:00,31.3,30.5,29.72,NE,51,5.0,8.0,97,0.00,,---,0.00,VWS V14.01,2013-03-06 05:17:00,
2013-03-06 00:18:00,31.3,30.5,29.72,NE,51,6.0,8.0,97,0.00,,---,0.00,VWS V14.01,2013-03-06 05:18:00,
2013-03-06 00:19:00,31.3,30.5,29.72,NE,37,6.0,9.0,97,0.00,,---,0.00,VWS V14.01,2013-03-06 05:19:00,
2013-03-06 00:20:00,31.5,30.8,29.75,NE,38,6.0,10.0,97,0.00,,---,0.00,VWS V14.01,2013-03-06 05:20:00,
2013-03-06 00:21:00,31.3,30.5,29.72,ENE,62,7.0,11.0,97,0.00,,---,0.00,VWS V14.01,2013-03-06 05:21:00,
2013-03-06 00:22:00,31.3,30.5,29.72,NE,44,4.0,11.0,97,0.00,,---,0.00,VWS V14.01,2013-03-06 05:22:00,
2013-03-06 00:23:00,31.3,30.5,29.72,NE,43,6.0,11.0,97,0.00,,---,0.00,VWS V14.01,2013-03-06 05:23:00,
2013-03-06 00:24:00,31.3,30.5,29.72,ENE,62,6.0,11.0,97,0.00,,---,0.00,VWS V14.01,2013-03-06 05:24:00,
2013-03-06 00:25:00,31.5,30.8,29.72,ENE,63,3.0,8.0,97,0.00,,---,0.00,VWS V14.01,2013-03-06 05:25:00,
2013-03-06 00:26:00,31.3,30.5,29.72,NNE,24,7.0,11.0,97,0.00,,---,0.00,VWS V14.01,2013-03-06 05:26:00,
2013-03-06 00:30:00,31.3,30.5,29.72,NNE,23,6.0,11.0,97,0.00,,---,0.00,VWS V14.01,2013-03-06 05:30:00,
2013-03-06 00:31:00,31.3,30.5,29.71,NNE,28,5.0,11.0,97,0.00,,---,0.00,VWS V14.01,2013-03-06 05:31:00,
2013-03-06 00:32:00,31.3,30.5,29.71,NNE,31,5.0,11.0,97,0.00,,---,0.00,VWS V14.01,2013-03-06 05:32:00,
2013-03-06 00:33:00,31.3,30.5,29.71,NE,55,7.0,12.0,97,0.00,,---,0.00,VWS V14.01,2013-03-06 05:33:00,
2013-03-06 00:34:00,31.3,30.5,29.71,North,5,9.0,12.0,97,0.00,,---,0.00,VWS V14.01,2013-03-06 05:34:00,
2013-03-06 00:35:00,31.3,30.5,29.72,NE,44,6.0,11.0,97,0.00,,---,0.00,VWS V14.01,2013-03-06 05:35:00,
2013-03-06 00:36:00,31.3,30.5,29.71,NE,44,5.0,7.0,97,0.00,,---,0.00,VWS V14.01,2013-03-06 05:36:00,
2013-03-06 00:37:00,31.3,30.5,29.71,NE,40,5.0,7.0,97,0.00,,---,0.00,VWS V14.01,2013-03-06 05:37:00,
2013-03-06 00:38:00,31.3,30.5,29.71,ENE,57,10.0,10.0,97,0.00,,---,0.00,VWS V14.01,2013-03-06 05:38:00,
2013-03-06 00:39:00,31.3,30.5,29.71,NE,46,4.0,10.0,97,0.00,,---,0.00,VWS V14.01,2013-03-06 05:39:00,
2013-03-06 00:40:00,31.3,30.5,29.71,NNE,27,6.0,11.0,97,0.00,,---,0.00,VWS V14.01,2013-03-06 05:40:00,
2013-03-06 00:41:00,31.3,30.5,29.71,NE,43,3.0,6.0,97,0.01,,---,0.01,VWS V14.01,2013-03-06 05:41:00,
2013-03-06 00:42:00,31.3,30.5,29.71,NE,39,3.0,7.0,97,0.01,,---,0.01,VWS V14.01,2013-03-06 05:42:00,
2013-03-06 00:43:00,31.3,30.5,29.71,NNE,28,7.0,10.0,97,0.01,,---,0.01,VWS V14.01,2013-03-06 05:43:00,
2013-03-06 00:44:00,31.3,30.5,29.70,NE,42,4.0,10.0,97,0.01,,---,0.01,VWS V14.01,2013-03-06 05:44:00,
2013-03-06 00:45:00,31.3,30.5,29.71,NE,44,4.0,7.0,97,0.00,,---,0.00,VWS V14.01,2013-03-06 05:45:00,
2013-03-06 00:46:00,31.3,30.5,29.70,NE,46,10.0,12.0,97,0.01,,---,0.01,VWS V14.01,2013-03-06 05:46:00,
2013-03-06 00:47:00,31.3,30.5,29.70,NNE,26,5.0,12.0,97,0.01,,---,0.01,VWS V14.01,2013-03-06 05:47:00,
2013-03-06 00:48:00,31.3,30.5,29.70,North,5,3.0,12.0,97,0.01,,---,0.01,VWS V14.01,2013-03-06 05:48:00,
2013-03-06 00:49:00,31.3,30.5,29.70,NE,36,9.0,12.0,97,0.01,,---,0.01,VWS V14.01,2013-03-06 05:49:00,
2013-03-06 00:50:00,31.3,30.5,29.71,ENE,65,6.0,6.0,97,0.00,,---,0.00,VWS V14.01,2013-03-06 05:50:00,
2013-03-06 00:51:00,31.3,30.5,29.70,NE,41,6.0,7.0,97,0.01,,---,0.01,VWS V14.01,2013-03-06 05:51:00,
2013-03-06 00:52:00,31.3,30.5,29.70,NE,42,6.0,9.0,97,0.01,,---,0.01,VWS V14.01,2013-03-06 05:52:00,
2013-03-06 00:53:00,31.3,30.5,29.70,ENE,58,5.0,9.0,97,0.01,,---,0.01,VWS V14.01,2013-03-06 05:53:00,
2013-03-06 00:54:00,31.3,30.5,29.70,NNE,15,10.0,10.0,97,0.01,,---,0.01,VWS V14.01,2013-03-06 05:54:00,
2013-03-06 00:55:00,31.3,30.5,29.70,NE,34,6.0,11.0,97,0.01,,---,0.01,VWS V14.01,2013-03-06 05:55:00,
2013-03-06 00:56:00,31.3,30.5,29.70,NE,40,5.0,9.0,97,0.01,,---,0.01,VWS V14.01,2013-03-06 05:56:00,
2013-03-06 00:57:00,31.3,30.5,29.70,NNE,28,5.0,9.0,97,0.01,,---,0.01,VWS V14.01,2013-03-06 05:57:00,
2013-03-06 00:58:00,31.3,30.5,29.70,ENE,62,12.0,12.0,97,0.01,,---,0.01,VWS V14.01,2013-03-06 05:58:00,
2013-03-06 00:59:00,31.3,30.5,29.70,NE,42,6.0,13.0,97,0.01,,---,0.01,VWS V14.01,2013-03-06 05:59:00,
2013-03-06 01:00:00,31.3,30.5,29.70,ENE,61,7.0,7.0,97,0.01,,---,0.01,VWS V14.01,2013-03-06 06:00:00,
2013-03-06 01:01:00,31.3,30.5,29.70,ENE,74,10.0,11.0,97,0.01,,---,0.01,VWS V14.01,2013-03-06 06:01:00,
2013-03-06 01:02:00,31.3,30.5,29.70,NNE,30,9.0,14.0,97,0.01,,---,0.01,VWS V14.01,2013-03-06 06:02:00,
2013-03-06 01:03:00,31.3,30.5,29.70,NE,42,6.0,14.0,97,0.01,,---,0.01,VWS V14.01,2013-03-06 06:03:00,
2013-03-06 01:04:00,31.3,30.5,29.70,NNE,33,3.0,14.0,97,0.01,,---,0.01,VWS V14.01,2013-03-06 06:04:00,
2013-03-06 01:05:00,31.3,30.5,29.70,NE,40,5.0,9.0,97,0.01,,---,0.01,VWS V14.01,2013-03-06 06:05:00,
2013-03-06 01:06:00,31.2,30.5,29.70,NE,53,6.0,10.0,97,0.01,,---,0.01,VWS V14.01,2013-03-06 06:06:00,
2013-03-06 01:10:00,31.3,30.5,29.70,ENE,76,9.0,11.0,97,0.01,,---,0.01,VWS V14.01,2013-03-06 06:10:00,
2013-03-06 01:11:00,31.2,30.5,29.70,ENE,67,4.0,14.0,97,0.01,,---,0.01,VWS V14.01,2013-03-06 06:11:00,
2013-03-06 01:15:00,31.2,30.5,29.70,NE,54,6.0,7.0,97,0.01,,---,0.01,VWS V14.01,2013-03-06 06:15:00,
2013-03-06 01:17:00,31.2,30.5,29.69,NE,41,6.0,10.0,97,0.01,,---,0.01,VWS V14.01,2013-03-06 06:17:00,
2013-03-06 01:18:00,31.2,30.5,29.69,NE,40,7.0,10.0,97,0.01,,---,0.01,VWS V14.01,2013-03-06 06:18:00,
2013-03-06 01:19:00,31.2,30.5,29.69,NE,52,10.0,12.0,97,0.01,,---,0.01,VWS V14.01,2013-03-06 06:19:00,
2013-03-06 01:20:00,31.2,30.5,29.70,ENE,66,11.0,14.0,97,0.01,,---,0.01,VWS V14.01,2013-03-06 06:20:00,
2013-03-06 01:21:00,31.2,30.5,29.69,NE,42,6.0,12.0,97,0.01,,---,0.01,VWS V14.01,2013-03-06 06:21:00,
2013-03-06 01:22:00,31.2,30.5,29.69,NNE,24,7.0,13.0,97,0.01,,---,0.01,VWS V14.01,2013-03-06 06:22:00,
2013-03-06 01:23:00,31.2,30.5,29.69,NE,36,9.0,13.0,97,0.01,,---,0.01,VWS V14.01,2013-03-06 06:23:00,
2013-03-06 01:24:00,31.2,30.5,29.69,NE,40,8.0,13.0,97,0.01,,---,0.01,VWS V14.01,2013-03-06 06:24:00,
2013-03-06 01:25:00,31.2,30.5,29.69,North,10,12.0,15.0,97,0.01,,---,0.01,VWS V14.01,2013-03-06 06:25:00,
2013-03-06 01:26:00,31.2,30.5,29.69,NE,48,6.0,10.0,97,0.01,,---,0.01,VWS V14.01,2013-03-06 06:26:00,
2013-03-06 01:27:00,31.2,30.5,29.69,NNE,32,7.0,15.0,97,0.01,,---,0.01,VWS V14.01,2013-03-06 06:27:00,
2013-03-06 01:28:00,31.2,30.7,29.69,NE,42,13.0,15.0,98,0.01,,---,0.01,VWS V14.01,2013-03-06 06:28:00,
2013-03-06 01:29:00,31.2,30.7,29.67,NNE,15,18.0,18.0,98,0.01,,---,0.01,VWS V14.01,2013-03-06 06:29:00,
2013-03-06 01:30:00,31.2,30.7,29.67,NE,51,13.0,13.0,98,0.01,,---,0.01,VWS V14.01,2013-03-06 06:30:00,
2013-03-06 01:31:00,31.2,30.5,29.69,NE,36,7.0,13.0,97,0.01,,---,0.01,VWS V14.01,2013-03-06 06:31:00,
2013-03-06 01:32:00,31.2,30.7,29.67,NNE,25,6.0,15.0,98,0.01,,---,0.01,VWS V14.01,2013-03-06 06:32:00,
2013-03-06 01:33:00,31.2,30.7,29.67,NNE,29,13.0,15.0,98,0.01,,---,0.01,VWS V14.01,2013-03-06 06:33:00,
2013-03-06 01:34:00,31.2,30.7,29.67,ENE,67,14.0,15.0,98,0.01,,---,0.01,VWS V14.01,2013-03-06 06:34:00,
2013-03-06 01:35:00,31.2,30.7,29.67,NE,36,14.0,14.0,98,0.01,,---,0.01,VWS V14.01,2013-03-06 06:35:00,
2013-03-06 01:36:00,31.2,30.5,29.69,NE,41,11.0,15.0,97,0.01,,---,0.01,VWS V14.01,2013-03-06 06:36:00,
2013-03-06 01:37:00,31.2,30.7,29.67,NNE,26,12.0,16.0,98,0.01,,---,0.01,VWS V14.01,2013-03-06 06:37:00,
2013-03-06 01:38:00,31.2,30.7,29.67,NE,46,9.0,16.0,98,0.01,,---,0.01,VWS V14.01,2013-03-06 06:38:00,
2013-03-06 01:39:00,31.0,30.5,29.67,NNE,17,6.0,16.0,98,0.01,,---,0.01,VWS V14.01,2013-03-06 06:39:00,
2013-03-06 01:40:00,31.0,30.5,29.67,NE,50,10.0,15.0,98,0.01,,---,0.01,VWS V14.01,2013-03-06 06:40:00,
2013-03-06 01:41:00,31.2,30.7,29.67,NE,40,10.0,15.0,98,0.01,,---,0.01,VWS V14.01,2013-03-06 06:41:00,
2013-03-06 01:42:00,31.0,30.5,29.67,NE,46,9.0,15.0,98,0.01,,---,0.01,VWS V14.01,2013-03-06 06:42:00,
2013-03-06 01:43:00,31.0,30.5,29.67,NE,49,4.0,15.0,98,0.01,,---,0.01,VWS V14.01,2013-03-06 06:43:00,
2013-03-06 01:44:00,31.0,30.5,29.67,NNE,29,11.0,15.0,98,0.01,,---,0.01,VWS V14.01,2013-03-06 06:44:00,
2013-03-06 01:45:00,31.0,30.5,29.67,NNE,33,7.0,9.0,98,0.00,,---,0.01,VWS V14.01,2013-03-06 06:45:00,
2013-03-06 01:46:00,31.2,30.7,29.67,NE,44,10.0,16.0,98,0.01,,---,0.01,VWS V14.01,2013-03-06 06:46:00,
2013-03-06 01:47:00,31.0,30.5,29.67,NE,40,3.0,10.0,98,0.00,,---,0.01,VWS V14.01,2013-03-06 06:47:00,
2013-03-06 01:48:00,31.0,30.5,29.67,ENE,64,14.0,16.0,98,0.00,,---,0.01,VWS V14.01,2013-03-06 06:48:00,
2013-03-06 01:49:00,31.0,30.5,29.67,NE,55,11.0,16.0,98,0.00,,---,0.01,VWS V14.01,2013-03-06 06:49:00,
2013-03-06 01:50:00,31.0,30.5,29.67,NNE,33,8.0,8.0,98,0.00,,---,0.01,VWS V14.01,2013-03-06 06:50:00,
2013-03-06 01:51:00,31.0,30.5,29.67,NE,36,5.0,15.0,98,0.01,,---,0.01,VWS V14.01,2013-03-06 06:51:00,
2013-03-06 01:52:00,31.0,30.5,29.67,NNE,26,4.0,10.0,98,0.00,,---,0.01,VWS V14.01,2013-03-06 06:52:00,
2013-03-06 01:53:00,31.0,30.5,29.67,ENE,73,6.0,10.0,98,0.00,,---,0.01,VWS V14.01,2013-03-06 06:53:00,
2013-03-06 01:54:00,31.0,30.5,29.67,NE,38,8.0,11.0,98,0.00,,---,0.01,VWS V14.01,2013-03-06 06:54:00,
2013-03-06 01:55:00,31.0,30.5,29.67,NE,40,6.0,13.0,98,0.00,,---,0.01,VWS V14.01,2013-03-06 06:55:00,
2013-03-06 01:56:00,31.0,30.5,29.67,NE,46,5.0,10.0,98,0.00,,---,0.01,VWS V14.01,2013-03-06 06:56:00,
2013-03-06 01:57:00,31.0,30.5,29.67,NNW,346,6.0,14.0,98,0.00,,---,0.01,VWS V14.01,2013-03-06 06:57:00,
2013-03-06 01:58:00,31.0,30.5,29.67,NE,35,5.0,14.0,98,0.00,,---,0.01,VWS V14.01,2013-03-06 06:58:00,
2013-03-06 01:59:00,31.0,30.5,29.65,NNE,24,10.0,16.0,98,0.00,,---,0.01,VWS V14.01,2013-03-06 06:59:00,
2013-03-06 02:00:00,31.0,30.5,29.65,NE,38,10.0,15.0,98,0.00,,---,0.01,VWS V14.01,2013-03-06 07:00:00,
2013-03-06 02:01:00,31.0,30.5,29.67,NNE,26,5.0,10.0,98,0.00,,---,0.01,VWS V14.01,2013-03-06 07:01:00,
2013-03-06 02:02:00,31.0,30.5,29.65,North,11,10.0,15.0,98,0.00,,---,0.01,VWS V14.01,2013-03-06 07:02:00,
2013-03-06 02:03:00,31.0,30.5,29.65,NE,38,11.0,15.0,98,0.00,,---,0.01,VWS V14.01,2013-03-06 07:03:00,
2013-03-06 02:04:00,31.0,30.5,29.65,NNE,20,10.0,15.0,98,0.00,,---,0.01,VWS V14.01,2013-03-06 07:04:00,
2013-03-06 02:05:00,31.0,30.5,29.65,NE,42,9.0,15.0,98,0.00,,---,0.01,VWS V14.01,2013-03-06 07:05:00,
2013-03-06 02:06:00,31.0,30.5,29.67,NE,43,10.0,14.0,98,0.00,,---,0.01,VWS V14.01,2013-03-06 07:06:00,
2013-03-06 02:07:00,31.0,30.5,29.65,North,5,8.0,15.0,98,0.00,,---,0.01,VWS V14.01,2013-03-06 07:07:00,
2013-03-06 02:08:00,30.9,30.4,29.65,North,355,11.0,15.0,98,0.00,,---,0.01,VWS V14.01,2013-03-06 07:08:00,
2013-03-06 02:09:00,30.9,30.4,29.65,NE,37,6.0,15.0,98,0.00,,---,0.01,VWS V14.01,2013-03-06 07:09:00,
2013-03-06 02:10:00,30.9,30.4,29.65,NE,38,12.0,12.0,98,0.00,,---,0.01,VWS V14.01,2013-03-06 07:10:00,
2013-03-06 02:11:00,31.0,30.5,29.65,NE,40,7.0,15.0,98,0.00,,---,0.01,VWS V14.01,2013-03-06 07:11:00,
2013-03-06 02:12:00,30.9,30.4,29.65,NE,36,7.0,14.0,98,0.00,,---,0.01,VWS V14.01,2013-03-06 07:12:00,
2013-03-06 02:13:00,30.9,30.4,29.65,NE,34,7.0,14.0,98,0.00,,---,0.01,VWS V14.01,2013-03-06 07:13:00,
2013-03-06 02:14:00,30.9,30.4,29.64,NE,47,6.0,14.0,98,0.00,,---,0.01,VWS V14.01,2013-03-06 07:14:00,
2013-03-06 02:15:00,30.9,30.4,29.64,NNE,24,3.0,5.0,98,0.00,,---,0.01,VWS V14.01,2013-03-06 07:15:00,
2013-03-06 02:16:00,31.0,30.5,29.65,North,5,8.0,15.0,98,0.00,,---,0.01,VWS V14.01,2013-03-06 07:16:00,
2013-03-06 02:17:00,30.9,30.4,29.64,ENE,61,6.0,6.0,98,0.00,,---,0.01,VWS V14.01,2013-03-06 07:17:00,
2013-03-06 02:18:00,30.9,30.4,29.64,NNE,20,9.0,11.0,98,0.00,,---,0.01,VWS V14.01,2013-03-06 07:18:00,
2013-03-06 02:19:00,30.9,30.4,29.64,NNE,29,10.0,11.0,98,0.00,,---,0.01,VWS V14.01,2013-03-06 07:19:00,
2013-03-06 02:20:00,30.9,30.4,29.64,NNE,25,9.0,12.0,98,0.00,,---,0.01,VWS V14.01,2013-03-06 07:20:00,
2013-03-06 02:21:00,30.9,30.4,29.65,ENE,59,6.0,14.0,98,0.00,,---,0.01,VWS V14.01,2013-03-06 07:21:00,
2013-03-06 02:22:00,30.9,30.4,29.64,NE,41,11.0,12.0,98,0.00,,---,0.01,VWS V14.01,2013-03-06 07:22:00,
2013-03-06 02:23:00,30.9,30.4,29.64,NNE,25,7.0,12.0,98,0.00,,---,0.01,VWS V14.01,2013-03-06 07:23:00,
2013-03-06 02:24:00,30.9,30.1,29.64,NNE,23,12.0,13.0,97,0.00,,---,0.01,VWS V14.01,2013-03-06 07:24:00,
2013-03-06 02:25:00,30.9,30.4,29.64,North,9,13.0,14.0,98,0.00,,---,0.01,VWS V14.01,2013-03-06 07:25:00,
2013-03-06 02:26:00,30.9,30.4,29.64,ENE,61,6.0,6.0,98,0.00,,---,0.01,VWS V14.01,2013-03-06 07:26:00,
2013-03-06 02:27:00,30.9,30.4,29.64,NNE,15,9.0,14.0,98,0.00,,---,0.01,VWS V14.01,2013-03-06 07:27:00,
2013-03-06 02:28:00,30.9,30.4,29.64,NNE,17,11.0,15.0,98,0.00,,---,0.01,VWS V14.01,2013-03-06 07:28:00,
2013-03-06 02:29:00,30.9,30.4,29.63,NNE,16,10.0,15.0,98,0.00,,---,0.01,VWS V14.01,2013-03-06 07:29:00,
2013-03-06 02:30:00,30.9,30.4,29.63,NNE,24,11.0,15.0,98,0.00,,---,0.01,VWS V14.01,2013-03-06 07:30:00,
2013-03-06 02:31:00,30.9,30.4,29.64,NE,40,10.0,12.0,98,0.00,,---,0.01,VWS V14.01,2013-03-06 07:31:00,
2013-03-06 02:32:00,30.9,30.4,29.63,North,11,9.0,15.0,98,0.00,,---,0.01,VWS V14.01,2013-03-06 07:32:00,
2013-03-06 02:33:00,31.0,30.5,29.63,NNE,24,14.0,16.0,98,0.00,,---,0.01,VWS V14.01,2013-03-06 07:33:00,
2013-03-06 02:34:00,31.0,30.5,29.63,NE,44,5.0,16.0,98,0.00,,---,0.01,VWS V14.01,2013-03-06 07:34:00,
2013-03-06 02:35:00,31.0,30.5,29.63,NE,42,11.0,11.0,98,0.00,,---,0.01,VWS V14.01,2013-03-06 07:35:00,
2013-03-06 02:36:00,30.9,30.4,29.64,NE,34,10.0,14.0,98,0.00,,---,0.01,VWS V14.01,2013-03-06 07:36:00,
2013-03-06 02:37:00,31.0,30.5,29.63,NNW,346,5.0,14.0,98,0.00,,---,0.01,VWS V14.01,2013-03-06 07:37:00,
2013-03-06 02:38:00,31.0,30.5,29.63,NNW,346,5.0,14.0,98,0.00,,---,0.01,VWS V14.01,2013-03-06 07:38:00,
2013-03-06 02:39:00,31.0,30.5,29.63,NE,36,9.0,14.0,98,0.00,,---,0.01,VWS V14.01,2013-03-06 07:39:00,
2013-03-06 02:40:00,31.0,30.5,29.63,NE,35,6.0,13.0,98,0.00,,---,0.01,VWS V14.01,2013-03-06 07:40:00,
2013-03-06 02:41:00,30.9,30.4,29.63,NNE,32,4.0,15.0,98,0.00,,---,0.01,VWS V14.01,2013-03-06 07:41:00,
2013-03-06 02:42:00,31.0,30.5,29.63,NNE,17,8.0,13.0,98,0.00,,---,0.01,VWS V14.01,2013-03-06 07:42:00,
2013-03-06 02:43:00,31.0,30.5,29.63,North,5,7.0,13.0,98,0.00,,---,0.01,VWS V14.01,2013-03-06 07:43:00,
2013-03-06 02:44:00,31.0,30.5,29.63,North,10,7.0,13.0,98,0.00,,---,0.01,VWS V14.01,2013-03-06 07:44:00,
2013-03-06 02:45:00,31.0,30.5,29.63,ENE,59,12.0,12.0,98,0.00,,---,0.01,VWS V14.01,2013-03-06 07:45:00,
2013-03-06 02:46:00,31.0,30.5,29.63,North,9,5.0,14.0,98,0.00,,---,0.01,VWS V14.01,2013-03-06 07:46:00,
2013-03-06 02:47:00,31.0,30.5,29.63,NE,45,5.0,13.0,98,0.00,,---,0.01,VWS V14.01,2013-03-06 07:47:00,
2013-03-06 02:48:00,31.0,30.5,29.63,North,5,18.0,19.0,98,0.00,,---,0.01,VWS V14.01,2013-03-06 07:48:00,
2013-03-06 02:49:00,31.0,30.5,29.63,North,10,15.0,21.0,98,0.00,,---,0.01,VWS V14.01,2013-03-06 07:49:00,
2013-03-06 02:50:00,31.0,30.5,29.63,North,11,15.0,16.0,98,0.00,,---,0.01,VWS V14.01,2013-03-06 07:50:00,
2013-03-06 02:51:00,31.0,30.5,29.63,North,11,7.0,13.0,98,0.00,,---,0.01,VWS V14.01,2013-03-06 07:51:00,
2013-03-06 02:52:00,31.2,30.7,29.63,North,11,14.0,16.0,98,0.00,,---,0.01,VWS V14.01,2013-03-06 07:52:00,
2013-03-06 02:53:00,31.2,30.7,29.63,NNE,24,17.0,21.0,98,0.00,,---,0.01,VWS V14.01,2013-03-06 07:53:00,
2013-03-06 02:54:00,31.2,30.7,29.63,NE,40,6.0,21.0,98,0.00,,---,0.01,VWS V14.01,2013-03-06 07:54:00,
2013-03-06 02:55:00,31.2,30.7,29.63,NE,45,5.0,5.0,98,0.00,,---,0.01,VWS V14.01,2013-03-06 07:55:00,
2013-03-06 02:56:00,31.0,30.5,29.63,NNE,30,10.0,13.0,98,0.00,,---,0.01,VWS V14.01,2013-03-06 07:56:00,
2013-03-06 02:57:00,31.2,30.7,29.63,ENE,69,3.0,11.0,98,0.00,,---,0.01,VWS V14.01,2013-03-06 07:57:00,
2013-03-06 02:58:00,31.2,30.7,29.63,ENE,69,1.0,11.0,98,0.00,,---,0.01,VWS V14.01,2013-03-06 07:58:00,
2013-03-06 02:59:00,31.2,30.7,29.63,ENE,59,3.0,11.0,98,0.00,,---,0.01,VWS V14.01,2013-03-06 07:59:00,
2013-03-06 03:00:00,31.2,30.7,29.63,NNE,12,6.0,9.0,98,0.00,,---,0.01,VWS V14.01,2013-03-06 08:00:00,
2013-03-06 03:01:00,31.2,30.7,29.63,NNE,16,9.0,16.0,98,0.00,,---,0.01,VWS V14.01,2013-03-06 08:01:00,
2013-03-06 03:02:00,31.2,30.7,29.63,NE,41,5.0,11.0,98,0.00,,---,0.01,VWS V14.01,2013-03-06 08:02:00,
2013-03-06 03:03:00,31.2,30.7,29.63,NNE,25,16.0,17.0,98,0.00,,---,0.01,VWS V14.01,2013-03-06 08:03:00,
2013-03-06 03:04:00,31.2,30.7,29.63,NE,42,9.0,17.0,98,0.00,,---,0.01,VWS V14.01,2013-03-06 08:04:00,
2013-03-06 03:05:00,31.2,30.7,29.63,NE,52,7.0,17.0,98,0.00,,---,0.01,VWS V14.01,2013-03-06 08:05:00,
2013-03-06 03:06:00,31.2,30.7,29.63,ENE,69,3.0,11.0,98,0.00,,---,0.01,VWS V14.01,2013-03-06 08:06:00,
2013-03-06 03:07:00,31.2,30.7,29.63,NE,46,4.0,4.0,98,0.00,,---,0.01,VWS V14.01,2013-03-06 08:07:00,
2013-03-06 03:08:00,31.2,30.7,29.63,NNE,28,3.0,6.0,98,0.00,,---,0.01,VWS V14.01,2013-03-06 08:08:00,
2013-03-06 03:11:00,31.2,30.7,29.63,North,5,11.0,11.0,98,0.00,,---,0.01,VWS V14.01,2013-03-06 08:11:00,
2013-03-06 03:12:00,31.2,30.7,29.63,NNE,18,6.0,11.0,98,0.00,,---,0.01,VWS V14.01,2013-03-06 08:12:00,
2013-03-06 03:13:00,31.2,30.7,29.63,NNE,19,10.0,11.0,98,0.00,,---,0.01,VWS V14.01,2013-03-06 08:13:00,
2013-03-06 03:14:00,31.2,30.7,29.63,NNE,19,5.0,11.0,98,0.00,,---,0.01,VWS V14.01,2013-03-06 08:14:00,
2013-03-06 03:15:00,31.2,30.7,29.63,NNE,19,12.0,12.0,98,0.00,,---,0.01,VWS V14.01,2013-03-06 08:15:00,
2013-03-06 03:16:00,31.2,30.7,29.63,NNE,20,5.0,12.0,98,0.00,,---,0.01,VWS V14.01,2013-03-06 08:16:00,
2013-03-06 03:17:00,31.2,30.7,29.63,NNE,28,4.0,6.0,98,0.00,,---,0.01,VWS V14.01,2013-03-06 08:17:00,
2013-03-06 03:18:00,31.2,30.7,29.63,NNE,21,6.0,12.0,98,0.00,,---,0.01,VWS V14.01,2013-03-06 08:18:00,
2013-03-06 03:19:00,31.2,30.7,29.63,NNE,17,13.0,13.0,98,0.00,,---,0.01,VWS V14.01,2013-03-06 08:19:00,
2013-03-06 03:20:00,31.2,30.7,29.63,North,355,7.0,10.0,98,0.00,,---,0.01,VWS V14.01,2013-03-06 08:20:00,
2013-03-06 03:21:00,31.2,30.7,29.63,NNE,19,10.0,12.0,98,0.00,,---,0.01,VWS V14.01,2013-03-06 08:21:00,
2013-03-06 03:22:00,31.2,30.7,29.63,NNE,18,5.0,11.0,98,0.00,,---,0.01,VWS V14.01,2013-03-06 08:22:00,
2013-03-06 03:23:00,31.2,30.7,29.63,NE,38,7.0,12.0,98,0.00,,---,0.01,VWS V14.01,2013-03-06 08:23:00,
2013-03-06 03:24:00,31.2,30.7,29.63,NE,36,8.0,12.0,98,0.00,,---,0.01,VWS V14.01,2013-03-06 08:24:00,
2013-03-06 03:25:00,31.2,30.7,29.63,NNE,19,5.0,8.0,98,0.00,,---,0.01,VWS V14.01,2013-03-06 08:25:00,
2013-03-06 03:26:00,31.2,30.7,29.63,NNE,19,4.0,8.0,98,0.00,,---,0.01,VWS V14.01,2013-03-06 08:26:00,
2013-03-06 03:27:00,31.2,30.7,29.63,NNE,25,7.0,12.0,98,0.00,,---,0.01,VWS V14.01,2013-03-06 08:27:00,
2013-03-06 03:28:00,31.2,30.7,29.63,North,360,9.0,11.0,98,0.00,,---,0.01,VWS V14.01,2013-03-06 08:28:00,
2013-03-06 03:29:00,31.2,30.7,29.62,North,10,9.0,11.0,98,0.00,,---,0.01,VWS V14.01,2013-03-06 08:29:00,
2013-03-06 03:30:00,31.2,30.7,29.62,NNE,15,5.0,12.0,98,0.00,,---,0.01,VWS V14.01,2013-03-06 08:30:00,
2013-03-06 03:31:00,31.2,30.7,29.62,NNE,13,5.0,12.0,98,0.00,,---,0.01,VWS V14.01,2013-03-06 08:31:00,
2013-03-06 03:32:00,31.2,30.7,29.63,NE,36,6.0,12.0,98,0.00,,---,0.01,VWS V14.01,2013-03-06 08:32:00,
2013-03-06 03:33:00,31.2,30.7,29.62,North,11,3.0,12.0,98,0.00,,---,0.01,VWS V14.01,2013-03-06 08:33:00,
2013-03-06 03:36:00,31.0,30.5,29.62,NNE,14,4.0,6.0,98,0.00,,---,0.01,VWS V14.01,2013-03-06 08:36:00,
2013-03-06 03:37:00,31.2,30.7,29.63,NNE,20,5.0,8.0,98,0.00,,---,0.01,VWS V14.01,2013-03-06 08:37:00,
2013-03-06 03:38:00,31.2,30.7,29.62,NNE,15,5.0,8.0,98,0.00,,---,0.01,VWS V14.01,2013-03-06 08:38:00,
2013-03-06 03:39:00,31.2,30.7,29.62,NNE,15,9.0,9.0,98,0.00,,---,0.01,VWS V14.01,2013-03-06 08:39:00,
2013-03-06 03:40:00,31.2,30.7,29.62,NNE,15,3.0,5.0,98,0.00,,---,0.01,VWS V14.01,2013-03-06 08:40:00,
2013-03-06 03:41:00,31.2,30.7,29.62,NNE,15,2.0,6.0,98,0.00,,---,0.01,VWS V14.01,2013-03-06 08:41:00,
2013-03-06 03:42:00,31.0,30.5,29.62,North,11,7.0,12.0,98,0.00,,---,0.01,VWS V14.01,2013-03-06 08:42:00,
2013-03-06 03:43:00,31.0,30.5,29.62,NNE,15,0.0,6.0,98,0.00,,---,0.01,VWS V14.01,2013-03-06 08:43:00,
2013-03-06 03:44:00,31.0,30.5,29.62,NNE,12,0.0,6.0,98,0.00,,---,0.01,VWS V14.01,2013-03-06 08:44:00,
2013-03-06 03:45:00,31.0,30.5,29.62,NNE,16,0.0,0.0,98,0.00,,---,0.01,VWS V14.01,2013-03-06 08:45:00,
2013-03-06 03:46:00,31.0,30.5,29.62,NNE,16,0.0,0.0,98,0.00,,---,0.01,VWS V14.01,2013-03-06 08:46:00,
2013-03-06 03:47:00,31.0,30.5,29.62,NNE,14,5.0,6.0,98,0.00,,---,0.01,VWS V14.01,2013-03-06 08:47:00,
2013-03-06 03:48:00,31.0,30.5,29.62,NNE,16,0.0,0.0,98,0.00,,---,0.01,VWS V14.01,2013-03-06 08:48:00,
2013-03-06 03:49:00,31.0,30.5,29.62,NNE,16,0.0,0.0,98,0.00,,---,0.01,VWS V14.01,2013-03-06 08:49:00,
2013-03-06 03:50:00,31.0,30.5,29.62,NNE,16,0.0,0.0,98,0.00,,---,0.01,VWS V14.01,2013-03-06 08:50:00,
2013-03-06 03:51:00,31.0,30.5,29.62,NNE,16,0.0,0.0,98,0.00,,---,0.01,VWS V14.01,2013-03-06 08:51:00,
2013-03-06 03:52:00,31.0,30.5,29.62,NNE,15,0.0,6.0,98,0.00,,---,0.01,VWS V14.01,2013-03-06 08:52:00,
2013-03-06 03:53:00,31.0,30.5,29.62,NNE,16,0.0,0.0,98,0.00,,---,0.01,VWS V14.01,2013-03-06 08:53:00,
2013-03-06 03:54:00,31.0,30.5,29.62,NNE,15,0.0,0.0,98,0.00,,---,0.01,VWS V14.01,2013-03-06 08:54:00,
2013-03-06 03:55:00,31.0,30.5,29.62,NNE,15,0.0,0.0,98,0.00,,---,0.01,VWS V14.01,2013-03-06 08:55:00,
2013-03-06 03:57:00,31.0,30.5,29.62,NNE,16,0.0,0.0,98,0.00,,---,0.01,VWS V14.01,2013-03-06 08:57:00,
2013-03-06 03:58:00,31.0,30.5,29.62,NNE,16,0.0,0.0,98,0.00,,---,0.01,VWS V14.01,2013-03-06 08:58:00,
2013-03-06 03:59:00,31.0,30.5,29.62,NNE,16,0.0,0.0,98,0.00,,---,0.01,VWS V14.01,2013-03-06 08:59:00,
2013-03-06 04:00:00,31.0,30.5,29.62,North,10,0.0,0.0,98,0.00,,---,0.01,VWS V14.01,2013-03-06 09:00:00,
2013-03-06 04:01:00,31.0,30.5,29.62,North,5,0.0,0.0,98,0.00,,---,0.01,VWS V14.01,2013-03-06 09:01:00,
2013-03-06 04:02:00,31.0,30.5,29.62,NNE,16,0.0,0.0,98,0.00,,---,0.01,VWS V14.01,2013-03-06 09:02:00,
2013-03-06 04:03:00,31.0,30.5,29.62,North,5,0.0,0.0,98,0.00,,---,0.01,VWS V14.01,2013-03-06 09:03:00,
2013-03-06 04:04:00,31.0,30.5,29.62,North,5,0.0,0.0,98,0.00,,---,0.01,VWS V14.01,2013-03-06 09:04:00,
2013-03-06 04:05:00,31.0,30.5,29.62,NNW,335,0.0,0.0,98,0.00,,---,0.01,VWS V14.01,2013-03-06 09:05:00,
2013-03-06 04:06:00,31.0,30.5,29.62,North,9,0.0,0.0,98,0.00,,---,0.01,VWS V14.01,2013-03-06 09:06:00,
2013-03-06 04:07:00,31.0,30.5,29.62,NNE,16,0.0,0.0,98,0.00,,---,0.01,VWS V14.01,2013-03-06 09:07:00,
2013-03-06 04:08:00,31.2,30.7,29.62,NNE,12,0.0,0.0,98,0.00,,---,0.01,VWS V14.01,2013-03-06 09:08:00,
2013-03-06 04:09:00,31.2,30.7,29.62,NNW,344,0.0,0.0,98,0.00,,---,0.01,VWS V14.01,2013-03-06 09:09:00,
2013-03-06 04:10:00,31.2,30.7,29.62,NNW,339,0.0,0.0,98,0.00,,---,0.01,VWS V14.01,2013-03-06 09:10:00,
2013-03-06 04:11:00,31.2,30.7,29.62,North,11,0.0,0.0,98,0.00,,---,0.01,VWS V14.01,2013-03-06 09:11:00,
2013-03-06 04:12:00,31.0,30.5,29.62,North,5,0.0,0.0,98,0.00,,---,0.01,VWS V14.01,2013-03-06 09:12:00,
2013-03-06 04:13:00,31.2,30.7,29.62,NNE,12,0.0,0.0,98,0.00,,---,0.01,VWS V14.01,2013-03-06 09:13:00,
2013-03-06 04:14:00,31.2,30.7,29.61,NNE,13,0.0,0.0,98,0.00,,---,0.01,VWS V14.01,2013-03-06 09:14:00,
2013-03-06 04:15:00,31.2,30.7,29.61,NNE,13,0.0,0.0,98,0.00,,---,0.01,VWS V14.01,2013-03-06 09:15:00,
2013-03-06 04:16:00,31.2,30.7,29.61,NNE,13,0.0,0.0,98,0.00,,---,0.01,VWS V14.01,2013-03-06 09:16:00,
2013-03-06 04:17:00,31.2,30.7,29.62,North,350,0.0,0.0,98,0.00,,---,0.01,VWS V14.01,2013-03-06 09:17:00,
2013-03-06 04:18:00,31.2,30.7,29.61,NNW,347,0.0,0.0,98,0.00,,---,0.01,VWS V14.01,2013-03-06 09:18:00,
2013-03-06 04:19:00,31.2,30.7,29.61,NNE,16,0.0,0.0,98,0.00,,---,0.01,VWS V14.01,2013-03-06 09:19:00,
2013-03-06 04:20:00,31.2,30.7,29.61,NNE,16,0.0,0.0,98,0.00,,---,0.01,VWS V14.01,2013-03-06 09:20:00,
2013-03-06 04:21:00,31.2,30.7,29.61,NNE,16,0.0,0.0,98,0.00,,---,0.01,VWS V14.01,2013-03-06 09:21:00,
2013-03-06 04:22:00,31.2,30.7,29.62,North,11,0.0,0.0,98,0.00,,---,0.01,VWS V14.01,2013-03-06 09:22:00,
2013-03-06 04:23:00,31.3,30.8,29.61,NNE,16,0.0,0.0,98,0.00,,---,0.01,VWS V14.01,2013-03-06 09:23:00,
2013-03-06 04:24:00,31.3,30.8,29.61,NNE,16,0.0,0.0,98,0.00,,---,0.01,VWS V14.01,2013-03-06 09:24:00,
2013-03-06 04:25:00,31.3,30.8,29.61,NNE,16,0.0,0.0,98,0.00,,---,0.01,VWS V14.01,2013-03-06 09:25:00,
2013-03-06 04:26:00,31.3,30.8,29.61,NNE,16,0.0,0.0,98,0.00,,---,0.01,VWS V14.01,2013-03-06 09:26:00,
2013-03-06 04:27:00,31.2,30.7,29.61,NW,323,0.0,0.0,98,0.00,,---,0.01,VWS V14.01,2013-03-06 09:27:00,
2013-03-06 04:28:00,31.3,30.8,29.61,NNE,16,0.0,0.0,98,0.00,,---,0.01,VWS V14.01,2013-03-06 09:28:00,
2013-03-06 04:29:00,31.3,30.8,29.60,NNE,16,0.0,0.0,98,0.00,,---,0.01,VWS V14.01,2013-03-06 09:29:00,
2013-03-06 04:30:00,31.3,30.8,29.60,NNE,16,0.0,0.0,98,0.00,,---,0.01,VWS V14.01,2013-03-06 09:30:00,
2013-03-06 04:31:00,31.3,30.8,29.60,NNE,17,0.0,0.0,98,0.00,,---,0.01,VWS V14.01,2013-03-06 09:31:00,
2013-03-06 04:32:00,31.3,30.8,29.61,NNE,16,0.0,0.0,98,0.00,,---,0.01,VWS V14.01,2013-03-06 09:32:00,
2013-03-06 04:33:00,31.5,31.0,29.60,NNE,17,0.0,0.0,98,0.00,,---,0.01,VWS V14.01,2013-03-06 09:33:00,
2013-03-06 04:34:00,31.5,31.0,29.60,NNE,17,0.0,0.0,98,0.00,,---,0.01,VWS V14.01,2013-03-06 09:34:00,
2013-03-06 04:35:00,31.5,31.0,29.60,NNE,17,0.0,0.0,98,0.00,,---,0.01,VWS V14.01,2013-03-06 09:35:00,
2013-03-06 04:36:00,31.5,31.0,29.60,NNE,17,0.0,0.0,98,0.00,,---,0.01,VWS V14.01,2013-03-06 09:36:00,
2013-03-06 04:37:00,31.3,30.8,29.61,NNE,16,0.0,0.0,98,0.00,,---,0.01,VWS V14.01,2013-03-06 09:37:00,
2013-03-06 04:40:00,31.5,31.0,29.60,NNE,17,0.0,0.0,98,0.00,,---,0.01,VWS V14.01,2013-03-06 09:40:00,
2013-03-06 04:41:00,31.5,31.0,29.60,NNE,17,0.0,0.0,98,0.00,,---,0.01,VWS V14.01,2013-03-06 09:41:00,
2013-03-06 04:42:00,31.5,31.0,29.60,NNE,17,0.0,0.0,98,0.00,,---,0.01,VWS V14.01,2013-03-06 09:42:00,
2013-03-06 04:43:00,31.6,31.1,29.60,NNE,17,0.0,0.0,98,0.00,,---,0.01,VWS V14.01,2013-03-06 09:43:00,
2013-03-06 04:44:00,31.6,31.1,29.59,NNE,17,0.0,0.0,98,0.00,,---,0.01,VWS V14.01,2013-03-06 09:44:00,
2013-03-06 04:45:00,31.6,31.1,29.59,NNE,17,0.0,0.0,98,0.00,,---,0.01,VWS V14.01,2013-03-06 09:45:00,
2013-03-06 04:46:00,31.6,31.1,29.59,NNE,18,0.0,0.0,98,0.00,,---,0.01,VWS V14.01,2013-03-06 09:46:00,
2013-03-06 04:47:00,31.6,31.1,29.59,NNE,17,0.0,0.0,98,0.00,,---,0.01,VWS V14.01,2013-03-06 09:47:00,
2013-03-06 04:48:00,31.6,31.1,29.59,NNE,17,0.0,0.0,98,0.00,,---,0.01,VWS V14.01,2013-03-06 09:48:00,
2013-03-06 04:49:00,31.5,31.0,29.60,NNE,17,0.0,0.0,98,0.00,,---,0.01,VWS V14.01,2013-03-06 09:49:00,
2013-03-06 04:53:00,31.6,31.1,29.59,NNE,20,0.0,0.0,98,0.00,,---,0.01,VWS V14.01,2013-03-06 09:53:00,
2013-03-06 04:54:00,31.6,31.1,29.59,NNE,17,0.0,0.0,98,0.00,,---,0.01,VWS V14.01,2013-03-06 09:54:00,
2013-03-06 04:55:00,31.6,31.1,29.59,NNE,20,0.0,0.0,98,0.00,,---,0.01,VWS V14.01,2013-03-06 09:55:00,
2013-03-06 04:56:00,31.8,31.3,29.59,NNE,20,0.0,0.0,98,0.00,,---,0.01,VWS V14.01,2013-03-06 09:56:00,
2013-03-06 04:57:00,31.8,31.3,29.59,NNE,22,0.0,0.0,98,0.00,,---,0.01,VWS V14.01,2013-03-06 09:57:00,
2013-03-06 04:58:00,31.8,31.3,29.59,NNE,22,0.0,0.0,98,0.00,,---,0.01,VWS V14.01,2013-03-06 09:58:00,
2013-03-06 04:59:00,31.8,31.3,29.60,NNE,22,0.0,0.0,98,0.00,,---,0.01,VWS V14.01,2013-03-06 09:59:00,
2013-03-06 05:00:00,31.8,31.3,29.60,NNE,22,0.0,0.0,98,0.00,,---,0.01,VWS V14.01,2013-03-06 10:00:00,
2013-03-06 05:01:00,31.8,31.3,29.60,NNE,23,0.0,0.0,98,0.00,,---,0.01,VWS V14.01,2013-03-06 10:01:00,
2013-03-06 05:02:00,31.8,31.3,29.60,NNE,23,0.0,0.0,98,0.00,,---,0.01,VWS V14.01,2013-03-06 10:02:00,
2013-03-06 05:03:00,31.6,31.1,29.59,NNE,20,0.0,0.0,98,0.00,,---,0.01,VWS V14.01,2013-03-06 10:03:00,
2013-03-06 05:04:00,31.9,31.4,29.60,NNE,23,0.0,0.0,98,0.00,,---,0.01,VWS V14.01,2013-03-06 10:04:00,
2013-03-06 05:05:00,31.9,31.4,29.60,NNE,23,0.0,0.0,98,0.00,,---,0.01,VWS V14.01,2013-03-06 10:05:00,
2013-03-06 05:06:00,31.9,31.4,29.60,NNE,23,0.0,0.0,98,0.00,,---,0.01,VWS V14.01,2013-03-06 10:06:00,
2013-03-06 05:07:00,31.9,31.4,29.60,NNE,24,0.0,0.0,98,0.00,,---,0.01,VWS V14.01,2013-03-06 10:07:00,
2013-03-06 05:08:00,31.8,31.3,29.59,NNE,22,0.0,0.0,98,0.00,,---,0.01,VWS V14.01,2013-03-06 10:08:00,
2013-03-06 05:09:00,31.9,31.4,29.60,NNE,24,0.0,0.0,98,0.00,,---,0.01,VWS V14.01,2013-03-06 10:09:00,
2013-03-06 05:10:00,31.9,31.4,29.60,NNE,24,0.0,0.0,98,0.00,,---,0.01,VWS V14.01,2013-03-06 10:10:00,
2013-03-06 05:11:00,31.9,31.4,29.60,NNE,24,0.0,0.0,98,0.00,,---,0.01,VWS V14.01,2013-03-06 10:11:00,
2013-03-06 05:12:00,31.9,31.4,29.60,NNE,24,0.0,0.0,98,0.00,,---,0.01,VWS V14.01,2013-03-06 10:12:00,
2013-03-06 05:13:00,31.9,31.4,29.60,NNE,23,0.0,0.0,98,0.00,,---,0.01,VWS V14.01,2013-03-06 10:13:00,
2013-03-06 05:14:00,31.9,31.4,29.60,NNE,24,0.0,0.0,98,0.00,,---,0.01,VWS V14.01,2013-03-06 10:14:00,
2013-03-06 05:15:00,31.9,31.4,29.60,NNE,24,0.0,0.0,98,0.00,,---,0.01,VWS V14.01,2013-03-06 10:15:00,
2013-03-06 05:16:00,31.9,31.4,29.60,NNE,24,0.0,0.0,98,0.00,,---,0.01,VWS V14.01,2013-03-06 10:16:00,
2013-03-06 05:17:00,31.9,31.4,29.60,NNE,24,0.0,0.0,98,0.00,,---,0.01,VWS V14.01,2013-03-06 10:17:00,
2013-03-06 05:18:00,31.9,31.4,29.60,NNE,24,0.0,0.0,98,0.00,,---,0.01,VWS V14.01,2013-03-06 10:18:00,
2013-03-06 05:19:00,32.0,31.5,29.60,NNE,26,0.0,0.0,98,0.00,,---,0.01,VWS V14.01,2013-03-06 10:19:00,
2013-03-06 05:20:00,32.0,31.5,29.60,NNE,26,0.0,0.0,98,0.00,,---,0.01,VWS V14.01,2013-03-06 10:20:00,
2013-03-06 05:22:00,32.0,31.5,29.60,NNE,26,0.0,0.0,98,0.00,,---,0.01,VWS V14.01,2013-03-06 10:22:00,
2013-03-06 05:23:00,32.0,31.5,29.60,NNE,26,0.0,0.0,98,0.00,,---,0.01,VWS V14.01,2013-03-06 10:23:00,
2013-03-06 05:24:00,31.9,31.4,29.60,NNE,24,0.0,0.0,98,0.00,,---,0.01,VWS V14.01,2013-03-06 10:24:00,
2013-03-06 05:25:00,32.0,31.5,29.60,NNE,26,0.0,0.0,98,0.00,,---,0.01,VWS V14.01,2013-03-06 10:25:00,
2013-03-06 05:26:00,32.0,31.5,29.60,NNE,27,0.0,0.0,98,0.00,,---,0.01,VWS V14.01,2013-03-06 10:26:00,
2013-03-06 05:27:00,32.0,31.5,29.60,NNE,26,0.0,0.0,98,0.00,,---,0.01,VWS V14.01,2013-03-06 10:27:00,
2013-03-06 05:28:00,32.0,31.5,29.60,NNE,13,0.0,0.0,98,0.00,,---,0.01,VWS V14.01,2013-03-06 10:28:00,
2013-03-06 05:29:00,32.0,31.5,29.60,NNE,26,0.0,0.0,98,0.00,,---,0.01,VWS V14.01,2013-03-06 10:29:00,
2013-03-06 05:30:00,32.0,31.5,29.60,NNE,31,0.0,0.0,98,0.00,,---,0.01,VWS V14.01,2013-03-06 10:30:00,
2013-03-06 05:31:00,32.2,31.7,29.60,North,355,0.0,0.0,98,0.00,,---,0.01,VWS V14.01,2013-03-06 10:31:00,
2013-03-06 05:32:00,32.2,31.7,29.60,North,360,0.0,0.0,98,0.00,,---,0.01,VWS V14.01,2013-03-06 10:32:00,
2013-03-06 05:33:00,32.2,31.7,29.60,NNW,340,0.0,0.0,98,0.00,,---,0.01,VWS V14.01,2013-03-06 10:33:00,
2013-03-06 05:34:00,32.0,31.5,29.60,NNE,26,0.0,0.0,98,0.00,,---,0.01,VWS V14.01,2013-03-06 10:34:00,
2013-03-06 05:35:00,32.2,31.7,29.60,North,5,0.0,0.0,98,0.00,,---,0.01,VWS V14.01,2013-03-06 10:35:00,
2013-03-06 05:36:00,32.2,31.7,29.60,NNW,329,0.0,0.0,98,0.00,,---,0.01,VWS V14.01,2013-03-06 10:36:00,
2013-03-06 05:37:00,32.2,31.7,29.60,North,350,0.0,0.0,98,0.00,,---,0.01,VWS V14.01,2013-03-06 10:37:00,
2013-03-06 05:38:00,32.2,31.7,29.60,North,355,0.0,0.0,98,0.00,,---,0.01,VWS V14.01,2013-03-06 10:38:00,
2013-03-06 05:39:00,32.0,31.5,29.60,NNW,343,0.0,0.0,98,0.00,,---,0.01,VWS V14.01,2013-03-06 10:39:00,
2013-03-06 05:40:00,32.2,31.7,29.60,North,11,0.0,0.0,98,0.00,,---,0.01,VWS V14.01,2013-03-06 10:40:00,
2013-03-06 05:41:00,32.2,31.7,29.60,NW,322,0.0,0.0,98,0.00,,---,0.01,VWS V14.01,2013-03-06 10:41:00,
2013-03-06 05:42:00,32.3,31.8,29.60,NNE,24,0.0,0.0,98,0.00,,---,0.01,VWS V14.01,2013-03-06 10:42:00,
2013-03-06 05:43:00,32.3,31.8,29.60,North,360,0.0,0.0,98,0.00,,---,0.01,VWS V14.01,2013-03-06 10:43:00,
2013-03-06 05:44:00,32.2,31.7,29.60,NNW,339,0.0,0.0,98,0.00,,---,0.01,VWS V14.01,2013-03-06 10:44:00,
2013-03-06 05:45:00,32.3,31.8,29.59,NNE,12,0.0,0.0,98,0.00,,---,0.01,VWS V14.01,2013-03-06 10:45:00,
2013-03-06 05:46:00,32.3,31.8,29.59,NNE,13,0.0,0.0,98,0.00,,---,0.01,VWS V14.01,2013-03-06 10:46:00,
2013-03-06 05:47:00,32.3,31.8,29.59,North,355,0.0,0.0,98,0.00,,---,0.01,VWS V14.01,2013-03-06 10:47:00,
2013-03-06 05:48:00,32.3,31.8,29.59,NNE,33,0.0,0.0,98,0.01,,---,0.02,VWS V14.01,2013-03-06 10:48:00,
2013-03-06 05:49:00,32.2,31.7,29.60,North,5,0.0,0.0,98,0.00,,---,0.01,VWS V14.01,2013-03-06 10:49:00,
2013-03-06 05:50:00,32.3,31.8,29.59,NE,41,0.0,0.0,98,0.01,,---,0.02,VWS V14.01,2013-03-06 10:50:00,
2013-03-06 05:51:00,32.3,31.8,29.59,NE,40,0.0,0.0,98,0.01,,---,0.02,VWS V14.01,2013-03-06 10:51:00,
2013-03-06 05:52:00,32.3,31.8,29.59,NE,41,0.0,0.0,98,0.01,,---,0.02,VWS V14.01,2013-03-06 10:52:00,
2013-03-06 05:53:00,32.3,31.8,29.59,NE,42,0.0,0.0,98,0.02,,---,0.03,VWS V14.01,2013-03-06 10:53:00,
2013-03-06 05:54:00,32.3,31.8,29.59,NNE,19,0.0,0.0,98,0.00,,---,0.01,VWS V14.01,2013-03-06 10:54:00,
2013-03-06 05:55:00,32.3,31.8,29.59,NE,42,0.0,0.0,98,0.02,,---,0.03,VWS V14.01,2013-03-06 10:55:00,
2013-03-06 05:56:00,32.3,31.8,29.59,NE,42,0.0,0.0,98,0.02,,---,0.03,VWS V14.01,2013-03-06 10:56:00,
2013-03-06 05:57:00,32.3,31.8,29.59,NE,36,0.0,0.0,98,0.02,,---,0.03,VWS V14.01,2013-03-06 10:57:00,
2013-03-06 05:58:00,32.3,31.8,29.59,NNE,30,0.0,0.0,98,0.02,,---,0.03,VWS V14.01,2013-03-06 10:58:00,
2013-03-06 05:59:00,32.3,31.8,29.59,NNE,28,0.0,0.0,98,0.01,,---,0.02,VWS V14.01,2013-03-06 10:59:00,
2013-03-06 06:01:00,32.3,31.8,29.59,NNE,33,0.0,0.0,98,0.02,,---,0.03,VWS V14.01,2013-03-06 11:01:00,
2013-03-06 06:02:00,32.3,31.8,29.59,NNW,348,0.0,0.0,98,0.02,,---,0.03,VWS V14.01,2013-03-06 11:02:00,
2013-03-06 06:03:00,32.3,31.8,29.59,NNW,348,0.0,0.0,98,0.02,,---,0.03,VWS V14.01,2013-03-06 11:03:00,
2013-03-06 06:04:00,32.3,31.8,29.59,NE,42,0.0,0.0,98,0.02,,---,0.03,VWS V14.01,2013-03-06 11:04:00,
2013-03-06 06:05:00,32.3,31.8,29.59,NNW,331,0.0,0.0,98,0.02,,---,0.03,VWS V14.01,2013-03-06 11:05:00,
2013-03-06 06:06:00,32.3,31.8,29.59,NNE,22,0.0,0.0,98,0.02,,---,0.04,VWS V14.01,2013-03-06 11:06:00,
2013-03-06 06:07:00,32.3,31.8,29.59,North,5,0.0,0.0,98,0.03,,---,0.04,VWS V14.01,2013-03-06 11:07:00,
2013-03-06 06:08:00,32.3,31.8,29.59,North,355,0.0,0.0,98,0.03,,---,0.04,VWS V14.01,2013-03-06 11:08:00,
2013-03-06 06:09:00,32.3,31.8,29.59,North,5,0.0,0.0,98,0.03,,---,0.04,VWS V14.01,2013-03-06 11:09:00,
2013-03-06 06:10:00,32.3,31.8,29.59,NNE,19,0.0,0.0,98,0.02,,---,0.03,VWS V14.01,2013-03-06 11:10:00,
2013-03-06 06:11:00,32.5,32.0,29.59,NW,306,0.0,0.0,98,0.03,,---,0.04,VWS V14.01,2013-03-06 11:11:00,
2013-03-06 06:12:00,32.5,32.0,29.59,NNE,22,0.0,0.0,98,0.03,,---,0.04,VWS V14.01,2013-03-06 11:12:00,
2013-03-06 06:15:00,32.3,31.8,29.59,NNE,20,0.0,0.0,98,0.02,,---,0.03,VWS V14.01,2013-03-06 11:15:00,
2013-03-06 06:16:00,32.6,32.1,29.59,North,360,0.0,0.0,98,0.04,,---,0.05,VWS V14.01,2013-03-06 11:16:00,
2013-03-06 06:17:00,32.6,32.1,29.59,NNE,30,0.0,0.0,98,0.04,,---,0.05,VWS V14.01,2013-03-06 11:17:00,
2013-03-06 06:18:00,32.8,32.3,29.59,North,360,0.0,0.0,98,0.04,,---,0.05,VWS V14.01,2013-03-06 11:18:00,
2013-03-06 06:19:00,32.8,32.3,29.59,North,10,0.0,0.0,98,0.04,,---,0.05,VWS V14.01,2013-03-06 11:19:00,
2013-03-06 06:20:00,32.5,32.0,29.59,North,360,0.0,0.0,98,0.03,,---,0.04,VWS V14.01,2013-03-06 11:20:00,
2013-03-06 06:21:00,32.8,32.3,29.59,North,360,0.0,0.0,98,0.04,,---,0.05,VWS V14.01,2013-03-06 11:21:00,
2013-03-06 06:22:00,32.8,32.3,29.59,NNW,346,0.0,0.0,98,0.04,,---,0.05,VWS V14.01,2013-03-06 11:22:00,
2013-03-06 06:23:00,32.8,32.3,29.59,North,5,0.0,0.0,98,0.04,,---,0.05,VWS V14.01,2013-03-06 11:23:00,
2013-03-06 06:24:00,32.8,32.3,29.59,NNE,19,0.0,0.0,98,0.04,,---,0.05,VWS V14.01,2013-03-06 11:24:00,
2013-03-06 06:25:00,32.6,32.1,29.59,NNE,26,0.0,0.0,98,0.04,,---,0.05,VWS V14.01,2013-03-06 11:25:00,
2013-03-06 06:26:00,32.9,32.4,29.59,NE,36,0.0,0.0,98,0.05,,---,0.06,VWS V14.01,2013-03-06 11:26:00,
2013-03-06 06:27:00,32.9,32.4,29.59,NNE,17,0.0,0.0,98,0.05,,---,0.06,VWS V14.01,2013-03-06 11:27:00,
2013-03-06 06:28:00,32.9,32.4,29.59,NNE,13,0.0,0.0,98,0.05,,---,0.06,VWS V14.01,2013-03-06 11:28:00,
2013-03-06 06:29:00,33.1,32.6,29.59,North,9,0.0,0.0,98,0.05,,---,0.06,VWS V14.01,2013-03-06 11:29:00,
2013-03-06 06:30:00,32.8,32.3,29.59,North,9,0.0,0.0,98,0.04,,---,0.05,VWS V14.01,2013-03-06 11:30:00,
2013-03-06 06:31:00,33.1,32.6,29.59,ENE,63,6.0,8.0,98,0.05,,---,0.06,VWS V14.01,2013-03-06 11:31:00,
2013-03-06 06:34:00,33.1,32.3,29.59,ENE,65,4.0,6.0,97,0.06,,---,0.07,VWS V14.01,2013-03-06 11:34:00,
2013-03-06 06:35:00,32.9,32.4,29.59,NE,41,0.0,0.0,98,0.05,,---,0.06,VWS V14.01,2013-03-06 11:35:00,
2013-03-06 06:36:00,33.1,32.3,29.59,NNE,12,5.0,11.0,97,0.06,,---,0.07,VWS V14.01,2013-03-06 11:36:00,
2013-03-06 06:37:00,33.1,32.3,29.59,North,350,7.0,11.0,97,0.06,,---,0.07,VWS V14.01,2013-03-06 11:37:00,
2013-03-06 06:38:00,33.1,32.3,29.59,NNW,331,7.0,11.0,97,0.06,,---,0.07,VWS V14.01,2013-03-06 11:38:00,
2013-03-06 06:39:00,33.1,32.3,29.59,North,350,3.0,11.0,97,0.06,,---,0.07,VWS V14.01,2013-03-06 11:39:00,
2013-03-06 06:40:00,33.1,32.6,29.59,NNW,344,8.0,8.0,98,0.05,,---,0.06,VWS V14.01,2013-03-06 11:40:00,
2013-03-06 06:41:00,33.1,32.3,29.59,North,5,5.0,8.0,97,0.07,,---,0.08,VWS V14.01,2013-03-06 11:41:00,
2013-03-06 06:42:00,33.1,32.3,29.59,North,5,5.0,8.0,97,0.07,,---,0.08,VWS V14.01,2013-03-06 11:42:00,
2013-03-06 06:43:00,33.1,32.3,29.59,NNW,338,8.0,8.0,97,0.07,,---,0.08,VWS V14.01,2013-03-06 11:43:00,
2013-03-06 06:44:00,33.1,32.3,29.59,North,360,3.0,8.0,97,0.08,,---,0.09,VWS V14.01,2013-03-06 11:44:00,
2013-03-06 06:45:00,33.1,32.3,29.59,NNW,337,5.0,11.0,97,0.06,,---,0.07,VWS V14.01,2013-03-06 11:45:00,
2013-03-06 06:46:00,33.1,32.3,29.59,North,351,6.0,10.0,97,0.08,,---,0.09,VWS V14.01,2013-03-06 11:46:00,
2013-03-06 06:47:00,33.1,32.3,29.59,North,355,4.0,10.0,97,0.08,,---,0.09,VWS V14.01,2013-03-06 11:47:00,
2013-03-06 06:48:00,33.1,32.1,29.59,North,350,3.0,10.0,96,0.08,,---,0.09,VWS V14.01,2013-03-06 11:48:00,
2013-03-06 06:49:00,33.1,32.1,29.59,NW,321,6.0,10.0,96,0.08,,---,0.09,VWS V14.01,2013-03-06 11:49:00,
2013-03-06 06:50:00,33.1,32.3,29.59,North,11,7.0,8.0,97,0.07,,---,0.08,VWS V14.01,2013-03-06 11:50:00,
2013-03-06 06:51:00,33.1,32.1,29.59,NNW,347,7.0,10.0,96,0.08,,---,0.10,VWS V14.01,2013-03-06 11:51:00,
2013-03-06 06:52:00,33.1,32.1,29.59,North,5,5.0,10.0,96,0.08,,---,0.10,VWS V14.01,2013-03-06 11:52:00,
2013-03-06 06:53:00,32.9,31.9,29.59,North,360,6.0,10.0,96,0.08,,---,0.10,VWS V14.01,2013-03-06 11:53:00,
2013-03-06 06:54:00,32.9,31.9,29.59,North,11,0.0,10.0,96,0.09,,---,0.11,VWS V14.01,2013-03-06 11:54:00,
2013-03-06 06:55:00,33.1,32.3,29.59,North,351,6.0,10.0,97,0.08,,---,0.09,VWS V14.01,2013-03-06 11:55:00,
2013-03-06 06:56:00,32.9,31.9,29.59,NNW,333,5.0,6.0,96,0.08,,---,0.11,VWS V14.01,2013-03-06 11:56:00,
2013-03-06 06:57:00,32.9,31.9,29.59,North,360,5.0,6.0,96,0.08,,---,0.11,VWS V14.01,2013-03-06 11:57:00,
2013-03-06 06:58:00,32.9,31.9,29.59,NNW,346,10.0,11.0,96,0.08,,---,0.11,VWS V14.01,2013-03-06 11:58:00,
2013-03-06 06:59:00,32.9,31.9,29.59,NE,42,9.0,13.0,96,0.08,,---,0.11,VWS V14.01,2013-03-06 11:59:00,
2013-03-06 07:00:00,33.1,32.1,29.59,North,360,9.0,10.0,96,0.08,,---,0.10,VWS V14.01,2013-03-06 12:00:00,
2013-03-06 07:01:00,32.9,31.9,29.59,North,360,9.0,13.0,96,0.09,,---,0.12,VWS V14.01,2013-03-06 12:01:00,
2013-03-06 07:02:00,32.9,31.9,29.59,North,5,5.0,13.0,96,0.09,,---,0.12,VWS V14.01,2013-03-06 12:02:00,
2013-03-06 07:03:00,32.9,31.9,29.59,North,355,6.0,13.0,96,0.09,,---,0.12,VWS V14.01,2013-03-06 12:03:00,
2013-03-06 07:04:00,33.1,32.1,29.59,North,9,5.0,13.0,96,0.09,,---,0.12,VWS V14.01,2013-03-06 12:04:00,
2013-03-06 07:05:00,32.9,31.9,29.59,NW,323,4.0,6.0,96,0.08,,---,0.11,VWS V14.01,2013-03-06 12:05:00,
2013-03-06 07:06:00,33.1,32.1,29.59,NNE,30,6.0,8.0,96,0.10,,---,0.13,VWS V14.01,2013-03-06 12:06:00,
2013-03-06 07:07:00,33.1,31.8,29.59,North,360,3.0,8.0,95,0.10,,---,0.13,VWS V14.01,2013-03-06 12:07:00,
2013-03-06 07:08:00,33.1,31.8,29.59,NNE,30,5.0,9.0,95,0.10,,---,0.13,VWS V14.01,2013-03-06 12:08:00,
2013-03-06 07:09:00,33.1,31.8,29.59,NE,42,5.0,9.0,95,0.10,,---,0.13,VWS V14.01,2013-03-06 12:09:00,
2013-03-06 07:10:00,32.9,31.9,29.59,North,5,10.0,13.0,96,0.09,,---,0.12,VWS V14.01,2013-03-06 12:10:00,
2013-03-06 07:11:00,32.9,31.6,29.59,NNW,346,4.0,7.0,95,0.10,,---,0.14,VWS V14.01,2013-03-06 12:11:00,
2013-03-06 07:12:00,32.9,31.6,29.59,NNE,32,2.0,7.0,95,0.10,,---,0.14,VWS V14.01,2013-03-06 12:12:00,
2013-03-06 07:13:00,32.9,31.6,29.59,NNE,32,2.0,7.0,95,0.10,,---,0.14,VWS V14.01,2013-03-06 12:13:00,
2013-03-06 07:14:00,32.9,31.6,29.59,NNE,23,9.0,11.0,95,0.10,,---,0.14,VWS V14.01,2013-03-06 12:14:00,
2013-03-06 07:15:00,33.1,32.1,29.59,NNE,21,3.0,8.0,96,0.10,,---,0.13,VWS V14.01,2013-03-06 12:15:00,
2013-03-06 07:16:00,32.9,31.6,29.59,NNE,24,6.0,11.0,95,0.11,,---,0.15,VWS V14.01,2013-03-06 12:16:00,
2013-03-06 07:17:00,32.9,31.6,29.59,NNE,15,3.0,11.0,95,0.11,,---,0.15,VWS V14.01,2013-03-06 12:17:00,
2013-03-06 07:18:00,32.9,31.6,29.59,North,11,14.0,14.0,95,0.11,,---,0.15,VWS V14.01,2013-03-06 12:18:00,
2013-03-06 07:19:00,32.9,31.6,29.59,North,9,10.0,14.0,95,0.11,,---,0.15,VWS V14.01,2013-03-06 12:19:00,
2013-03-06 07:20:00,32.9,31.6,29.59,NNW,346,3.0,7.0,95,0.10,,---,0.14,VWS V14.01,2013-03-06 12:20:00,
2013-03-06 07:21:00,32.8,31.5,29.59,North,355,11.0,11.0,95,0.10,,---,0.15,VWS V14.01,2013-03-06 12:21:00,
2013-03-06 07:22:00,32.8,31.5,29.59,NNW,329,4.0,14.0,95,0.11,,---,0.16,VWS V14.01,2013-03-06 12:22:00,
2013-03-06 07:23:00,32.8,31.5,29.59,NNW,340,9.0,16.0,95,0.11,,---,0.16,VWS V14.01,2013-03-06 12:23:00,
2013-03-06 07:24:00,32.8,31.5,29.59,NNW,341,8.0,16.0,95,0.11,,---,0.16,VWS V14.01,2013-03-06 12:24:00,
2013-03-06 07:25:00,32.9,31.6,29.59,NNE,28,7.0,11.0,95,0.11,,---,0.15,VWS V14.01,2013-03-06 12:25:00,
2013-03-06 07:26:00,32.6,31.3,29.59,NNW,341,6.0,13.0,95,0.11,,---,0.16,VWS V14.01,2013-03-06 12:26:00,
2013-03-06 07:27:00,32.6,31.3,29.59,NNW,348,4.0,13.0,95,0.12,,---,0.17,VWS V14.01,2013-03-06 12:27:00,
2013-03-06 07:28:00,32.6,31.3,29.59,NNW,344,13.0,13.0,95,0.12,,---,0.17,VWS V14.01,2013-03-06 12:28:00,
2013-03-06 07:29:00,32.6,31.3,29.59,North,355,6.0,13.0,95,0.12,,---,0.17,VWS V14.01,2013-03-06 12:29:00,
2013-03-06 07:30:00,32.8,31.5,29.59,NE,44,10.0,10.0,95,0.10,,---,0.15,VWS V14.01,2013-03-06 12:30:00,
2013-03-06 07:31:00,32.6,31.3,29.59,NNW,331,12.0,12.0,95,0.11,,---,0.17,VWS V14.01,2013-03-06 12:31:00,
2013-03-06 07:32:00,32.5,31.2,29.59,North,5,10.0,13.0,95,0.11,,---,0.17,VWS V14.01,2013-03-06 12:32:00,
2013-03-06 07:33:00,32.6,31.6,29.59,North,10,5.0,13.0,96,0.11,,---,0.17,VWS V14.01,2013-03-06 12:33:00,
2013-03-06 07:34:00,32.6,31.6,29.59,NNW,329,7.0,18.0,96,0.11,,---,0.17,VWS V14.01,2013-03-06 12:34:00,
2013-03-06 07:35:00,32.6,31.3,29.59,NNW,342,8.0,13.0,95,0.11,,---,0.16,VWS V14.01,2013-03-06 12:35:00,
2013-03-06 07:36:00,32.6,31.6,29.59,NNE,27,6.0,8.0,96,0.10,,---,0.17,VWS V14.01,2013-03-06 12:36:00,
2013-03-06 07:37:00,32.6,31.6,29.59,North,360,12.0,17.0,96,0.11,,---,0.18,VWS V14.01,2013-03-06 12:37:00,
2013-03-06 07:38:00,32.6,31.6,29.59,North,355,17.0,17.0,96,0.11,,---,0.18,VWS V14.01,2013-03-06 12:38:00,
2013-03-06 07:39:00,32.6,31.6,29.59,North,350,12.0,17.0,96,0.11,,---,0.18,VWS V14.01,2013-03-06 12:39:00,
2013-03-06 07:40:00,32.6,31.3,29.59,NNW,327,6.0,9.0,95,0.11,,---,0.17,VWS V14.01,2013-03-06 12:40:00,
2013-03-06 07:41:00,32.8,31.8,29.59,NNE,17,12.0,18.0,96,0.10,,---,0.18,VWS V14.01,2013-03-06 12:41:00,
2013-03-06 07:42:00,32.9,31.9,29.59,NNE,22,13.0,18.0,96,0.11,,---,0.19,VWS V14.01,2013-03-06 12:42:00,
2013-03-06 07:43:00,32.9,31.9,29.59,NNE,31,15.0,18.0,96,0.11,,---,0.19,VWS V14.01,2013-03-06 12:43:00,
2013-03-06 07:44:00,32.9,31.9,29.59,North,355,10.0,18.0,96,0.11,,---,0.19,VWS V14.01,2013-03-06 12:44:00,
2013-03-06 07:45:00,32.6,31.6,29.59,North,355,1.0,8.0,96,0.10,,---,0.17,VWS V14.01,2013-03-06 12:45:00,
2013-03-06 07:46:00,32.9,31.9,29.59,NE,47,19.0,19.0,96,0.10,,---,0.19,VWS V14.01,2013-03-06 12:46:00,
2013-03-06 07:47:00,32.9,31.9,29.59,NNW,340,12.0,19.0,96,0.10,,---,0.19,VWS V14.01,2013-03-06 12:47:00,
2013-03-06 07:48:00,32.9,31.9,29.59,NNE,22,12.0,19.0,96,0.10,,---,0.19,VWS V14.01,2013-03-06 12:48:00,
2013-03-06 07:49:00,32.9,31.9,29.59,SSE,148,13.0,19.0,96,0.11,,---,0.20,VWS V14.01,2013-03-06 12:49:00,
2013-03-06 07:50:00,32.8,31.8,29.59,NNE,30,15.0,18.0,96,0.10,,---,0.18,VWS V14.01,2013-03-06 12:50:00,
2013-03-06 07:51:00,32.9,31.6,29.59,North,5,16.0,18.0,95,0.11,,---,0.20,VWS V14.01,2013-03-06 12:51:00,
2013-03-06 07:52:00,32.9,31.6,29.59,North,350,23.0,33.0,95,0.11,,---,0.20,VWS V14.01,2013-03-06 12:52:00,
2013-03-06 07:53:00,32.9,31.6,29.59,NNW,345,16.0,33.0,95,0.11,,---,0.20,VWS V14.01,2013-03-06 12:53:00,
2013-03-06 07:54:00,32.9,31.6,29.59,North,11,12.0,33.0,95,0.12,,---,0.21,VWS V14.01,2013-03-06 12:54:00,
2013-03-06 07:55:00,32.9,31.9,29.59,North,11,13.0,13.0,96,0.10,,---,0.19,VWS V14.01,2013-03-06 12:55:00,
2013-03-06 07:56:00,32.9,31.6,29.59,NNW,348,13.0,20.0,95,0.10,,---,0.21,VWS V14.01,2013-03-06 12:56:00,
2013-03-06 07:57:00,32.9,31.6,29.59,NNW,346,15.0,20.0,95,0.10,,---,0.21,VWS V14.01,2013-03-06 12:57:00,
2013-03-06 07:58:00,32.9,31.6,29.59,NNW,345,14.0,20.0,95,0.10,,---,0.21,VWS V14.01,2013-03-06 12:58:00,
2013-03-06 07:59:00,33.1,31.8,29.59,NNE,21,12.0,20.0,95,0.10,,---,0.21,VWS V14.01,2013-03-06 12:59:00,
2013-03-06 08:00:00,32.9,31.6,29.59,NNE,19,11.0,13.0,95,0.11,,---,0.20,VWS V14.01,2013-03-06 13:00:00,
2013-03-06 08:01:00,33.1,31.8,29.59,North,5,12.0,19.0,95,0.10,,---,0.21,VWS V14.01,2013-03-06 13:01:00,
2013-03-06 08:02:00,32.9,31.6,29.59,NNW,338,7.0,19.0,95,0.11,,---,0.22,VWS V14.01,2013-03-06 13:02:00,
2013-03-06 08:05:00,32.9,31.6,29.59,North,5,7.0,20.0,95,0.10,,---,0.21,VWS V14.01,2013-03-06 13:05:00,
2013-03-06 08:06:00,32.9,31.4,29.59,North,11,6.0,18.0,94,0.10,,---,0.22,VWS V14.01,2013-03-06 13:06:00,
2013-03-06 08:07:00,32.9,31.4,29.59,NNW,336,19.0,19.0,94,0.10,,---,0.22,VWS V14.01,2013-03-06 13:07:00,
2013-03-06 08:08:00,32.9,31.4,29.59,NNW,341,12.0,19.0,94,0.11,,---,0.23,VWS V14.01,2013-03-06 13:08:00,
2013-03-06 08:09:00,32.9,31.4,29.59,North,11,16.0,19.0,94,0.11,,---,0.23,VWS V14.01,2013-03-06 13:09:00,
2013-03-06 08:10:00,33.1,31.8,29.59,North,10,16.0,19.0,95,0.10,,---,0.21,VWS V14.01,2013-03-06 13:10:00,
2013-03-06 08:11:00,33.1,31.6,29.59,NW,319,14.0,18.0,94,0.10,,---,0.23,VWS V14.01,2013-03-06 13:11:00,
2013-03-06 08:12:00,33.1,31.6,29.59,NNW,340,6.0,18.0,94,0.10,,---,0.23,VWS V14.01,2013-03-06 13:12:00,
2013-03-06 08:13:00,33.2,31.7,29.59,NNW,340,12.0,22.0,94,0.10,,---,0.23,VWS V14.01,2013-03-06 13:13:00,
2013-03-06 08:14:00,33.4,31.9,29.59,NW,326,5.0,22.0,94,0.10,,---,0.23,VWS V14.01,2013-03-06 13:14:00,
2013-03-06 08:15:00,32.9,31.4,29.59,North,349,5.0,18.0,94,0.10,,---,0.22,VWS V14.01,2013-03-06 13:15:00,
2013-03-06 08:16:00,33.5,32.0,29.59,North,351,7.0,23.0,94,0.09,,---,0.23,VWS V14.01,2013-03-06 13:16:00,
2013-03-06 08:17:00,33.5,31.7,29.59,NNW,348,13.0,23.0,93,0.10,,---,0.24,VWS V14.01,2013-03-06 13:17:00,
2013-03-06 08:18:00,33.5,31.7,29.59,NNE,15,13.0,23.0,93,0.10,,---,0.24,VWS V14.01,2013-03-06 13:18:00,
2013-03-06 08:19:00,33.5,31.4,29.59,NNE,24,22.0,30.0,92,0.10,,---,0.24,VWS V14.01,2013-03-06 13:19:00,
2013-03-06 08:20:00,33.1,31.6,29.59,NW,319,14.0,18.0,94,0.10,,---,0.23,VWS V14.01,2013-03-06 13:20:00,
2013-03-06 08:21:00,33.7,31.6,29.59,NW,323,10.0,20.0,92,0.10,,---,0.25,VWS V14.01,2013-03-06 13:21:00,
2013-03-06 08:22:00,33.7,31.6,29.59,North,355,10.0,20.0,92,0.10,,---,0.25,VWS V14.01,2013-03-06 13:22:00,
2013-03-06 08:23:00,33.5,31.2,29.59,NNW,345,22.0,23.0,91,0.10,,---,0.25,VWS V14.01,2013-03-06 13:23:00,
2013-03-06 08:24:00,33.5,31.2,29.59,North,5,20.0,27.0,91,0.10,,---,0.25,VWS V14.01,2013-03-06 13:24:00,
2013-03-06 08:25:00,33.4,31.9,29.59,NNW,345,10.0,23.0,94,0.09,,---,0.23,VWS V14.01,2013-03-06 13:25:00,
2013-03-06 08:26:00,33.5,31.2,29.59,NNE,12,27.0,27.0,91,0.09,,---,0.25,VWS V14.01,2013-03-06 13:26:00,
2013-03-06 08:27:00,33.4,31.1,29.59,NNE,21,9.0,27.0,91,0.09,,---,0.25,VWS V14.01,2013-03-06 13:27:00,
2013-03-06 08:28:00,33.4,31.1,29.59,NW,325,5.0,27.0,91,0.10,,---,0.26,VWS V14.01,2013-03-06 13:28:00,
2013-03-06 08:29:00,33.2,30.9,29.60,NNW,344,6.0,27.0,91,0.10,,---,0.26,VWS V14.01,2013-03-06 13:29:00,
2013-03-06 08:30:00,33.7,31.6,29.59,North,5,20.0,20.0,92,0.10,,---,0.25,VWS V14.01,2013-03-06 13:30:00,
2013-03-06 08:31:00,33.2,30.9,29.60,NNW,341,13.0,18.0,91,0.09,,---,0.26,VWS V14.01,2013-03-06 13:31:00,
2013-03-06 08:32:00,33.2,30.9,29.60,North,360,11.0,18.0,91,0.09,,---,0.26,VWS V14.01,2013-03-06 13:32:00,
2013-03-06 08:33:00,33.2,30.9,29.60,North,360,11.0,18.0,91,0.09,,---,0.26,VWS V14.01,2013-03-06 13:33:00,
2013-03-06 08:34:00,33.2,30.9,29.60,North,360,11.0,18.0,91,0.09,,---,0.26,VWS V14.01,2013-03-06 13:34:00,
2013-03-06 08:35:00,33.5,31.2,29.59,NW,320,11.0,23.0,91,0.09,,---,0.25,VWS V14.01,2013-03-06 13:35:00,
2013-03-06 08:36:00,32.9,30.8,29.60,North,355,10.0,16.0,92,0.10,,---,0.27,VWS V14.01,2013-03-06 13:36:00,
2013-03-06 08:37:00,32.9,30.8,29.60,NNW,333,17.0,20.0,92,0.10,,---,0.27,VWS V14.01,2013-03-06 13:37:00,
2013-03-06 08:38:00,32.9,30.8,29.60,North,5,8.0,20.0,92,0.10,,---,0.27,VWS V14.01,2013-03-06 13:38:00,
2013-03-06 08:39:00,32.8,30.7,29.60,North,360,16.0,20.0,92,0.10,,---,0.27,VWS V14.01,2013-03-06 13:39:00,
2013-03-06 08:40:00,33.2,30.9,29.60,North,355,12.0,18.0,91,0.09,,---,0.26,VWS V14.01,2013-03-06 13:40:00,
2013-03-06 08:41:00,32.8,30.7,29.60,NNW,331,22.0,31.0,92,0.09,,---,0.27,VWS V14.01,2013-03-06 13:41:00,
2013-03-06 08:42:00,32.8,30.7,29.60,North,355,12.0,31.0,92,0.09,,---,0.27,VWS V14.01,2013-03-06 13:42:00,
2013-03-06 08:43:00,32.8,30.7,29.60,North,360,15.0,31.0,92,0.09,,---,0.27,VWS V14.01,2013-03-06 13:43:00,
2013-03-06 08:44:00,32.8,30.7,29.60,NNW,335,13.0,31.0,92,0.09,,---,0.27,VWS V14.01,2013-03-06 13:44:00,
2013-03-06 08:45:00,32.9,30.8,29.60,NNW,347,7.0,16.0,92,0.10,,---,0.27,VWS V14.01,2013-03-06 13:45:00,
2013-03-06 08:46:00,32.6,30.5,29.60,North,355,7.0,21.0,92,0.08,,---,0.27,VWS V14.01,2013-03-06 13:46:00,
2013-03-06 08:47:00,32.6,30.5,29.60,North,355,7.0,23.0,92,0.08,,---,0.27,VWS V14.01,2013-03-06 13:47:00,
2013-03-06 08:48:00,32.6,30.8,29.60,NW,304,9.0,23.0,93,0.08,,---,0.27,VWS V14.01,2013-03-06 13:48:00,
2013-03-06 08:49:00,32.6,30.8,29.60,NNE,22,20.0,23.0,93,0.08,,---,0.27,VWS V14.01,2013-03-06 13:49:00,
2013-03-06 08:50:00,32.8,30.7,29.60,North,355,15.0,19.0,92,0.09,,---,0.27,VWS V14.01,2013-03-06 13:50:00,
2013-03-06 08:51:00,32.8,31.0,29.60,NNE,20,29.0,29.0,93,0.08,,---,0.28,VWS V14.01,2013-03-06 13:51:00,
2013-03-06 08:52:00,32.8,31.0,29.60,NNW,348,20.0,29.0,93,0.08,,---,0.28,VWS V14.01,2013-03-06 13:52:00,
2013-03-06 08:53:00,32.9,31.1,29.60,NNE,25,10.0,29.0,93,0.08,,---,0.28,VWS V14.01,2013-03-06 13:53:00,
2013-03-06 08:54:00,32.9,31.1,29.60,NNE,26,16.0,29.0,93,0.08,,---,0.28,VWS V14.01,2013-03-06 13:54:00,
2013-03-06 08:55:00,32.6,30.5,29.60,NNE,23,13.0,21.0,92,0.08,,---,0.27,VWS V14.01,2013-03-06 13:55:00,
2013-03-06 08:56:00,33.1,31.0,29.60,NNE,13,19.0,27.0,92,0.07,,---,0.28,VWS V14.01,2013-03-06 13:56:00,
2013-03-06 08:57:00,33.1,31.0,29.60,NW,322,15.0,27.0,92,0.07,,---,0.28,VWS V14.01,2013-03-06 13:57:00,
2013-03-06 08:58:00,33.1,31.0,29.60,NNW,342,10.0,27.0,92,0.07,,---,0.28,VWS V14.01,2013-03-06 13:58:00,
2013-03-06 08:59:00,33.1,31.0,29.61,NNE,22,21.0,27.0,92,0.08,,---,0.29,VWS V14.01,2013-03-06 13:59:00,
2013-03-06 09:00:00,32.6,30.8,29.60,NNE,23,17.0,23.0,93,0.08,,---,0.28,VWS V14.01,2013-03-06 14:00:00,
2013-03-06 09:01:00,33.1,31.0,29.61,WNW,301,13.0,27.0,92,0.08,,---,0.29,VWS V14.01,2013-03-06 14:01:00,
2013-03-06 09:02:00,33.1,31.0,29.61,North,350,10.0,27.0,92,0.08,,---,0.29,VWS V14.01,2013-03-06 14:02:00,
2013-03-06 09:03:00,33.1,31.0,29.61,North,355,16.0,27.0,92,0.08,,---,0.29,VWS V14.01,2013-03-06 14:03:00,
2013-03-06 09:04:00,33.1,31.0,29.61,North,355,16.0,27.0,92,0.08,,---,0.29,VWS V14.01,2013-03-06 14:04:00,
2013-03-06 09:05:00,32.9,30.8,29.60,NNW,346,16.0,24.0,92,0.07,,---,0.28,VWS V14.01,2013-03-06 14:05:00,
2013-03-06 09:06:00,33.1,30.8,29.61,North,9,12.0,17.0,91,0.07,,---,0.29,VWS V14.01,2013-03-06 14:06:00,
2013-03-06 09:07:00,33.1,30.8,29.61,North,350,7.0,17.0,91,0.07,,---,0.29,VWS V14.01,2013-03-06 14:07:00,
2013-03-06 09:08:00,33.1,30.8,29.61,NNW,348,19.0,19.0,91,0.07,,---,0.29,VWS V14.01,2013-03-06 14:08:00,
2013-03-06 09:09:00,33.1,30.8,29.61,NE,35,14.0,19.0,91,0.07,,---,0.29,VWS V14.01,2013-03-06 14:09:00,
2013-03-06 09:10:00,33.1,31.0,29.61,North,360,15.0,27.0,92,0.08,,---,0.29,VWS V14.01,2013-03-06 14:10:00,
2013-03-06 09:11:00,33.1,30.8,29.61,North,5,7.0,12.0,91,0.06,,---,0.29,VWS V14.01,2013-03-06 14:11:00,
2013-03-06 09:15:00,33.1,30.8,29.61,NNE,14,14.0,17.0,91,0.07,,---,0.29,VWS V14.01,2013-03-06 14:15:00,
2013-03-06 09:18:00,33.2,30.9,29.61,North,360,6.0,22.0,91,0.07,,---,0.30,VWS V14.01,2013-03-06 14:18:00,
2013-03-06 09:19:00,33.2,30.9,29.61,NW,323,13.0,22.0,91,0.08,,---,0.31,VWS V14.01,2013-03-06 14:19:00,
2013-03-06 09:20:00,33.1,30.8,29.61,North,11,6.0,12.0,91,0.06,,---,0.29,VWS V14.01,2013-03-06 14:20:00,
2013-03-06 09:21:00,33.4,31.1,29.61,NNE,16,16.0,20.0,91,0.07,,---,0.31,VWS V14.01,2013-03-06 14:21:00,
2013-03-06 09:22:00,33.4,31.1,29.61,NNE,15,16.0,20.0,91,0.07,,---,0.31,VWS V14.01,2013-03-06 14:22:00,
2013-03-06 09:23:00,33.4,31.1,29.61,North,360,7.0,20.0,91,0.07,,---,0.31,VWS V14.01,2013-03-06 14:23:00,
2013-03-06 09:24:00,33.4,31.1,29.61,NNE,28,7.0,20.0,91,0.07,,---,0.31,VWS V14.01,2013-03-06 14:24:00,
2013-03-06 09:25:00,33.4,31.1,29.61,North,355,9.0,16.0,91,0.06,,---,0.31,VWS V14.01,2013-03-06 14:25:00,
2013-03-06 09:26:00,33.4,31.1,29.61,NNE,17,21.0,24.0,91,0.06,,---,0.31,VWS V14.01,2013-03-06 14:26:00,
2013-03-06 09:27:00,33.2,30.9,29.61,North,9,15.0,22.0,91,0.07,,---,0.30,VWS V14.01,2013-03-06 14:27:00,
2013-03-06 09:30:00,33.7,31.1,29.61,North,0,11.0,25.0,90,0.07,,---,0.32,VWS V14.01,2013-03-06 14:30:00,
2013-03-06 09:32:00,33.4,31.1,29.61,NE,45,10.0,20.0,91,0.07,,---,0.31,VWS V14.01,2013-03-06 14:32:00,
2013-03-06 09:35:00,33.8,31.2,29.61,North,0,12.0,19.0,90,0.07,,---,0.33,VWS V14.01,2013-03-06 14:35:00,
2013-03-06 09:45:00,34.3,30.6,29.61,NNE,15,10.0,23.0,86,0.08,,---,0.35,VWS V14.01,2013-03-06 14:45:00,
2013-03-06 09:50:00,34.6,30.6,29.61,North,5,12.0,24.0,85,0.08,,---,0.35,VWS V14.01,2013-03-06 14:50:00,
2013-03-06 09:55:00,34.9,30.3,29.61,WNW,292,13.0,23.0,83,0.08,,---,0.35,VWS V14.01,2013-03-06 14:55:00,
2013-03-06 10:00:00,35.1,30.2,29.62,NNW,347,13.0,18.0,82,0.08,,---,0.36,VWS V14.01,2013-03-06 15:00:00,
2013-03-06 10:05:00,35.3,30.1,29.62,North,5,10.0,25.0,81,0.08,,---,0.37,VWS V14.01,2013-03-06 15:05:00,
2013-03-06 10:09:00,35.1,29.9,29.62,NNW,339,12.0,23.0,81,0.09,,---,0.38,VWS V14.01,2013-03-06 15:09:00,
2013-03-06 10:10:00,35.1,29.9,29.62,North,355,17.0,22.0,81,0.09,,---,0.38,VWS V14.01,2013-03-06 15:10:00,
2013-03-06 10:11:00,35.1,30.2,29.62,North,355,10.0,22.0,82,0.09,,---,0.38,VWS V14.01,2013-03-06 15:11:00,
2013-03-06 10:12:00,35.1,30.2,29.62,NNW,347,11.0,24.0,82,0.09,,---,0.38,VWS V14.01,2013-03-06 15:12:00,
2013-03-06 10:13:00,35.1,30.2,29.62,North,360,14.0,24.0,82,0.09,,---,0.38,VWS V14.01,2013-03-06 15:13:00,
2013-03-06 10:14:00,35.1,30.2,29.64,North,355,11.0,24.0,82,0.09,,---,0.38,VWS V14.01,2013-03-06 15:14:00,
2013-03-06 10:15:00,35.1,30.2,29.64,North,9,17.0,18.0,82,0.08,,---,0.39,VWS V14.01,2013-03-06 15:15:00,
2013-03-06 10:16:00,35.1,30.2,29.64,NNE,22,14.0,22.0,82,0.08,,---,0.39,VWS V14.01,2013-03-06 15:16:00,
2013-03-06 10:17:00,35.1,29.9,29.64,NNW,347,16.0,22.0,81,0.08,,---,0.39,VWS V14.01,2013-03-06 15:17:00,
2013-03-06 10:18:00,35.1,29.9,29.64,North,355,11.0,22.0,81,0.08,,---,0.39,VWS V14.01,2013-03-06 15:18:00,
2013-03-06 10:19:00,35.1,29.9,29.62,NNE,18,9.0,23.0,81,0.09,,---,0.38,VWS V14.01,2013-03-06 15:19:00,
2013-03-06 10:20:00,35.1,30.2,29.64,North,360,13.0,19.0,82,0.09,,---,0.40,VWS V14.01,2013-03-06 15:20:00,
2013-03-06 10:21:00,35.1,30.2,29.64,North,10,19.0,23.0,82,0.09,,---,0.40,VWS V14.01,2013-03-06 15:21:00,
2013-03-06 10:22:00,35.1,30.2,29.64,NNW,340,21.0,26.0,82,0.09,,---,0.40,VWS V14.01,2013-03-06 15:22:00,
2013-03-06 10:23:00,35.1,30.2,29.64,NNE,15,15.0,26.0,82,0.09,,---,0.40,VWS V14.01,2013-03-06 15:23:00,
2013-03-06 10:24:00,35.1,30.2,29.64,NNE,30,11.0,24.0,82,0.09,,---,0.38,VWS V14.01,2013-03-06 15:24:00,
2013-03-06 10:25:00,35.1,30.2,29.64,North,9,7.0,15.0,82,0.10,,---,0.41,VWS V14.01,2013-03-06 15:25:00,
2013-03-06 10:26:00,35.1,30.2,29.64,NNE,15,11.0,24.0,82,0.10,,---,0.41,VWS V14.01,2013-03-06 15:26:00,
2013-03-06 10:27:00,35.1,30.2,29.64,NE,46,8.0,24.0,82,0.10,,---,0.41,VWS V14.01,2013-03-06 15:27:00,
2013-03-06 10:28:00,35.1,30.5,29.64,NNW,336,20.0,24.0,83,0.10,,---,0.41,VWS V14.01,2013-03-06 15:28:00,
2013-03-06 10:29:00,35.1,30.2,29.64,North,360,14.0,22.0,82,0.09,,---,0.40,VWS V14.01,2013-03-06 15:29:00,
2013-03-06 10:30:00,35.1,30.5,29.64,NNE,33,5.0,14.0,83,0.10,,---,0.42,VWS V14.01,2013-03-06 15:30:00,
2013-03-06 10:31:00,35.0,30.4,29.64,North,5,11.0,15.0,83,0.10,,---,0.42,VWS V14.01,2013-03-06 15:31:00,
2013-03-06 10:32:00,35.0,30.4,29.64,North,9,11.0,19.0,83,0.10,,---,0.42,VWS V14.01,2013-03-06 15:32:00,
2013-03-06 10:33:00,35.0,30.7,29.64,NE,35,4.0,19.0,84,0.10,,---,0.42,VWS V14.01,2013-03-06 15:33:00,
2013-03-06 10:34:00,35.1,30.2,29.64,North,5,6.0,26.0,82,0.09,,---,0.40,VWS V14.01,2013-03-06 15:34:00,
2013-03-06 10:35:00,35.0,30.7,29.64,North,11,11.0,15.0,84,0.09,,---,0.42,VWS V14.01,2013-03-06 15:35:00,
2013-03-06 10:36:00,35.0,30.7,29.64,NNE,22,10.0,17.0,84,0.10,,---,0.43,VWS V14.01,2013-03-06 15:36:00,
2013-03-06 10:37:00,35.0,30.7,29.64,NE,38,15.0,17.0,84,0.10,,---,0.43,VWS V14.01,2013-03-06 15:37:00,
2013-03-06 10:38:00,35.0,30.7,29.64,NNE,30,14.0,17.0,84,0.10,,---,0.43,VWS V14.01,2013-03-06 15:38:00,
2013-03-06 10:39:00,35.1,30.5,29.64,NE,51,11.0,24.0,83,0.11,,---,0.42,VWS V14.01,2013-03-06 15:39:00,
2013-03-06 10:40:00,34.9,30.9,29.64,NNE,24,11.0,14.0,85,0.09,,---,0.44,VWS V14.01,2013-03-06 15:40:00,
2013-03-06 10:41:00,34.9,30.9,29.64,NNE,12,16.0,18.0,85,0.09,,---,0.44,VWS V14.01,2013-03-06 15:41:00,
2013-03-06 10:42:00,35.0,31.0,29.64,NNE,19,12.0,24.0,85,0.09,,---,0.44,VWS V14.01,2013-03-06 15:42:00,
2013-03-06 10:43:00,35.0,31.0,29.64,NNW,333,14.0,25.0,85,0.09,,---,0.44,VWS V14.01,2013-03-06 15:43:00,
2013-03-06 10:44:00,35.0,30.7,29.64,NNW,331,15.0,26.0,84,0.10,,---,0.42,VWS V14.01,2013-03-06 15:44:00,
2013-03-06 10:45:00,35.1,30.8,29.64,North,355,19.0,26.0,84,0.10,,---,0.45,VWS V14.01,2013-03-06 15:45:00,
2013-03-06 10:46:00,35.1,30.8,29.64,North,351,11.0,26.0,84,0.10,,---,0.45,VWS V14.01,2013-03-06 15:46:00,
2013-03-06 10:47:00,35.1,30.8,29.64,NNE,32,12.0,26.0,84,0.10,,---,0.45,VWS V14.01,2013-03-06 15:47:00,
2013-03-06 10:48:00,35.1,30.8,29.64,North,11,28.0,28.0,84,0.11,,---,0.46,VWS V14.01,2013-03-06 15:48:00,
2013-03-06 10:49:00,34.9,30.9,29.64,NNE,16,14.0,17.0,85,0.11,,---,0.44,VWS V14.01,2013-03-06 15:49:00,
2013-03-06 10:50:00,35.3,31.2,29.64,North,355,25.0,25.0,85,0.11,,---,0.46,VWS V14.01,2013-03-06 15:50:00,
2013-03-06 10:51:00,35.3,31.2,29.64,North,5,14.0,27.0,85,0.11,,---,0.46,VWS V14.01,2013-03-06 15:51:00,
2013-03-06 10:52:00,35.3,31.2,29.64,NNW,336,17.0,27.0,85,0.11,,---,0.46,VWS V14.01,2013-03-06 15:52:00,
2013-03-06 10:53:00,35.3,31.5,29.64,WNW,291,13.0,27.0,86,0.12,,---,0.47,VWS V14.01,2013-03-06 15:53:00,
2013-03-06 10:54:00,35.1,30.8,29.64,NNW,339,11.0,25.0,84,0.10,,---,0.45,VWS V14.01,2013-03-06 15:54:00,
2013-03-06 10:55:00,35.3,31.5,29.64,NNE,32,21.0,23.0,86,0.13,,---,0.48,VWS V14.01,2013-03-06 15:55:00,
2013-03-06 10:56:00,35.1,31.6,29.64,NNE,19,9.0,23.0,87,0.13,,---,0.48,VWS V14.01,2013-03-06 15:56:00,
2013-03-06 10:57:00,35.1,31.6,29.64,NNW,340,12.0,23.0,87,0.13,,---,0.48,VWS V14.01,2013-03-06 15:57:00,
2013-03-06 10:58:00,35.1,31.6,29.64,North,350,13.0,27.0,87,0.14,,---,0.49,VWS V14.01,2013-03-06 15:58:00,
2013-03-06 10:59:00,35.3,31.0,29.64,NNE,32,23.0,28.0,84,0.11,,---,0.46,VWS V14.01,2013-03-06 15:59:00,
2013-03-06 11:00:00,35.1,31.9,29.65,North,9,10.0,19.0,88,0.13,,---,0.49,VWS V14.01,2013-03-06 16:00:00,
2013-03-06 11:01:00,35.1,31.9,29.65,NNW,344,14.0,30.0,88,0.14,,---,0.50,VWS V14.01,2013-03-06 16:01:00,
2013-03-06 11:02:00,35.1,31.9,29.65,NNE,33,8.0,30.0,88,0.14,,---,0.50,VWS V14.01,2013-03-06 16:02:00,
2013-03-06 11:03:00,35.1,31.9,29.65,North,360,11.0,30.0,88,0.14,,---,0.50,VWS V14.01,2013-03-06 16:03:00,
2013-03-06 11:04:00,35.3,31.5,29.64,North,350,12.0,27.0,86,0.12,,---,0.47,VWS V14.01,2013-03-06 16:04:00,
2013-03-06 11:05:00,35.1,31.9,29.65,NNE,12,11.0,19.0,88,0.14,,---,0.51,VWS V14.01,2013-03-06 16:05:00,
2013-03-06 11:06:00,35.1,31.9,29.65,NNW,342,16.0,19.0,88,0.14,,---,0.51,VWS V14.01,2013-03-06 16:06:00,
2013-03-06 11:07:00,35.1,31.9,29.65,NE,47,13.0,19.0,88,0.14,,---,0.51,VWS V14.01,2013-03-06 16:07:00,
2013-03-06 11:08:00,35.1,31.9,29.65,NNE,30,7.0,19.0,88,0.15,,---,0.52,VWS V14.01,2013-03-06 16:08:00,
2013-03-06 11:09:00,35.1,31.9,29.65,NNW,329,4.0,27.0,88,0.14,,---,0.49,VWS V14.01,2013-03-06 16:09:00,
2013-03-06 11:10:00,35.0,31.8,29.65,North,355,16.0,16.0,88,0.14,,---,0.52,VWS V14.01,2013-03-06 16:10:00,
2013-03-06 11:11:00,35.0,31.8,29.65,NNE,15,5.0,16.0,88,0.15,,---,0.53,VWS V14.01,2013-03-06 16:11:00,
2013-03-06 11:12:00,35.0,31.8,29.65,North,5,14.0,22.0,88,0.15,,---,0.53,VWS V14.01,2013-03-06 16:12:00,
2013-03-06 11:13:00,34.9,31.7,29.65,North,5,16.0,26.0,88,0.15,,---,0.53,VWS V14.01,2013-03-06 16:13:00,
2013-03-06 11:14:00,35.1,31.9,29.65,North,9,14.0,30.0,88,0.14,,---,0.50,VWS V14.01,2013-03-06 16:14:00,
2013-03-06 11:15:00,34.7,31.5,29.66,NNW,336,13.0,13.0,88,0.16,,---,0.54,VWS V14.01,2013-03-06 16:15:00,
2013-03-06 11:16:00,34.7,31.5,29.66,NNE,23,13.0,13.0,88,0.16,,---,0.54,VWS V14.01,2013-03-06 16:16:00,
2013-03-06 11:17:00,34.6,31.4,29.66,NNW,337,20.0,23.0,88,0.17,,---,0.55,VWS V14.01,2013-03-06 16:17:00,
2013-03-06 11:18:00,34.6,31.4,29.66,NW,311,20.0,26.0,88,0.17,,---,0.55,VWS V14.01,2013-03-06 16:18:00,
2013-03-06 11:19:00,35.1,31.9,29.65,North,360,11.0,23.0,88,0.15,,---,0.52,VWS V14.01,2013-03-06 16:19:00,
2013-03-06 11:20:00,34.6,31.4,29.66,North,11,11.0,23.0,88,0.16,,---,0.56,VWS V14.01,2013-03-06 16:20:00,
2013-03-06 11:21:00,34.6,31.4,29.66,NNW,334,11.0,23.0,88,0.16,,---,0.56,VWS V14.01,2013-03-06 16:21:00,
2013-03-06 11:22:00,34.6,31.4,29.66,NNE,13,30.0,30.0,88,0.16,,---,0.56,VWS V14.01,2013-03-06 16:22:00,
2013-03-06 11:23:00,34.7,31.5,29.66,WSW,250,13.0,30.0,88,0.16,,---,0.56,VWS V14.01,2013-03-06 16:23:00,
2013-03-06 11:24:00,34.7,31.5,29.66,NW,320,10.0,26.0,88,0.16,,---,0.54,VWS V14.01,2013-03-06 16:24:00,
2013-03-06 11:25:00,34.9,31.7,29.66,North,5,21.0,29.0,88,0.17,,---,0.57,VWS V14.01,2013-03-06 16:25:00,
2013-03-06 11:26:00,34.9,31.4,29.66,NE,55,10.0,29.0,87,0.17,,---,0.57,VWS V14.01,2013-03-06 16:26:00,
2013-03-06 11:27:00,35.0,31.5,29.66,NW,326,16.0,29.0,87,0.18,,---,0.58,VWS V14.01,2013-03-06 16:27:00,
2013-03-06 11:28:00,35.1,31.6,29.66,NNW,332,13.0,29.0,87,0.18,,---,0.58,VWS V14.01,2013-03-06 16:28:00,
2013-03-06 11:29:00,34.6,31.4,29.66,NW,315,18.0,29.0,88,0.17,,---,0.55,VWS V14.01,2013-03-06 16:29:00,
2013-03-06 11:30:00,35.3,31.5,29.66,NNW,327,23.0,27.0,86,0.17,,---,0.59,VWS V14.01,2013-03-06 16:30:00,
2013-03-06 11:31:00,35.3,31.5,29.66,NNE,18,22.0,30.0,86,0.17,,---,0.59,VWS V14.01,2013-03-06 16:31:00,
2013-03-06 11:32:00,35.3,31.2,29.66,North,360,24.0,30.0,85,0.17,,---,0.59,VWS V14.01,2013-03-06 16:32:00,
2013-03-06 11:33:00,35.4,31.4,29.66,NNE,15,12.0,30.0,85,0.18,,---,0.60,VWS V14.01,2013-03-06 16:33:00,
2013-03-06 11:34:00,34.9,31.7,29.66,NW,323,18.0,30.0,88,0.17,,---,0.57,VWS V14.01,2013-03-06 16:34:00,
2013-03-06 11:35:00,35.4,31.1,29.66,North,355,18.0,19.0,84,0.18,,---,0.60,VWS V14.01,2013-03-06 16:35:00,
2013-03-06 11:36:00,35.4,31.1,29.66,NNW,335,12.0,25.0,84,0.18,,---,0.60,VWS V14.01,2013-03-06 16:36:00,
2013-03-06 11:37:00,35.6,31.2,29.66,NNW,335,16.0,26.0,84,0.19,,---,0.61,VWS V14.01,2013-03-06 16:37:00,
2013-03-06 11:38:00,35.6,31.2,29.66,NNE,22,17.0,26.0,84,0.19,,---,0.61,VWS V14.01,2013-03-06 16:38:00,
2013-03-06 11:39:00,35.1,31.3,29.66,NNW,327,13.0,29.0,86,0.18,,---,0.58,VWS V14.01,2013-03-06 16:39:00,
2013-03-06 11:40:00,35.6,31.0,29.66,North,360,11.0,22.0,83,0.18,,---,0.62,VWS V14.01,2013-03-06 16:40:00,
2013-03-06 11:41:00,35.6,31.0,29.66,NNE,15,20.0,25.0,83,0.18,,---,0.62,VWS V14.01,2013-03-06 16:41:00,
2013-03-06 11:42:00,35.7,31.0,29.66,NNW,334,26.0,29.0,83,0.18,,---,0.62,VWS V14.01,2013-03-06 16:42:00,
2013-03-06 11:43:00,35.7,31.0,29.66,NNW,334,10.0,29.0,83,0.19,,---,0.63,VWS V14.01,2013-03-06 16:43:00,
2013-03-06 11:44:00,35.4,31.1,29.66,NE,36,13.0,30.0,84,0.18,,---,0.60,VWS V14.01,2013-03-06 16:44:00,
2013-03-06 11:45:00,35.7,30.8,29.67,NNW,327,15.0,20.0,82,0.19,,---,0.64,VWS V14.01,2013-03-06 16:45:00,
2013-03-06 11:46:00,35.7,30.8,29.67,North,355,19.0,20.0,82,0.19,,---,0.64,VWS V14.01,2013-03-06 16:46:00,
2013-03-06 11:47:00,35.7,31.0,29.67,ENE,61,10.0,22.0,83,0.19,,---,0.64,VWS V14.01,2013-03-06 16:47:00,
2013-03-06 11:48:00,35.7,31.0,29.67,NW,323,26.0,31.0,83,0.19,,---,0.64,VWS V14.01,2013-03-06 16:48:00,
2013-03-06 11:49:00,35.6,31.0,29.66,NNW,327,15.0,26.0,83,0.20,,---,0.62,VWS V14.01,2013-03-06 16:49:00,
2013-03-06 11:50:00,35.7,31.0,29.67,NNE,26,7.0,12.0,83,0.19,,---,0.65,VWS V14.01,2013-03-06 16:50:00,
2013-03-06 11:51:00,35.7,31.0,29.67,North,351,16.0,17.0,83,0.19,,---,0.65,VWS V14.01,2013-03-06 16:51:00,
2013-03-06 11:52:00,35.7,31.0,29.67,North,355,24.0,24.0,83,0.20,,---,0.66,VWS V14.01,2013-03-06 16:52:00,
2013-03-06 11:53:00,35.6,31.0,29.67,North,9,15.0,25.0,83,0.20,,---,0.66,VWS V14.01,2013-03-06 16:53:00,
2013-03-06 11:54:00,35.7,30.8,29.67,NNW,341,24.0,31.0,82,0.19,,---,0.63,VWS V14.01,2013-03-06 16:54:00,
2013-03-06 11:55:00,35.4,30.8,29.67,North,350,20.0,20.0,83,0.19,,---,0.66,VWS V14.01,2013-03-06 16:55:00,
2013-03-06 11:56:00,35.4,31.1,29.67,NNW,343,21.0,27.0,84,0.20,,---,0.67,VWS V14.01,2013-03-06 16:56:00,
2013-03-06 11:57:00,35.4,31.1,29.67,NNW,344,10.0,27.0,84,0.20,,---,0.67,VWS V14.01,2013-03-06 16:57:00,
2013-03-06 11:58:00,35.3,31.0,29.67,NE,38,15.0,27.0,84,0.20,,---,0.67,VWS V14.01,2013-03-06 16:58:00,
2013-03-06 11:59:00,35.7,31.0,29.67,NNW,342,13.0,31.0,83,0.20,,---,0.65,VWS V14.01,2013-03-06 16:59:00,
2013-03-06 12:00:00,35.3,31.0,29.68,North,350,18.0,19.0,84,0.19,,---,0.68,VWS V14.01,2013-03-06 17:00:00,
2013-03-06 12:01:00,35.3,31.0,29.68,North,360,12.0,21.0,84,0.19,,---,0.68,VWS V14.01,2013-03-06 17:01:00,
2013-03-06 12:02:00,35.3,31.0,29.68,North,5,9.0,23.0,84,0.19,,---,0.68,VWS V14.01,2013-03-06 17:02:00,
2013-03-06 12:03:00,35.3,31.0,29.68,North,10,16.0,23.0,84,0.20,,---,0.69,VWS V14.01,2013-03-06 17:03:00,
2013-03-06 12:04:00,35.4,30.8,29.67,NNW,330,17.0,25.0,83,0.20,,---,0.66,VWS V14.01,2013-03-06 17:04:00,
2013-03-06 12:05:00,35.3,31.0,29.68,North,11,10.0,15.0,84,0.19,,---,0.69,VWS V14.01,2013-03-06 17:05:00,
2013-03-06 12:06:00,35.3,31.0,29.68,North,355,19.0,19.0,84,0.20,,---,0.70,VWS V14.01,2013-03-06 17:06:00,
2013-03-06 12:07:00,35.3,31.0,29.68,NNW,342,18.0,25.0,84,0.20,,---,0.70,VWS V14.01,2013-03-06 17:07:00,
2013-03-06 12:08:00,35.4,30.8,29.68,North,355,22.0,25.0,83,0.20,,---,0.70,VWS V14.01,2013-03-06 17:08:00,
2013-03-06 12:09:00,35.3,31.0,29.68,NNW,347,13.0,27.0,84,0.21,,---,0.68,VWS V14.01,2013-03-06 17:09:00,
2013-03-06 12:10:00,35.4,30.8,29.68,NNE,15,16.0,17.0,83,0.18,,---,0.70,VWS V14.01,2013-03-06 17:10:00,
2013-03-06 12:11:00,35.4,30.8,29.68,NNW,346,11.0,21.0,83,0.19,,---,0.71,VWS V14.01,2013-03-06 17:11:00,
2013-03-06 12:12:00,35.4,30.8,29.68,North,355,11.0,21.0,83,0.19,,---,0.71,VWS V14.01,2013-03-06 17:12:00,
2013-03-06 12:13:00,35.4,30.8,29.68,North,355,8.0,21.0,83,0.19,,---,0.71,VWS V14.01,2013-03-06 17:13:00,
2013-03-06 12:14:00,35.3,31.0,29.68,NW,321,15.0,23.0,84,0.20,,---,0.69,VWS V14.01,2013-03-06 17:14:00,
2013-03-06 12:15:00,35.4,30.8,29.68,North,355,6.0,11.0,83,0.18,,---,0.72,VWS V14.01,2013-03-06 17:15:00,
2013-03-06 12:16:00,35.6,31.0,29.68,North,5,17.0,22.0,83,0.18,,---,0.72,VWS V14.01,2013-03-06 17:16:00,
2013-03-06 12:17:00,35.6,31.0,29.68,NNE,27,8.0,22.0,83,0.18,,---,0.72,VWS V14.01,2013-03-06 17:17:00,
2013-03-06 12:18:00,35.6,31.0,29.68,NW,319,14.0,22.0,83,0.18,,---,0.72,VWS V14.01,2013-03-06 17:18:00,
2013-03-06 12:19:00,35.4,30.8,29.68,NW,312,14.0,29.0,83,0.20,,---,0.70,VWS V14.01,2013-03-06 17:19:00,
2013-03-06 12:20:00,35.6,31.0,29.68,North,5,9.0,17.0,83,0.17,,---,0.73,VWS V14.01,2013-03-06 17:20:00,
2013-03-06 12:21:00,35.6,31.0,29.68,NNE,13,15.0,22.0,83,0.17,,---,0.73,VWS V14.01,2013-03-06 17:21:00,
2013-03-06 12:22:00,35.6,31.0,29.68,NW,317,18.0,26.0,83,0.17,,---,0.73,VWS V14.01,2013-03-06 17:22:00,
2013-03-06 12:23:00,35.6,30.7,29.68,NNW,331,10.0,26.0,82,0.18,,---,0.74,VWS V14.01,2013-03-06 17:23:00,
2013-03-06 12:24:00,35.4,30.8,29.68,NW,323,7.0,21.0,83,0.20,,---,0.72,VWS V14.01,2013-03-06 17:24:00,
2013-03-06 12:25:00,35.6,31.0,29.68,NNW,347,12.0,17.0,83,0.17,,---,0.74,VWS V14.01,2013-03-06 17:25:00,
2013-03-06 12:26:00,35.6,31.0,29.68,NNW,333,15.0,17.0,83,0.17,,---,0.74,VWS V14.01,2013-03-06 17:26:00,
2013-03-06 12:27:00,35.6,31.0,29.68,NNE,28,23.0,23.0,83,0.17,,---,0.74,VWS V14.01,2013-03-06 17:27:00,
2013-03-06 12:28:00,35.6,30.7,29.68,North,5,3.0,25.0,82,0.18,,---,0.75,VWS V14.01,2013-03-06 17:28:00,
2013-03-06 12:29:00,35.6,31.0,29.68,WNW,303,14.0,28.0,83,0.19,,---,0.73,VWS V14.01,2013-03-06 17:29:00,
2013-03-06 12:30:00,35.6,30.7,29.69,North,349,7.0,10.0,82,0.17,,---,0.75,VWS V14.01,2013-03-06 17:30:00,
2013-03-06 12:31:00,35.7,30.8,29.69,NNW,348,15.0,21.0,82,0.18,,---,0.76,VWS V14.01,2013-03-06 17:31:00,
2013-03-06 12:32:00,35.7,30.8,29.69,North,355,13.0,27.0,82,0.18,,---,0.76,VWS V14.01,2013-03-06 17:32:00,
2013-03-06 12:33:00,35.7,30.5,29.69,North,355,11.0,27.0,81,0.18,,---,0.76,VWS V14.01,2013-03-06 17:33:00,
2013-03-06 12:34:00,35.6,30.4,29.68,NNE,24,13.0,26.0,81,0.18,,---,0.74,VWS V14.01,2013-03-06 17:34:00,
2013-03-06 12:35:00,35.7,30.8,29.69,NNW,346,29.0,29.0,82,0.17,,---,0.77,VWS V14.01,2013-03-06 17:35:00,
2013-03-06 12:36:00,35.7,30.5,29.69,North,5,15.0,29.0,81,0.17,,---,0.77,VWS V14.01,2013-03-06 17:36:00,
2013-03-06 12:37:00,35.7,30.1,29.69,NNW,338,10.0,29.0,80,0.17,,---,0.77,VWS V14.01,2013-03-06 17:37:00,
2013-03-06 12:38:00,35.7,30.5,29.69,NNE,15,18.0,29.0,81,0.18,,---,0.78,VWS V14.01,2013-03-06 17:38:00,
2013-03-06 12:39:00,35.6,31.0,29.69,NNE,13,9.0,25.0,83,0.18,,---,0.75,VWS V14.01,2013-03-06 17:39:00,
2013-03-06 12:40:00,35.7,30.5,29.69,NE,36,20.0,20.0,81,0.16,,---,0.78,VWS V14.01,2013-03-06 17:40:00,
2013-03-06 12:41:00,35.7,30.5,29.69,North,355,15.0,20.0,81,0.16,,---,0.78,VWS V14.01,2013-03-06 17:41:00,
2013-03-06 12:42:00,35.7,30.8,29.69,NNW,348,13.0,26.0,82,0.16,,---,0.78,VWS V14.01,2013-03-06 17:42:00,
2013-03-06 12:43:00,35.6,30.7,29.69,NE,44,13.0,26.0,82,0.17,,---,0.79,VWS V14.01,2013-03-06 17:43:00,
2013-03-06 12:44:00,35.7,30.8,29.69,ENE,62,11.0,28.0,82,0.18,,---,0.76,VWS V14.01,2013-03-06 17:44:00,
2013-03-06 12:48:00,35.6,30.4,29.71,North,351,13.0,13.0,81,0.18,,---,0.80,VWS V14.01,2013-03-06 17:48:00,
2013-03-06 12:49:00,35.7,30.5,29.69,NNW,328,29.0,29.0,81,0.18,,---,0.78,VWS V14.01,2013-03-06 17:49:00,
2013-03-06 12:50:00,35.7,30.5,29.71,NE,53,21.0,26.0,81,0.15,,---,0.80,VWS V14.01,2013-03-06 17:50:00,
2013-03-06 12:51:00,35.7,30.5,29.71,NE,42,15.0,26.0,81,0.16,,---,0.81,VWS V14.01,2013-03-06 17:51:00,
2013-03-06 12:52:00,35.7,30.5,29.71,NE,38,15.0,26.0,81,0.16,,---,0.81,VWS V14.01,2013-03-06 17:52:00,
2013-03-06 12:53:00,35.7,30.5,29.71,NE,38,14.0,26.0,81,0.16,,---,0.81,VWS V14.01,2013-03-06 17:53:00,
2013-03-06 12:54:00,35.9,30.3,29.71,NNW,327,9.0,26.0,80,0.17,,---,0.82,VWS V14.01,2013-03-06 17:54:00,
2013-03-06 12:55:00,35.9,30.3,29.71,North,355,13.0,23.0,80,0.16,,---,0.82,VWS V14.01,2013-03-06 17:55:00,
2013-03-06 12:56:00,36.0,30.4,29.71,NNW,346,23.0,23.0,80,0.16,,---,0.82,VWS V14.01,2013-03-06 17:56:00,
2013-03-06 12:57:00,35.6,30.4,29.71,North,5,3.0,10.0,81,0.18,,---,0.80,VWS V14.01,2013-03-06 17:57:00,
2013-03-06 12:58:00,36.0,30.4,29.71,North,9,7.0,23.0,80,0.16,,---,0.82,VWS V14.01,2013-03-06 17:58:00,
2013-03-06 12:59:00,36.1,30.5,29.71,NE,44,13.0,30.0,80,0.17,,---,0.83,VWS V14.01,2013-03-06 17:59:00,
2013-03-06 13:00:00,36.1,30.5,29.71,NNW,342,12.0,18.0,80,0.15,,---,0.83,VWS V14.01,2013-03-06 18:00:00,
2013-03-06 13:01:00,36.1,30.5,29.71,North,9,5.0,22.0,80,0.15,,---,0.83,VWS V14.01,2013-03-06 18:01:00,
2013-03-06 13:02:00,35.7,30.5,29.71,NNW,342,14.0,26.0,81,0.16,,---,0.81,VWS V14.01,2013-03-06 18:02:00,
2013-03-06 13:03:00,36.1,30.5,29.71,North,351,18.0,24.0,80,0.16,,---,0.84,VWS V14.01,2013-03-06 18:03:00,
2013-03-06 13:04:00,36.1,30.5,29.71,NNE,29,22.0,24.0,80,0.16,,---,0.84,VWS V14.01,2013-03-06 18:04:00,
2013-03-06 13:05:00,36.1,30.5,29.71,NNW,327,18.0,18.0,80,0.15,,---,0.84,VWS V14.01,2013-03-06 18:05:00,
2013-03-06 13:06:00,36.1,30.5,29.71,NNE,14,15.0,20.0,80,0.16,,---,0.85,VWS V14.01,2013-03-06 18:06:00,
2013-03-06 13:07:00,36.0,30.4,29.71,North,9,7.0,23.0,80,0.16,,---,0.82,VWS V14.01,2013-03-06 18:07:00,
2013-03-06 13:08:00,36.1,30.5,29.71,North,5,4.0,20.0,80,0.17,,---,0.86,VWS V14.01,2013-03-06 18:08:00,
2013-03-06 13:09:00,36.1,30.5,29.71,North,360,6.0,20.0,80,0.17,,---,0.86,VWS V14.01,2013-03-06 18:09:00,
2013-03-06 13:10:00,36.1,30.5,29.71,NNE,12,12.0,15.0,80,0.16,,---,0.86,VWS V14.01,2013-03-06 18:10:00,
2013-03-06 13:11:00,36.1,30.5,29.71,NNE,19,25.0,25.0,80,0.16,,---,0.86,VWS V14.01,2013-03-06 18:11:00,
2013-03-06 13:12:00,36.1,30.5,29.71,NW,307,19.0,23.0,80,0.16,,---,0.84,VWS V14.01,2013-03-06 18:12:00,
2013-03-06 13:13:00,36.1,30.2,29.71,NNW,348,12.0,26.0,79,0.16,,---,0.86,VWS V14.01,2013-03-06 18:13:00,
2013-03-06 13:14:00,36.3,30.4,29.72,NNW,334,23.0,32.0,79,0.17,,---,0.87,VWS V14.01,2013-03-06 18:14:00,
2013-03-06 13:15:00,36.3,30.4,29.72,NNE,14,19.0,26.0,79,0.15,,---,0.87,VWS V14.01,2013-03-06 18:15:00,
2013-03-06 13:16:00,36.3,30.4,29.72,NE,38,13.0,26.0,79,0.15,,---,0.87,VWS V14.01,2013-03-06 18:16:00,
2013-03-06 13:17:00,36.1,30.5,29.71,North,360,9.0,20.0,80,0.16,,---,0.85,VWS V14.01,2013-03-06 18:17:00,
2013-03-06 13:18:00,36.3,30.4,29.72,NNE,16,19.0,26.0,79,0.16,,---,0.88,VWS V14.01,2013-03-06 18:18:00,
2013-03-06 13:19:00,36.3,30.4,29.72,NE,40,18.0,30.0,79,0.16,,---,0.88,VWS V14.01,2013-03-06 18:19:00,
2013-03-06 13:20:00,36.3,30.4,29.72,NNE,13,18.0,27.0,79,0.16,,---,0.89,VWS V14.01,2013-03-06 18:20:00,
2013-03-06 13:21:00,36.3,30.4,29.72,North,355,26.0,29.0,79,0.16,,---,0.89,VWS V14.01,2013-03-06 18:21:00,
2013-03-06 13:22:00,36.1,30.2,29.71,NNW,342,15.0,26.0,79,0.16,,---,0.86,VWS V14.01,2013-03-06 18:22:00,
2013-03-06 13:23:00,36.3,30.4,29.72,NW,324,20.0,29.0,79,0.17,,---,0.90,VWS V14.01,2013-03-06 18:23:00,
2013-03-06 13:24:00,36.3,30.7,29.72,North,5,11.0,29.0,80,0.17,,---,0.90,VWS V14.01,2013-03-06 18:24:00,
2013-03-06 13:25:00,36.3,30.7,29.72,NE,34,9.0,19.0,80,0.16,,---,0.90,VWS V14.01,2013-03-06 18:25:00,
2013-03-06 13:26:00,36.3,30.7,29.72,NNW,336,17.0,20.0,80,0.17,,---,0.91,VWS V14.01,2013-03-06 18:26:00,
2013-03-06 13:27:00,36.3,30.4,29.72,NNE,24,17.0,26.0,79,0.16,,---,0.88,VWS V14.01,2013-03-06 18:27:00,
2013-03-06 13:28:00,36.3,30.7,29.72,NNW,340,7.0,20.0,80,0.17,,---,0.91,VWS V14.01,2013-03-06 18:28:00,
2013-03-06 13:29:00,36.3,30.7,29.73,NNW,344,13.0,20.0,80,0.18,,---,0.92,VWS V14.01,2013-03-06 18:29:00,
2013-03-06 13:30:00,36.3,30.7,29.73,North,360,17.0,23.0,80,0.17,,---,0.92,VWS V14.01,2013-03-06 18:30:00,
2013-03-06 13:31:00,36.3,30.7,29.73,NNW,333,9.0,26.0,80,0.17,,---,0.92,VWS V14.01,2013-03-06 18:31:00,
2013-03-06 13:32:00,36.3,30.4,29.72,North,355,17.0,29.0,79,0.17,,---,0.90,VWS V14.01,2013-03-06 18:32:00,
2013-03-06 13:33:00,36.3,30.7,29.73,North,350,15.0,26.0,80,0.18,,---,0.93,VWS V14.01,2013-03-06 18:33:00,
2013-03-06 13:34:00,36.3,30.7,29.73,NE,36,15.0,26.0,80,0.18,,---,0.93,VWS V14.01,2013-03-06 18:34:00,
2013-03-06 13:35:00,36.4,30.5,29.73,NNE,28,19.0,24.0,79,0.17,,---,0.93,VWS V14.01,2013-03-06 18:35:00,
2013-03-06 13:36:00,36.4,30.5,29.73,NNE,13,14.0,27.0,79,0.18,,---,0.94,VWS V14.01,2013-03-06 18:36:00,
2013-03-06 13:37:00,36.3,30.7,29.72,North,9,9.0,20.0,80,0.17,,---,0.91,VWS V14.01,2013-03-06 18:37:00,
2013-03-06 13:38:00,36.6,30.4,29.73,NNE,19,15.0,27.0,78,0.18,,---,0.94,VWS V14.01,2013-03-06 18:38:00,
2013-03-06 13:39:00,36.6,30.4,29.73,North,350,14.0,27.0,78,0.18,,---,0.94,VWS V14.01,2013-03-06 18:39:00,
2013-03-06 13:40:00,36.6,30.4,29.73,NNE,14,14.0,19.0,78,0.17,,---,0.95,VWS V14.01,2013-03-06 18:40:00,
2013-03-06 13:41:00,36.7,30.5,29.73,NNE,12,11.0,21.0,78,0.17,,---,0.95,VWS V14.01,2013-03-06 18:41:00,
2013-03-06 13:42:00,36.3,30.7,29.73,North,360,21.0,26.0,80,0.18,,---,0.93,VWS V14.01,2013-03-06 18:42:00,
2013-03-06 13:43:00,36.7,30.5,29.73,NE,38,14.0,25.0,78,0.18,,---,0.96,VWS V14.01,2013-03-06 18:43:00,
2013-03-06 13:44:00,36.7,30.5,29.73,NNE,15,25.0,28.0,78,0.18,,---,0.96,VWS V14.01,2013-03-06 18:44:00,
2013-03-06 13:45:00,36.7,30.5,29.73,NE,34,7.0,26.0,78,0.17,,---,0.97,VWS V14.01,2013-03-06 18:45:00,
2013-03-06 13:46:00,36.7,30.5,29.73,NNW,334,13.0,26.0,78,0.17,,---,0.97,VWS V14.01,2013-03-06 18:46:00,
2013-03-06 13:47:00,36.6,30.4,29.73,North,360,13.0,27.0,78,0.18,,---,0.94,VWS V14.01,2013-03-06 18:47:00,
2013-03-06 13:48:00,36.7,30.5,29.73,NNE,14,6.0,26.0,78,0.18,,---,0.98,VWS V14.01,2013-03-06 18:48:00,
2013-03-06 13:49:00,36.9,30.7,29.73,NE,38,12.0,26.0,78,0.18,,---,0.98,VWS V14.01,2013-03-06 18:49:00,
2013-03-06 13:50:00,36.9,30.7,29.73,NE,54,18.0,19.0,78,0.18,,---,0.98,VWS V14.01,2013-03-06 18:50:00,
2013-03-06 13:51:00,36.7,30.5,29.73,NNE,20,11.0,20.0,78,0.18,,---,0.98,VWS V14.01,2013-03-06 18:51:00,
2013-03-06 13:52:00,36.7,30.5,29.73,NE,56,5.0,25.0,78,0.18,,---,0.96,VWS V14.01,2013-03-06 18:52:00,
2013-03-06 13:53:00,36.9,30.7,29.73,NE,41,14.0,20.0,78,0.19,,---,0.99,VWS V14.01,2013-03-06 18:53:00,
2013-03-06 13:54:00,36.9,30.7,29.73,NNW,335,13.0,22.0,78,0.20,,---,1.00,VWS V14.01,2013-03-06 18:54:00,
2013-03-06 13:55:00,36.9,30.7,29.73,NNE,30,14.0,17.0,78,0.18,,---,1.00,VWS V14.01,2013-03-06 18:55:00,
2013-03-06 13:56:00,36.9,30.4,29.73,NNW,332,12.0,22.0,77,0.18,,---,1.00,VWS V14.01,2013-03-06 18:56:00,
2013-03-06 13:57:00,36.7,30.5,29.73,NNW,327,10.0,26.0,78,0.18,,---,0.98,VWS V14.01,2013-03-06 18:57:00,
2013-03-06 13:58:00,37.0,30.5,29.73,North,360,17.0,22.0,77,0.19,,---,1.01,VWS V14.01,2013-03-06 18:58:00,
2013-03-06 13:59:00,37.1,30.2,29.74,NNE,24,15.0,30.0,76,0.19,,---,1.01,VWS V14.01,2013-03-06 18:59:00,
2013-03-06 14:00:00,37.1,30.2,29.74,North,5,5.0,18.0,76,0.19,,---,1.02,VWS V14.01,2013-03-06 19:00:00,
2013-03-06 14:01:00,37.1,30.2,29.74,NE,56,10.0,21.0,76,0.19,,---,1.02,VWS V14.01,2013-03-06 19:01:00,
2013-03-06 14:02:00,36.9,30.7,29.73,North,9,15.0,20.0,78,0.19,,---,0.99,VWS V14.01,2013-03-06 19:02:00,
2013-03-06 14:03:00,37.1,30.2,29.74,NE,42,12.0,26.0,76,0.20,,---,1.03,VWS V14.01,2013-03-06 19:03:00,
2013-03-06 14:04:00,37.3,30.4,29.74,NE,53,11.0,26.0,76,0.20,,---,1.03,VWS V14.01,2013-03-06 19:04:00,
2013-03-06 14:05:00,37.3,30.4,29.74,NNW,345,13.0,19.0,76,0.19,,---,1.03,VWS V14.01,2013-03-06 19:05:00,
2013-03-06 14:06:00,37.3,30.4,29.74,NNW,340,19.0,20.0,76,0.20,,---,1.04,VWS V14.01,2013-03-06 19:06:00,
2013-03-06 14:07:00,37.0,30.5,29.73,NNE,22,16.0,22.0,77,0.19,,---,1.01,VWS V14.01,2013-03-06 19:07:00,
2013-03-06 14:08:00,37.3,30.4,29.74,North,11,19.0,27.0,76,0.20,,---,1.04,VWS V14.01,2013-03-06 19:08:00,
2013-03-06 14:09:00,37.3,30.4,29.74,NNE,18,17.0,27.0,76,0.20,,---,1.04,VWS V14.01,2013-03-06 19:09:00,
2013-03-06 14:10:00,37.1,30.2,29.74,NNW,339,16.0,23.0,76,0.19,,---,1.05,VWS V14.01,2013-03-06 19:10:00,
2013-03-06 14:11:00,37.1,30.2,29.74,NNE,28,17.0,23.0,76,0.19,,---,1.05,VWS V14.01,2013-03-06 19:11:00,
2013-03-06 14:12:00,37.1,30.2,29.74,NNE,16,8.0,26.0,76,0.20,,---,1.03,VWS V14.01,2013-03-06 19:12:00,
2013-03-06 14:13:00,37.3,30.1,29.74,North,355,20.0,29.0,75,0.20,,---,1.06,VWS V14.01,2013-03-06 19:13:00,
2013-03-06 14:14:00,37.3,30.1,29.75,NNE,17,17.0,29.0,75,0.20,,---,1.06,VWS V14.01,2013-03-06 19:14:00,
2013-03-06 14:15:00,37.3,30.1,29.75,North,355,15.0,19.0,75,0.19,,---,1.06,VWS V14.01,2013-03-06 19:15:00,
2013-03-06 14:16:00,37.4,30.2,29.75,North,360,19.0,24.0,75,0.19,,---,1.06,VWS V14.01,2013-03-06 19:16:00,
2013-03-06 14:17:00,37.3,30.4,29.74,NNE,32,24.0,27.0,76,0.20,,---,1.04,VWS V14.01,2013-03-06 19:17:00,
2013-03-06 14:18:00,37.4,30.2,29.75,North,5,13.0,24.0,75,0.19,,---,1.06,VWS V14.01,2013-03-06 19:18:00,
2013-03-06 14:19:00,37.4,30.2,29.75,NE,34,14.0,24.0,75,0.19,,---,1.06,VWS V14.01,2013-03-06 19:19:00,
2013-03-06 14:20:00,37.4,30.2,29.75,NNE,14,15.0,16.0,75,0.19,,---,1.07,VWS V14.01,2013-03-06 19:20:00,
2013-03-06 14:21:00,37.4,30.2,29.75,North,350,16.0,26.0,75,0.19,,---,1.07,VWS V14.01,2013-03-06 19:21:00,
2013-03-06 14:22:00,37.3,30.1,29.74,NNW,334,16.0,29.0,75,0.20,,---,1.06,VWS V14.01,2013-03-06 19:22:00,
2013-03-06 14:23:00,37.6,30.4,29.75,NNE,15,20.0,26.0,75,0.19,,---,1.07,VWS V14.01,2013-03-06 19:23:00,
2013-03-06 14:24:00,37.6,30.4,29.75,North,350,9.0,26.0,75,0.19,,---,1.07,VWS V14.01,2013-03-06 19:24:00,
2013-03-06 14:25:00,37.6,30.4,29.75,North,349,13.0,13.0,75,0.18,,---,1.08,VWS V14.01,2013-03-06 19:25:00,
2013-03-06 14:26:00,37.4,30.2,29.75,NNE,26,10.0,13.0,75,0.18,,---,1.08,VWS V14.01,2013-03-06 19:26:00,
2013-03-06 14:27:00,37.4,30.2,29.75,NW,326,10.0,24.0,75,0.19,,---,1.06,VWS V14.01,2013-03-06 19:27:00,
2013-03-06 14:28:00,37.4,30.2,29.75,NNE,12,23.0,23.0,75,0.18,,---,1.08,VWS V14.01,2013-03-06 19:28:00,
2013-03-06 14:29:00,37.4,30.2,29.77,North,5,15.0,23.0,75,0.18,,---,1.08,VWS V14.01,2013-03-06 19:29:00,
2013-03-06 14:30:00,37.4,30.2,29.77,North,5,6.0,12.0,75,0.16,,---,1.08,VWS V14.01,2013-03-06 19:30:00,
2013-03-06 14:31:00,37.3,30.1,29.77,NE,34,14.0,14.0,75,0.16,,---,1.08,VWS V14.01,2013-03-06 19:31:00,
2013-03-06 14:32:00,37.6,30.4,29.75,North,355,24.0,26.0,75,0.19,,---,1.07,VWS V14.01,2013-03-06 19:32:00,
2013-03-06 14:33:00,37.3,30.1,29.77,North,5,11.0,24.0,75,0.16,,---,1.08,VWS V14.01,2013-03-06 19:33:00,
2013-03-06 14:34:00,37.3,30.1,29.77,North,350,10.0,24.0,75,0.17,,---,1.09,VWS V14.01,2013-03-06 19:34:00,
2013-03-06 14:35:00,37.3,30.1,29.77,NNW,344,17.0,19.0,75,0.16,,---,1.09,VWS V14.01,2013-03-06 19:35:00,
2013-03-06 14:36:00,37.1,29.9,29.77,North,360,21.0,21.0,75,0.16,,---,1.09,VWS V14.01,2013-03-06 19:36:00,
2013-03-06 14:37:00,37.4,30.2,29.75,NNW,346,15.0,16.0,75,0.18,,---,1.08,VWS V14.01,2013-03-06 19:37:00,
2013-03-06 14:38:00,37.1,29.9,29.77,NW,324,17.0,21.0,75,0.16,,---,1.09,VWS V14.01,2013-03-06 19:38:00,
2013-03-06 14:39:00,37.1,30.2,29.77,North,355,12.0,21.0,76,0.17,,---,1.10,VWS V14.01,2013-03-06 19:39:00,
2013-03-06 14:40:00,37.1,29.9,29.77,North,355,6.0,20.0,75,0.15,,---,1.10,VWS V14.01,2013-03-06 19:40:00,
2013-03-06 14:41:00,37.1,29.9,29.77,North,355,13.0,20.0,75,0.15,,---,1.10,VWS V14.01,2013-03-06 19:41:00,
2013-03-06 14:42:00,37.3,30.1,29.77,NNE,22,19.0,24.0,75,0.16,,---,1.08,VWS V14.01,2013-03-06 19:42:00,
2013-03-06 14:43:00,37.3,30.1,29.77,NE,34,4.0,20.0,75,0.15,,---,1.10,VWS V14.01,2013-03-06 19:43:00,
2013-03-06 14:47:00,37.1,29.9,29.77,NNE,15,20.0,21.0,75,0.16,,---,1.09,VWS V14.01,2013-03-06 19:47:00,
2013-03-06 14:49:00,37.7,29.8,29.78,NNW,347,10.0,21.0,73,0.15,,---,1.10,VWS V14.01,2013-03-06 19:49:00,
2013-03-06 14:50:00,37.7,29.8,29.78,NNW,346,10.0,12.0,73,0.12,,---,1.10,VWS V14.01,2013-03-06 19:50:00,
2013-03-06 14:51:00,37.7,29.8,29.78,North,350,14.0,16.0,73,0.13,,---,1.11,VWS V14.01,2013-03-06 19:51:00,
2013-03-06 14:52:00,37.3,30.1,29.77,North,5,10.0,20.0,75,0.15,,---,1.10,VWS V14.01,2013-03-06 19:52:00,
2013-03-06 14:53:00,37.9,29.7,29.78,NW,324,16.0,21.0,72,0.13,,---,1.11,VWS V14.01,2013-03-06 19:53:00,
2013-03-06 14:54:00,37.9,29.7,29.78,North,360,19.0,27.0,72,0.13,,---,1.11,VWS V14.01,2013-03-06 19:54:00,
2013-03-06 14:55:00,37.9,29.7,29.78,NNW,328,14.0,17.0,72,0.11,,---,1.11,VWS V14.01,2013-03-06 19:55:00,
2013-03-06 14:56:00,37.9,30.0,29.78,North,11,7.0,17.0,73,0.11,,---,1.11,VWS V14.01,2013-03-06 19:56:00,
2013-03-06 14:57:00,37.9,30.0,29.78,NNW,342,11.0,21.0,73,0.11,,---,1.11,VWS V14.01,2013-03-06 19:57:00,
2013-03-06 14:58:00,37.9,30.0,29.78,NNE,17,5.0,21.0,73,0.11,,---,1.11,VWS V14.01,2013-03-06 19:58:00,
2013-03-06 14:59:00,37.7,29.8,29.78,NNE,30,4.0,21.0,73,0.15,,---,1.10,VWS V14.01,2013-03-06 19:59:00,
2013-03-06 15:00:00,38.0,30.1,29.80,NNE,15,21.0,21.0,73,0.10,,---,1.12,VWS V14.01,2013-03-06 20:00:00,
2013-03-06 15:01:00,38.0,29.8,29.80,NNW,344,20.0,30.0,72,0.10,,---,1.12,VWS V14.01,2013-03-06 20:01:00,
2013-03-06 15:02:00,38.0,29.5,29.80,North,355,13.0,30.0,71,0.10,,---,1.12,VWS V14.01,2013-03-06 20:02:00,
2013-03-06 15:03:00,38.2,29.6,29.80,North,355,10.0,30.0,71,0.10,,---,1.12,VWS V14.01,2013-03-06 20:03:00,
2013-03-06 15:04:00,37.9,29.7,29.78,NNW,338,11.0,27.0,72,0.13,,---,1.11,VWS V14.01,2013-03-06 20:04:00,
2013-03-06 15:05:00,38.3,29.7,29.80,NE,38,14.0,14.0,71,0.09,,---,1.12,VWS V14.01,2013-03-06 20:05:00,
2013-03-06 15:06:00,38.3,29.7,29.80,NNE,21,15.0,19.0,71,0.09,,---,1.12,VWS V14.01,2013-03-06 20:06:00,
2013-03-06 15:07:00,38.3,29.7,29.80,North,350,23.0,25.0,71,0.09,,---,1.12,VWS V14.01,2013-03-06 20:07:00,
2013-03-06 15:08:00,38.3,29.7,29.80,NNE,30,12.0,25.0,71,0.09,,---,1.12,VWS V14.01,2013-03-06 20:08:00,
2013-03-06 15:09:00,38.0,30.1,29.80,NNE,22,14.0,21.0,73,0.12,,---,1.12,VWS V14.01,2013-03-06 20:09:00,
2013-03-06 15:10:00,38.4,29.8,29.80,NNW,329,12.0,15.0,71,0.08,,---,1.12,VWS V14.01,2013-03-06 20:10:00,
2013-03-06 15:11:00,38.4,29.8,29.80,North,11,16.0,16.0,71,0.08,,---,1.12,VWS V14.01,2013-03-06 20:11:00,
2013-03-06 15:12:00,38.6,30.0,29.80,North,360,15.0,28.0,71,0.08,,---,1.12,VWS V14.01,2013-03-06 20:12:00,
2013-03-06 15:13:00,38.6,30.0,29.80,NNE,21,15.0,28.0,71,0.08,,---,1.12,VWS V14.01,2013-03-06 20:13:00,
2013-03-06 15:14:00,38.2,29.6,29.80,NE,35,10.0,30.0,71,0.10,,---,1.12,VWS V14.01,2013-03-06 20:14:00,
2013-03-06 15:15:00,38.6,30.0,29.81,NNE,17,7.0,7.0,71,0.06,,---,1.12,VWS V14.01,2013-03-06 20:15:00,
2013-03-06 15:16:00,38.6,30.0,29.81,NNE,19,10.0,27.0,71,0.06,,---,1.12,VWS V14.01,2013-03-06 20:16:00,
2013-03-06 15:17:00,38.7,30.1,29.81,NW,317,14.0,27.0,71,0.06,,---,1.12,VWS V14.01,2013-03-06 20:17:00,
2013-03-06 15:18:00,38.7,30.1,29.81,North,355,19.0,27.0,71,0.06,,---,1.12,VWS V14.01,2013-03-06 20:18:00,
2013-03-06 15:19:00,38.4,29.8,29.80,NE,53,11.0,25.0,71,0.09,,---,1.12,VWS V14.01,2013-03-06 20:19:00,
2013-03-06 15:20:00,38.7,29.8,29.81,NE,40,17.0,24.0,70,0.05,,---,1.12,VWS V14.01,2013-03-06 20:20:00,
2013-03-06 15:21:00,38.7,29.8,29.81,NE,49,14.0,24.0,70,0.05,,---,1.12,VWS V14.01,2013-03-06 20:21:00,
2013-03-06 15:22:00,38.7,29.8,29.81,NE,35,14.0,24.0,70,0.05,,---,1.12,VWS V14.01,2013-03-06 20:22:00,
2013-03-06 15:23:00,38.7,29.8,29.81,NE,38,20.0,24.0,70,0.05,,---,1.12,VWS V14.01,2013-03-06 20:23:00,
2013-03-06 15:24:00,38.6,30.0,29.81,NE,53,9.0,28.0,71,0.08,,---,1.12,VWS V14.01,2013-03-06 20:24:00,
2013-03-06 15:25:00,38.7,29.8,29.81,NNW,332,19.0,19.0,70,0.04,,---,1.12,VWS V14.01,2013-03-06 20:25:00,
2013-03-06 15:26:00,38.7,29.8,29.81,NE,39,14.0,23.0,70,0.04,,---,1.12,VWS V14.01,2013-03-06 20:26:00,
2013-03-06 15:27:00,38.7,29.8,29.81,North,360,9.0,23.0,70,0.04,,---,1.12,VWS V14.01,2013-03-06 20:27:00,
2013-03-06 15:28:00,38.7,29.8,29.81,NW,323,13.0,23.0,70,0.04,,---,1.12,VWS V14.01,2013-03-06 20:28:00,
2013-03-06 15:29:00,38.7,29.8,29.81,North,10,18.0,27.0,70,0.06,,---,1.12,VWS V14.01,2013-03-06 20:29:00,
2013-03-06 15:30:00,38.7,29.8,29.83,NNE,15,13.0,13.0,70,0.04,,---,1.12,VWS V14.01,2013-03-06 20:30:00,
2013-03-06 15:31:00,38.7,29.8,29.83,NNE,31,15.0,21.0,70,0.04,,---,1.12,VWS V14.01,2013-03-06 20:31:00,
2013-03-06 15:32:00,38.7,29.8,29.83,North,355,11.0,23.0,70,0.04,,---,1.12,VWS V14.01,2013-03-06 20:32:00,
2013-03-06 15:33:00,38.6,29.7,29.83,North,9,15.0,23.0,70,0.04,,---,1.12,VWS V14.01,2013-03-06 20:33:00,
2013-03-06 15:34:00,38.7,29.8,29.81,NNW,329,13.0,24.0,70,0.05,,---,1.12,VWS V14.01,2013-03-06 20:34:00,
2013-03-06 15:35:00,38.6,30.0,29.83,NNE,33,21.0,25.0,71,0.03,,---,1.12,VWS V14.01,2013-03-06 20:35:00,
2013-03-06 15:36:00,38.6,30.0,29.83,NNE,27,12.0,25.0,71,0.03,,---,1.12,VWS V14.01,2013-03-06 20:36:00,
2013-03-06 15:37:00,38.4,29.8,29.83,NNE,28,16.0,27.0,71,0.03,,---,1.12,VWS V14.01,2013-03-06 20:37:00,
2013-03-06 15:38:00,38.4,29.8,29.83,North,9,15.0,27.0,71,0.03,,---,1.12,VWS V14.01,2013-03-06 20:38:00,
2013-03-06 15:39:00,38.7,29.8,29.83,NNE,15,9.0,23.0,70,0.04,,---,1.12,VWS V14.01,2013-03-06 20:39:00,
2013-03-06 15:40:00,38.3,30.1,29.83,North,355,18.0,21.0,72,0.02,,---,1.12,VWS V14.01,2013-03-06 20:40:00,
2013-03-06 15:41:00,38.3,30.1,29.83,NNW,343,19.0,27.0,72,0.02,,---,1.12,VWS V14.01,2013-03-06 20:41:00,
2013-03-06 15:42:00,38.2,30.0,29.83,NE,40,19.0,27.0,72,0.02,,---,1.12,VWS V14.01,2013-03-06 20:42:00,
2013-03-06 15:43:00,38.2,30.0,29.83,NNE,29,16.0,27.0,72,0.02,,---,1.12,VWS V14.01,2013-03-06 20:43:00,
2013-03-06 15:44:00,38.6,30.0,29.83,NW,313,20.0,23.0,71,0.04,,---,1.12,VWS V14.01,2013-03-06 20:44:00,
2013-03-06 15:45:00,38.0,30.1,29.86,North,360,13.0,16.0,73,0.02,,---,1.12,VWS V14.01,2013-03-06 20:45:00,
2013-03-06 15:46:00,38.0,30.1,29.86,NNE,19,12.0,24.0,73,0.02,,---,1.12,VWS V14.01,2013-03-06 20:46:00,
2013-03-06 15:47:00,38.0,30.1,29.86,NNW,341,12.0,24.0,73,0.02,,---,1.12,VWS V14.01,2013-03-06 20:47:00,
2013-03-06 15:48:00,38.0,30.1,29.86,NW,324,14.0,24.0,73,0.02,,---,1.12,VWS V14.01,2013-03-06 20:48:00,
2013-03-06 15:49:00,38.3,29.7,29.83,NNE,13,21.0,28.0,71,0.03,,---,1.12,VWS V14.01,2013-03-06 20:49:00,
2013-03-06 15:50:00,37.9,30.0,29.86,NNW,338,11.0,14.0,73,0.02,,---,1.12,VWS V14.01,2013-03-06 20:50:00,
2013-03-06 15:51:00,37.9,30.0,29.86,North,355,9.0,16.0,73,0.02,,---,1.12,VWS V14.01,2013-03-06 20:51:00,
2013-03-06 15:52:00,37.9,30.0,29.86,NNE,25,11.0,16.0,73,0.02,,---,1.12,VWS V14.01,2013-03-06 20:52:00,
2013-03-06 15:53:00,37.9,30.0,29.86,North,9,21.0,21.0,73,0.02,,---,1.12,VWS V14.01,2013-03-06 20:53:00,
2013-03-06 15:54:00,38.0,29.8,29.86,NNW,332,14.0,27.0,72,0.02,,---,1.12,VWS V14.01,2013-03-06 20:54:00,
2013-03-06 15:55:00,37.9,30.0,29.86,North,5,12.0,12.0,73,0.01,,---,1.12,VWS V14.01,2013-03-06 20:55:00,
2013-03-06 15:56:00,37.7,29.8,29.86,NE,45,13.0,14.0,73,0.01,,---,1.12,VWS V14.01,2013-03-06 20:56:00,
2013-03-06 15:57:00,37.7,30.2,29.86,NNE,25,11.0,18.0,74,0.01,,---,1.12,VWS V14.01,2013-03-06 20:57:00,
2013-03-06 15:58:00,37.7,30.2,29.86,NE,51,5.0,18.0,74,0.01,,---,1.12,VWS V14.01,2013-03-06 20:58:00,
2013-03-06 15:59:00,37.9,30.0,29.86,NNE,28,11.0,24.0,73,0.02,,---,1.12,VWS V14.01,2013-03-06 20:59:00,
2013-03-06 16:00:00,37.6,30.1,29.88,NNE,31,11.0,11.0,74,0.00,,---,1.12,VWS V14.01,2013-03-06 21:00:00,
2013-03-06 16:01:00,37.6,30.1,29.88,ENE,59,9.0,13.0,74,0.00,,---,1.12,VWS V14.01,2013-03-06 21:01:00,
2013-03-06 16:02:00,37.6,30.1,29.88,NE,54,9.0,15.0,74,0.00,,---,1.12,VWS V14.01,2013-03-06 21:02:00,
2013-03-06 16:03:00,37.6,30.1,29.88,NNE,33,17.0,17.0,74,0.00,,---,1.12,VWS V14.01,2013-03-06 21:03:00,
2013-03-06 16:04:00,37.9,30.0,29.86,North,5,12.0,22.0,73,0.02,,---,1.12,VWS V14.01,2013-03-06 21:04:00,
2013-03-06 16:05:00,37.6,30.1,29.88,NNE,27,17.0,21.0,74,0.00,,---,1.12,VWS V14.01,2013-03-06 21:05:00,
2013-03-06 16:06:00,37.4,29.9,29.88,NNE,12,10.0,22.0,74,0.00,,---,1.12,VWS V14.01,2013-03-06 21:06:00,
2013-03-06 16:07:00,37.4,30.2,29.88,NE,49,6.0,22.0,75,0.00,,---,1.12,VWS V14.01,2013-03-06 21:07:00,
2013-03-06 16:08:00,37.4,30.2,29.88,NNE,17,17.0,22.0,75,0.00,,---,1.12,VWS V14.01,2013-03-06 21:08:00,
2013-03-06 16:09:00,37.6,30.1,29.88,North,9,6.0,18.0,74,0.01,,---,1.12,VWS V14.01,2013-03-06 21:09:00,
2013-03-06 16:10:00,37.4,29.9,29.88,North,9,7.0,12.0,74,0.00,,---,1.12,VWS V14.01,2013-03-06 21:10:00,
2013-03-06 16:11:00,37.4,29.9,29.88,NNE,16,9.0,12.0,74,0.00,,---,1.12,VWS V14.01,2013-03-06 21:11:00,
2013-03-06 16:12:00,37.4,29.9,29.88,NNE,30,2.0,12.0,74,0.00,,---,1.12,VWS V14.01,2013-03-06 21:12:00,
2013-03-06 16:13:00,37.6,30.1,29.88,NNW,345,4.0,12.0,74,0.00,,---,1.12,VWS V14.01,2013-03-06 21:13:00,
2013-03-06 16:14:00,37.6,30.1,29.88,NNE,30,21.0,28.0,74,0.00,,---,1.12,VWS V14.01,2013-03-06 21:14:00,
2013-03-06 16:15:00,37.6,30.1,29.88,NNW,332,6.0,9.0,74,0.00,,---,1.12,VWS V14.01,2013-03-06 21:15:00,
2013-03-06 16:16:00,37.6,30.1,29.88,NNW,340,6.0,9.0,74,0.00,,---,1.12,VWS V14.01,2013-03-06 21:16:00,
2013-03-06 16:17:00,37.6,30.1,29.88,North,355,4.0,9.0,74,0.00,,---,1.12,VWS V14.01,2013-03-06 21:17:00,
2013-03-06 16:18:00,37.6,30.1,29.88,NW,323,1.0,9.0,74,0.00,,---,1.12,VWS V14.01,2013-03-06 21:18:00,
2013-03-06 16:19:00,37.4,29.9,29.88,NE,37,10.0,22.0,74,0.00,,---,1.12,VWS V14.01,2013-03-06 21:19:00,
2013-03-06 16:20:00,37.7,30.2,29.88,NNE,26,6.0,12.0,74,0.00,,---,1.12,VWS V14.01,2013-03-06 21:20:00,
2013-03-06 16:21:00,37.7,30.2,29.88,NNW,342,18.0,18.0,74,0.00,,---,1.12,VWS V14.01,2013-03-06 21:21:00,
2013-03-06 16:22:00,37.7,30.2,29.88,North,5,7.0,18.0,74,0.00,,---,1.12,VWS V14.01,2013-03-06 21:22:00,
2013-03-06 16:23:00,37.7,29.8,29.88,NNE,30,8.0,18.0,73,0.00,,---,1.12,VWS V14.01,2013-03-06 21:23:00,
2013-03-06 16:24:00,37.6,30.1,29.88,NNE,28,5.0,12.0,74,0.00,,---,1.12,VWS V14.01,2013-03-06 21:24:00,
2013-03-06 16:25:00,37.7,29.8,29.88,NE,45,19.0,19.0,73,0.00,,---,1.12,VWS V14.01,2013-03-06 21:25:00,
2013-03-06 16:26:00,37.7,29.8,29.88,NNW,344,12.0,20.0,73,0.00,,---,1.12,VWS V14.01,2013-03-06 21:26:00,
2013-03-06 16:27:00,37.7,29.8,29.88,NNE,24,13.0,20.0,73,0.00,,---,1.12,VWS V14.01,2013-03-06 21:27:00,
2013-03-06 16:28:00,37.7,29.8,29.88,NNW,347,17.0,20.0,73,0.00,,---,1.12,VWS V14.01,2013-03-06 21:28:00,
2013-03-06 16:29:00,37.6,30.1,29.88,NNW,344,13.0,20.0,74,0.00,,---,1.12,VWS V14.01,2013-03-06 21:29:00,
2013-03-06 16:30:00,37.9,30.0,29.89,NNE,30,17.0,19.0,73,0.00,,---,1.12,VWS V14.01,2013-03-06 21:30:00,
2013-03-06 16:31:00,37.9,30.0,29.89,North,10,10.0,19.0,73,0.00,,---,1.12,VWS V14.01,2013-03-06 21:31:00,
2013-03-06 16:32:00,37.9,30.0,29.89,NNE,23,14.0,19.0,73,0.00,,---,1.12,VWS V14.01,2013-03-06 21:32:00,
2013-03-06 16:33:00,37.9,30.0,29.89,NNW,336,17.0,19.0,73,0.00,,---,1.12,VWS V14.01,2013-03-06 21:33:00,
2013-03-06 16:34:00,37.7,29.8,29.88,North,355,16.0,18.0,73,0.00,,---,1.12,VWS V14.01,2013-03-06 21:34:00,
2013-03-06 16:35:00,37.9,30.0,29.89,NW,304,7.0,7.0,73,0.00,,---,1.12,VWS V14.01,2013-03-06 21:35:00,
2013-03-06 16:36:00,37.9,30.0,29.89,NW,325,14.0,17.0,73,0.00,,---,1.12,VWS V14.01,2013-03-06 21:36:00,
2013-03-06 16:37:00,38.0,30.1,29.89,NW,325,15.0,17.0,73,0.00,,---,1.12,VWS V14.01,2013-03-06 21:37:00,
2013-03-06 16:38:00,38.0,30.1,29.89,NE,37,11.0,17.0,73,0.00,,---,1.12,VWS V14.01,2013-03-06 21:38:00,
2013-03-06 16:39:00,37.7,29.8,29.89,North,349,13.0,20.0,73,0.00,,---,1.12,VWS V14.01,2013-03-06 21:39:00,
2013-03-06 16:40:00,38.0,30.1,29.89,NNE,15,14.0,19.0,73,0.00,,---,1.12,VWS V14.01,2013-03-06 21:40:00,
2013-03-06 16:41:00,38.0,30.1,29.89,NE,44,14.0,19.0,73,0.00,,---,1.12,VWS V14.01,2013-03-06 21:41:00,
2013-03-06 16:42:00,38.0,29.8,29.89,North,9,11.0,25.0,72,0.00,,---,1.12,VWS V14.01,2013-03-06 21:42:00,
2013-03-06 16:43:00,38.0,30.1,29.89,North,360,17.0,25.0,73,0.00,,---,1.12,VWS V14.01,2013-03-06 21:43:00,
2013-03-06 16:44:00,37.9,30.0,29.89,East,92,6.0,19.0,73,0.00,,---,1.12,VWS V14.01,2013-03-06 21:44:00,
2013-03-06 16:45:00,38.0,30.1,29.91,NNE,31,13.0,13.0,73,0.00,,---,1.12,VWS V14.01,2013-03-06 21:45:00,
2013-03-06 16:46:00,38.0,30.1,29.91,North,9,9.0,16.0,73,0.00,,---,1.12,VWS V14.01,2013-03-06 21:46:00,
2013-03-06 16:47:00,38.0,30.1,29.91,NNE,19,11.0,18.0,73,0.00,,---,1.12,VWS V14.01,2013-03-06 21:47:00,
2013-03-06 16:48:00,38.0,30.1,29.91,ENE,69,4.0,18.0,73,0.00,,---,1.12,VWS V14.01,2013-03-06 21:48:00,
2013-03-06 16:49:00,38.0,30.1,29.89,NNW,345,13.0,17.0,73,0.00,,---,1.12,VWS V14.01,2013-03-06 21:49:00,
2013-03-06 16:50:00,38.0,29.8,29.91,North,9,9.0,11.0,72,0.00,,---,1.12,VWS V14.01,2013-03-06 21:50:00,
2013-03-06 16:51:00,38.0,30.1,29.91,North,355,16.0,19.0,73,0.00,,---,1.12,VWS V14.01,2013-03-06 21:51:00,
2013-03-06 16:52:00,38.0,30.1,29.91,North,355,17.0,19.0,73,0.00,,---,1.12,VWS V14.01,2013-03-06 21:52:00,
2013-03-06 16:53:00,38.0,30.1,29.91,NNE,14,18.0,20.0,73,0.00,,---,1.12,VWS V14.01,2013-03-06 21:53:00,
2013-03-06 16:54:00,38.0,30.1,29.91,North,355,3.0,25.0,73,0.00,,---,1.12,VWS V14.01,2013-03-06 21:54:00,
2013-03-06 16:55:00,38.0,30.1,29.91,North,360,14.0,17.0,73,0.00,,---,1.12,VWS V14.01,2013-03-06 21:55:00,
2013-03-06 16:56:00,38.0,30.1,29.91,North,360,9.0,17.0,73,0.00,,---,1.12,VWS V14.01,2013-03-06 21:56:00,
2013-03-06 16:57:00,37.9,30.0,29.91,North,351,7.0,17.0,73,0.00,,---,1.12,VWS V14.01,2013-03-06 21:57:00,
2013-03-06 16:58:00,37.9,30.4,29.91,North,5,13.0,17.0,74,0.00,,---,1.12,VWS V14.01,2013-03-06 21:58:00,
2013-03-06 16:59:00,38.0,30.1,29.91,North,355,12.0,18.0,73,0.00,,---,1.12,VWS V14.01,2013-03-06 21:59:00,
2013-03-06 17:00:00,37.9,30.0,29.92,North,10,14.0,17.0,73,0.00,,---,1.12,VWS V14.01,2013-03-06 22:00:00,
2013-03-06 17:01:00,37.9,30.0,29.92,NE,35,15.0,18.0,73,0.00,,---,1.12,VWS V14.01,2013-03-06 22:01:00,
2013-03-06 17:02:00,37.9,30.0,29.92,NNE,13,10.0,18.0,73,0.00,,---,1.12,VWS V14.01,2013-03-06 22:02:00,
2013-03-06 17:03:00,37.9,30.0,29.92,NNE,26,13.0,18.0,73,0.00,,---,1.12,VWS V14.01,2013-03-06 22:03:00,
2013-03-06 17:04:00,38.0,30.1,29.91,NNW,344,14.0,23.0,73,0.00,,---,1.12,VWS V14.01,2013-03-06 22:04:00,
2013-03-06 17:05:00,37.9,30.4,29.92,NW,320,9.0,21.0,74,0.00,,---,1.12,VWS V14.01,2013-03-06 22:05:00,
2013-03-06 17:06:00,37.9,30.4,29.92,WNW,285,10.0,21.0,74,0.00,,---,1.12,VWS V14.01,2013-03-06 22:06:00,
2013-03-06 17:07:00,37.9,30.4,29.92,NNE,30,13.0,21.0,74,0.00,,---,1.12,VWS V14.01,2013-03-06 22:07:00,
2013-03-06 17:08:00,37.9,30.0,29.92,NNE,22,17.0,21.0,73,0.00,,---,1.12,VWS V14.01,2013-03-06 22:08:00,
2013-03-06 17:09:00,37.9,30.0,29.92,NE,38,17.0,17.0,73,0.00,,---,1.12,VWS V14.01,2013-03-06 22:09:00,
2013-03-06 17:10:00,38.0,30.1,29.92,North,5,12.0,16.0,73,0.00,,---,1.12,VWS V14.01,2013-03-06 22:10:00,
2013-03-06 17:11:00,38.0,30.1,29.92,NE,34,13.0,16.0,73,0.00,,---,1.12,VWS V14.01,2013-03-06 22:11:00,
2013-03-06 17:12:00,37.9,30.0,29.92,NNE,31,12.0,16.0,73,0.00,,---,1.12,VWS V14.01,2013-03-06 22:12:00,
2013-03-06 17:13:00,37.9,30.0,29.92,NNW,336,1.0,17.0,73,0.00,,---,1.12,VWS V14.01,2013-03-06 22:13:00,
2013-03-06 17:14:00,37.9,30.4,29.92,North,355,21.0,30.0,74,0.00,,---,1.12,VWS V14.01,2013-03-06 22:14:00,
2013-03-06 17:15:00,37.9,30.0,29.93,NNE,28,5.0,6.0,73,0.00,,---,1.12,VWS V14.01,2013-03-06 22:15:00,
2013-03-06 17:16:00,37.9,30.4,29.93,North,360,3.0,7.0,74,0.00,,---,1.12,VWS V14.01,2013-03-06 22:16:00,
2013-03-06 17:17:00,37.9,30.0,29.93,NNE,28,11.0,17.0,73,0.00,,---,1.12,VWS V14.01,2013-03-06 22:17:00,
2013-03-06 17:18:00,37.9,30.0,29.93,NNE,17,5.0,17.0,73,0.00,,---,1.12,VWS V14.01,2013-03-06 22:18:00,
2013-03-06 17:19:00,38.0,30.1,29.92,NE,55,10.0,21.0,73,0.00,,---,1.12,VWS V14.01,2013-03-06 22:19:00,
2013-03-06 17:20:00,38.0,30.1,29.93,NNE,21,14.0,18.0,73,0.00,,---,1.12,VWS V14.01,2013-03-06 22:20:00,
2013-03-06 17:21:00,38.0,30.1,29.93,NNW,341,11.0,18.0,73,0.00,,---,1.12,VWS V14.01,2013-03-06 22:21:00,
2013-03-06 17:22:00,38.0,30.1,29.93,North,5,14.0,18.0,73,0.00,,---,1.12,VWS V14.01,2013-03-06 22:22:00,
2013-03-06 17:23:00,38.0,30.1,29.93,North,5,9.0,18.0,73,0.00,,---,1.12,VWS V14.01,2013-03-06 22:23:00,
2013-03-06 17:24:00,37.9,30.0,29.93,NNE,30,4.0,17.0,73,0.00,,---,1.12,VWS V14.01,2013-03-06 22:24:00,
2013-03-06 17:25:00,38.0,29.8,29.93,NNE,22,6.0,9.0,72,0.00,,---,1.12,VWS V14.01,2013-03-06 22:25:00,
2013-03-06 17:26:00,38.0,29.8,29.93,NNW,334,10.0,14.0,72,0.00,,---,1.12,VWS V14.01,2013-03-06 22:26:00,
2013-03-06 17:27:00,38.0,29.8,29.93,North,355,5.0,14.0,72,0.00,,---,1.12,VWS V14.01,2013-03-06 22:27:00,
2013-03-06 17:28:00,38.0,29.8,29.93,NNW,348,7.0,14.0,72,0.00,,---,1.12,VWS V14.01,2013-03-06 22:28:00,
2013-03-06 17:29:00,38.0,30.1,29.93,NE,51,13.0,17.0,73,0.00,,---,1.12,VWS V14.01,2013-03-06 22:29:00,
2013-03-06 17:30:00,38.0,29.8,29.94,NNE,28,9.0,15.0,72,0.00,,---,1.12,VWS V14.01,2013-03-06 22:30:00,
2013-03-06 17:31:00,38.0,29.8,29.94,NNE,19,9.0,15.0,72,0.00,,---,1.12,VWS V14.01,2013-03-06 22:31:00,
2013-03-06 17:32:00,38.0,29.8,29.94,NNE,22,10.0,16.0,72,0.00,,---,1.12,VWS V14.01,2013-03-06 22:32:00,
2013-03-06 17:33:00,38.0,29.8,29.94,North,5,7.0,18.0,72,0.00,,---,1.12,VWS V14.01,2013-03-06 22:33:00,
2013-03-06 17:34:00,38.0,30.1,29.93,NE,38,8.0,18.0,73,0.00,,---,1.12,VWS V14.01,2013-03-06 22:34:00,
2013-03-06 17:35:00,38.0,29.5,29.94,NNE,21,19.0,19.0,71,0.00,,---,1.12,VWS V14.01,2013-03-06 22:35:00,
2013-03-06 17:36:00,38.0,29.5,29.94,NNE,26,11.0,19.0,71,0.00,,---,1.12,VWS V14.01,2013-03-06 22:36:00,
2013-03-06 17:37:00,38.2,29.6,29.94,North,11,7.0,19.0,71,0.00,,---,1.12,VWS V14.01,2013-03-06 22:37:00,
2013-03-06 17:38:00,38.2,29.6,29.94,ENE,58,5.0,19.0,71,0.00,,---,1.12,VWS V14.01,2013-03-06 22:38:00,
2013-03-06 17:39:00,38.0,30.1,29.94,NNE,30,12.0,15.0,73,0.00,,---,1.12,VWS V14.01,2013-03-06 22:39:00,
2013-03-06 17:40:00,38.2,29.6,29.94,North,360,16.0,19.0,71,0.00,,---,1.12,VWS V14.01,2013-03-06 22:40:00,
2013-03-06 17:41:00,38.2,29.6,29.94,North,350,16.0,19.0,71,0.00,,---,1.12,VWS V14.01,2013-03-06 22:41:00,
2013-03-06 17:42:00,38.2,29.6,29.94,North,350,16.0,19.0,71,0.00,,---,1.12,VWS V14.01,2013-03-06 22:42:00,
2013-03-06 17:43:00,38.2,29.3,29.94,North,360,8.0,19.0,70,0.00,,---,1.12,VWS V14.01,2013-03-06 22:43:00,
2013-03-06 17:44:00,38.0,29.8,29.94,North,355,16.0,18.0,72,0.00,,---,1.12,VWS V14.01,2013-03-06 22:44:00,
2013-03-06 17:45:00,38.2,29.3,29.95,NE,44,18.0,18.0,70,0.00,,---,1.12,VWS V14.01,2013-03-06 22:45:00,
2013-03-06 17:46:00,38.3,29.4,29.95,North,10,7.0,18.0,70,0.00,,---,1.12,VWS V14.01,2013-03-06 22:46:00,
2013-03-06 17:47:00,38.3,29.4,29.95,NNW,348,15.0,18.0,70,0.00,,---,1.12,VWS V14.01,2013-03-06 22:47:00,
2013-03-06 17:48:00,38.3,29.4,29.95,NNE,24,17.0,18.0,70,0.00,,---,1.12,VWS V14.01,2013-03-06 22:48:00,
2013-03-06 17:49:00,38.2,29.6,29.94,North,350,15.0,19.0,71,0.00,,---,1.12,VWS V14.01,2013-03-06 22:49:00,
2013-03-06 17:50:00,38.3,29.4,29.95,NNE,29,6.0,8.0,70,0.00,,---,1.12,VWS V14.01,2013-03-06 22:50:00,
2013-03-06 17:51:00,38.3,29.4,29.95,NW,315,19.0,19.0,70,0.00,,---,1.12,VWS V14.01,2013-03-06 22:51:00,
2013-03-06 17:52:00,38.3,29.4,29.95,NNE,15,13.0,22.0,70,0.00,,---,1.12,VWS V14.01,2013-03-06 22:52:00,
2013-03-06 17:53:00,38.3,29.4,29.95,NW,315,12.0,22.0,70,0.00,,---,1.12,VWS V14.01,2013-03-06 22:53:00,
2013-03-06 17:54:00,38.2,29.3,29.95,NNE,28,13.0,19.0,70,0.00,,---,1.12,VWS V14.01,2013-03-06 22:54:00,
2013-03-06 17:55:00,38.3,29.4,29.95,NNW,346,6.0,12.0,70,0.00,,---,1.12,VWS V14.01,2013-03-06 22:55:00,
2013-03-06 17:56:00,38.3,29.7,29.95,North,355,5.0,13.0,71,0.00,,---,1.12,VWS V14.01,2013-03-06 22:56:00,
2013-03-06 17:57:00,38.3,29.7,29.95,NNE,22,9.0,13.0,71,0.00,,---,1.12,VWS V14.01,2013-03-06 22:57:00,
2013-03-06 17:58:00,38.2,29.3,29.95,NE,38,9.0,14.0,70,0.00,,---,1.12,VWS V14.01,2013-03-06 22:58:00,
2013-03-06 17:59:00,38.3,29.4,29.95,North,355,8.0,18.0,70,0.00,,---,1.12,VWS V14.01,2013-03-06 22:59:00,
2013-03-06 18:00:00,38.2,29.6,29.95,NW,325,15.0,19.0,71,0.00,,---,1.12,VWS V14.01,2013-03-06 23:00:00,
2013-03-06 18:01:00,38.2,29.3,29.95,NNE,22,10.0,19.0,70,0.00,,---,1.12,VWS V14.01,2013-03-06 23:01:00,
2013-03-06 18:02:00,38.2,29.3,29.95,North,10,4.0,19.0,70,0.00,,---,1.12,VWS V14.01,2013-03-06 23:02:00,
2013-03-06 18:03:00,38.2,29.3,29.95,North,360,6.0,19.0,70,0.00,,---,1.12,VWS V14.01,2013-03-06 23:03:00,
2013-03-06 18:04:00,38.3,29.4,29.95,North,355,6.0,22.0,70,0.00,,---,1.12,VWS V14.01,2013-03-06 23:04:00,
2013-03-06 18:05:00,38.2,29.3,29.95,North,5,4.0,6.0,70,0.00,,---,1.12,VWS V14.01,2013-03-06 23:05:00,
2013-03-06 18:06:00,38.2,29.3,29.95,NNW,328,4.0,7.0,70,0.00,,---,1.12,VWS V14.01,2013-03-06 23:06:00,
2013-03-06 18:07:00,38.2,29.3,29.95,NW,319,9.0,10.0,70,0.00,,---,1.12,VWS V14.01,2013-03-06 23:07:00,
2013-03-06 18:08:00,38.2,29.3,29.95,NNW,344,7.0,11.0,70,0.00,,---,1.12,VWS V14.01,2013-03-06 23:08:00,
2013-03-06 18:09:00,38.2,29.3,29.95,North,5,7.0,14.0,70,0.00,,---,1.12,VWS V14.01,2013-03-06 23:09:00,
2013-03-06 18:10:00,38.2,29.3,29.95,NW,318,7.0,7.0,70,0.00,,---,1.12,VWS V14.01,2013-03-06 23:10:00,
2013-03-06 18:11:00,38.2,29.3,29.95,NNW,347,11.0,14.0,70,0.00,,---,1.12,VWS V14.01,2013-03-06 23:11:00,
2013-03-06 18:12:00,38.3,29.4,29.95,NNE,15,19.0,21.0,70,0.00,,---,1.12,VWS V14.01,2013-03-06 23:12:00,
2013-03-06 18:13:00,38.3,29.4,29.95,NNW,344,6.0,23.0,70,0.00,,---,1.12,VWS V14.01,2013-03-06 23:13:00,
2013-03-06 18:14:00,38.2,29.3,29.95,NNE,23,9.0,19.0,70,0.00,,---,1.12,VWS V14.01,2013-03-06 23:14:00,
2013-03-06 18:15:00,38.3,29.4,29.94,NNW,337,13.0,15.0,70,0.00,,---,1.12,VWS V14.01,2013-03-06 23:15:00,
2013-03-06 18:16:00,38.3,29.4,29.94,NE,53,10.0,15.0,70,0.00,,---,1.12,VWS V14.01,2013-03-06 23:16:00,
2013-03-06 18:17:00,38.3,29.4,29.94,NW,317,5.0,15.0,70,0.00,,---,1.12,VWS V14.01,2013-03-06 23:17:00,
2013-03-06 18:18:00,38.3,29.4,29.94,NNE,24,15.0,16.0,70,0.00,,---,1.12,VWS V14.01,2013-03-06 23:18:00,
2013-03-06 18:19:00,38.2,29.3,29.95,NNE,21,6.0,19.0,70,0.00,,---,1.12,VWS V14.01,2013-03-06 23:19:00,
2013-03-06 18:20:00,38.3,29.0,29.94,NE,39,12.0,29.0,69,0.00,,---,1.12,VWS V14.01,2013-03-06 23:20:00,
2013-03-06 18:21:00,38.3,29.0,29.94,WNW,295,9.0,29.0,69,0.00,,---,1.12,VWS V14.01,2013-03-06 23:21:00,
2013-03-06 18:22:00,38.3,29.0,29.94,NNW,348,12.0,29.0,69,0.00,,---,1.12,VWS V14.01,2013-03-06 23:22:00,
2013-03-06 18:23:00,38.3,29.0,29.94,NNE,21,11.0,29.0,69,0.00,,---,1.12,VWS V14.01,2013-03-06 23:23:00,
2013-03-06 18:24:00,38.3,29.4,29.94,WSW,247,13.0,23.0,70,0.00,,---,1.12,VWS V14.01,2013-03-06 23:24:00,
2013-03-06 18:25:00,38.3,29.0,29.94,NNE,14,9.0,22.0,69,0.00,,---,1.12,VWS V14.01,2013-03-06 23:25:00,
2013-03-06 18:26:00,38.4,29.1,29.94,NW,325,4.0,22.0,69,0.00,,---,1.12,VWS V14.01,2013-03-06 23:26:00,
2013-03-06 18:27:00,38.4,29.1,29.94,NW,320,14.0,22.0,69,0.00,,---,1.12,VWS V14.01,2013-03-06 23:27:00,
2013-03-06 18:28:00,38.3,29.0,29.94,North,349,13.0,22.0,69,0.00,,---,1.12,VWS V14.01,2013-03-06 23:28:00,
2013-03-06 18:29:00,38.3,29.0,29.94,NNW,341,24.0,24.0,69,0.00,,---,1.12,VWS V14.01,2013-03-06 23:29:00,
2013-03-06 18:30:00,38.4,29.1,29.96,North,5,15.0,17.0,69,0.00,,---,1.12,VWS V14.01,2013-03-06 23:30:00,
2013-03-06 18:31:00,38.4,28.8,29.96,NNW,347,9.0,17.0,68,0.00,,---,1.12,VWS V14.01,2013-03-06 23:31:00,
2013-03-06 18:32:00,38.4,29.1,29.96,North,5,6.0,18.0,69,0.00,,---,1.12,VWS V14.01,2013-03-06 23:32:00,
2013-03-06 18:33:00,38.4,29.1,29.96,NNW,338,13.0,18.0,69,0.00,,---,1.12,VWS V14.01,2013-03-06 23:33:00,
2013-03-06 18:34:00,38.4,29.1,29.94,North,5,15.0,29.0,69,0.00,,---,1.12,VWS V14.01,2013-03-06 23:34:00,
2013-03-06 18:35:00,38.4,28.8,29.96,NW,315,12.0,16.0,68,0.00,,---,1.12,VWS V14.01,2013-03-06 23:35:00,
2013-03-06 18:36:00,38.6,29.0,29.96,NE,34,7.0,19.0,68,0.00,,---,1.12,VWS V14.01,2013-03-06 23:36:00,
2013-03-06 18:37:00,38.6,29.0,29.96,North,360,14.0,25.0,68,0.00,,---,1.12,VWS V14.01,2013-03-06 23:37:00,
2013-03-06 18:38:00,38.6,29.0,29.96,NNE,32,11.0,25.0,68,0.00,,---,1.12,VWS V14.01,2013-03-06 23:38:00,
2013-03-06 18:39:00,38.4,29.1,29.96,NNW,340,9.0,23.0,69,0.00,,---,1.12,VWS V14.01,2013-03-06 23:39:00,
2013-03-06 18:40:00,38.6,29.0,29.96,NNW,329,2.0,5.0,68,0.00,,---,1.12,VWS V14.01,2013-03-06 23:40:00,
2013-03-06 18:41:00,38.6,29.0,29.96,North,355,1.0,6.0,68,0.00,,---,1.12,VWS V14.01,2013-03-06 23:41:00,
2013-03-06 18:42:00,38.6,29.0,29.96,NNW,344,2.0,6.0,68,0.00,,---,1.12,VWS V14.01,2013-03-06 23:42:00,
2013-03-06 18:43:00,38.4,28.8,29.96,North,9,5.0,10.0,68,0.00,,---,1.12,VWS V14.01,2013-03-06 23:43:00,
2013-03-06 18:44:00,38.4,28.8,29.96,NNW,344,15.0,25.0,68,0.00,,---,1.12,VWS V14.01,2013-03-06 23:44:00,
2013-03-06 18:45:00,38.4,28.8,29.97,North,360,19.0,19.0,68,0.00,,---,1.12,VWS V14.01,2013-03-06 23:45:00,
2013-03-06 18:46:00,38.4,28.8,29.97,North,351,15.0,23.0,68,0.00,,---,1.12,VWS V14.01,2013-03-06 23:46:00,
2013-03-06 18:47:00,38.6,29.0,29.97,NNW,339,11.0,23.0,68,0.00,,---,1.12,VWS V14.01,2013-03-06 23:47:00,
2013-03-06 18:48:00,38.6,29.0,29.97,NNW,348,4.0,23.0,68,0.00,,---,1.12,VWS V14.01,2013-03-06 23:48:00,
2013-03-06 18:49:00,38.6,29.0,29.96,NNW,333,8.0,25.0,68,0.00,,---,1.12,VWS V14.01,2013-03-06 23:49:00,
2013-03-06 18:50:00,38.6,29.0,29.97,NNW,338,5.0,6.0,68,0.00,,---,1.12,VWS V14.01,2013-03-06 23:50:00,
2013-03-06 18:51:00,38.6,29.0,29.97,NNE,29,7.0,11.0,68,0.00,,---,1.12,VWS V14.01,2013-03-06 23:51:00,
2013-03-06 18:52:00,38.6,28.6,29.97,North,360,11.0,19.0,67,0.00,,---,1.12,VWS V14.01,2013-03-06 23:52:00,
2013-03-06 18:53:00,38.6,28.6,29.97,NNE,26,10.0,19.0,67,0.00,,---,1.12,VWS V14.01,2013-03-06 23:53:00,
2013-03-06 18:54:00,38.4,29.1,29.97,NNW,347,15.0,15.0,69,0.00,,---,1.12,VWS V14.01,2013-03-06 23:54:00,
2013-03-06 18:55:00,38.6,28.6,29.97,NNW,330,4.0,7.0,67,0.00,,---,1.12,VWS V14.01,2013-03-06 23:55:00,
2013-03-06 18:56:00,38.7,28.7,29.97,NNW,330,1.0,7.0,67,0.00,,---,1.12,VWS V14.01,2013-03-06 23:56:00,
2013-03-06 18:57:00,38.7,28.7,29.97,North,5,6.0,14.0,67,0.00,,---,1.12,VWS V14.01,2013-03-06 23:57:00,
2013-03-06 18:58:00,38.6,28.6,29.97,NNE,19,10.0,14.0,67,0.00,,---,1.12,VWS V14.01,2013-03-06 23:58:00,
2013-03-06 18:59:00,38.6,29.0,29.97,NW,322,5.0,23.0,68,0.00,,---,1.12,VWS V14.01,2013-03-06 23:59:00,
2013-03-06 19:00:00,38.6,29.0,29.97,North,355,10.0,13.0,68,0.00,,---,1.12,VWS V14.01,2013-03-07 00:00:00,
2013-03-06 19:01:00,38.6,28.2,29.97,North,355,6.0,15.0,66,0.00,,---,1.12,VWS V14.01,2013-03-07 00:01:00,
2013-03-06 19:02:00,38.7,28.3,29.97,NNW,337,9.0,15.0,66,0.00,,---,1.12,VWS V14.01,2013-03-07 00:02:00,
2013-03-06 19:03:00,38.7,28.3,29.97,NNW,341,10.0,15.0,66,0.00,,---,1.12,VWS V14.01,2013-03-07 00:03:00,
2013-03-06 19:04:00,38.6,28.6,29.97,NNE,28,5.0,19.0,67,0.00,,---,1.12,VWS V14.01,2013-03-07 00:04:00,
2013-03-06 19:05:00,38.7,28.3,29.97,North,9,9.0,12.0,66,0.00,,---,1.12,VWS V14.01,2013-03-07 00:05:00,
2013-03-06 19:06:00,38.7,28.3,29.97,North,11,5.0,13.0,66,0.00,,---,1.12,VWS V14.01,2013-03-07 00:06:00,
2013-03-06 19:07:00,38.7,28.3,29.97,North,10,15.0,15.0,66,0.00,,---,1.12,VWS V14.01,2013-03-07 00:07:00,
2013-03-06 19:08:00,38.7,28.0,29.97,North,355,14.0,16.0,65,0.00,,---,1.12,VWS V14.01,2013-03-07 00:08:00,
2013-03-06 19:09:00,38.6,28.6,29.97,North,360,12.0,14.0,67,0.00,,---,1.12,VWS V14.01,2013-03-07 00:09:00,
2013-03-06 19:10:00,38.9,28.1,29.97,North,351,9.0,9.0,65,0.00,,---,1.12,VWS V14.01,2013-03-07 00:10:00,
2013-03-06 19:11:00,38.9,28.1,29.97,NE,40,13.0,25.0,65,0.00,,---,1.12,VWS V14.01,2013-03-07 00:11:00,
2013-03-06 19:12:00,39.0,28.2,29.97,NNW,335,17.0,25.0,65,0.00,,---,1.12,VWS V14.01,2013-03-07 00:12:00,
2013-03-06 19:13:00,39.2,27.7,29.97,North,5,12.0,25.0,63,0.00,,---,1.12,VWS V14.01,2013-03-07 00:13:00,
2013-03-06 19:14:00,38.7,28.3,29.97,North,350,7.0,19.0,66,0.00,,---,1.12,VWS V14.01,2013-03-07 00:14:00,
2013-03-06 19:15:00,39.2,27.7,29.97,NNW,343,19.0,26.0,63,0.00,,---,1.12,VWS V14.01,2013-03-07 00:15:00,
2013-03-06 19:16:00,39.3,27.4,29.97,NNW,329,16.0,26.0,62,0.00,,---,1.12,VWS V14.01,2013-03-07 00:16:00,
2013-03-06 19:17:00,39.4,27.1,29.97,NW,317,9.0,26.0,61,0.00,,---,1.12,VWS V14.01,2013-03-07 00:17:00,
2013-03-06 19:18:00,39.6,27.7,29.97,North,349,9.0,26.0,62,0.00,,---,1.12,VWS V14.01,2013-03-07 00:18:00,
2013-03-06 19:19:00,38.9,28.1,29.97,North,5,9.0,17.0,65,0.00,,---,1.12,VWS V14.01,2013-03-07 00:19:00,
2013-03-06 19:20:00,39.6,27.3,29.97,NE,44,5.0,7.0,61,0.00,,---,1.12,VWS V14.01,2013-03-07 00:20:00,
2013-03-06 19:21:00,39.6,27.3,29.97,WNW,301,5.0,10.0,61,0.00,,---,1.12,VWS V14.01,2013-03-07 00:21:00,
2013-03-06 19:22:00,39.6,27.3,29.97,North,360,11.0,19.0,61,0.00,,---,1.12,VWS V14.01,2013-03-07 00:22:00,
2013-03-06 19:24:00,39.2,27.7,29.97,NNW,328,11.0,25.0,63,0.00,,---,1.12,VWS V14.01,2013-03-07 00:24:00,
2013-03-06 19:25:00,39.6,27.3,29.97,ENE,65,13.0,13.0,61,0.00,,---,1.12,VWS V14.01,2013-03-07 00:25:00,
2013-03-06 19:26:00,39.6,27.3,29.97,North,355,7.0,25.0,61,0.00,,---,1.12,VWS V14.01,2013-03-07 00:26:00,
2013-03-06 19:27:00,39.6,27.3,29.97,NNE,12,18.0,25.0,61,0.00,,---,1.12,VWS V14.01,2013-03-07 00:27:00,
2013-03-06 19:28:00,39.6,26.9,29.97,NNE,17,4.0,25.0,60,0.00,,---,1.12,VWS V14.01,2013-03-07 00:28:00,
2013-03-06 19:29:00,39.6,27.3,29.97,NNE,22,8.0,26.0,61,0.00,,---,1.12,VWS V14.01,2013-03-07 00:29:00,
2013-03-06 19:30:00,39.7,27.4,29.99,NNE,20,2.0,6.0,61,0.00,,---,1.12,VWS V14.01,2013-03-07 00:30:00,
2013-03-06 19:31:00,39.6,27.3,29.99,WNW,299,7.0,11.0,61,0.00,,---,1.12,VWS V14.01,2013-03-07 00:31:00,
2013-03-06 19:32:00,39.6,27.3,29.99,NNE,32,12.0,16.0,61,0.00,,---,1.12,VWS V14.01,2013-03-07 00:32:00,
2013-03-06 19:33:00,39.6,26.9,29.99,NW,313,7.0,16.0,60,0.00,,---,1.12,VWS V14.01,2013-03-07 00:33:00,
2013-03-06 19:34:00,39.6,27.3,29.97,ENE,65,13.0,13.0,61,0.00,,---,1.12,VWS V14.01,2013-03-07 00:34:00,
2013-03-06 19:35:00,39.6,26.9,29.99,NNE,25,6.0,13.0,60,0.00,,---,1.12,VWS V14.01,2013-03-07 00:35:00,
2013-03-06 19:36:00,39.6,27.3,29.99,North,355,6.0,13.0,61,0.00,,---,1.12,VWS V14.01,2013-03-07 00:36:00,
2013-03-06 19:37:00,39.6,27.3,29.99,NNW,344,7.0,13.0,61,0.00,,---,1.12,VWS V14.01,2013-03-07 00:37:00,
2013-03-06 19:38:00,39.6,27.3,29.99,North,5,8.0,13.0,61,0.00,,---,1.12,VWS V14.01,2013-03-07 00:38:00,
2013-03-06 19:39:00,39.7,27.4,29.99,NNE,20,2.0,6.0,61,0.00,,---,1.12,VWS V14.01,2013-03-07 00:39:00,
2013-03-06 19:40:00,39.6,27.3,29.99,NNE,28,13.0,15.0,61,0.00,,---,1.12,VWS V14.01,2013-03-07 00:40:00,
2013-03-06 19:41:00,39.6,27.3,29.99,NNW,338,7.0,15.0,61,0.00,,---,1.12,VWS V14.01,2013-03-07 00:41:00,
2013-03-06 19:42:00,39.4,27.5,29.99,North,11,6.0,15.0,62,0.00,,---,1.12,VWS V14.01,2013-03-07 00:42:00,
2013-03-06 19:43:00,39.4,27.1,29.99,NNW,344,7.0,15.0,61,0.00,,---,1.12,VWS V14.01,2013-03-07 00:43:00,
2013-03-06 19:44:00,39.6,26.9,29.99,NNE,20,6.0,13.0,60,0.00,,---,1.12,VWS V14.01,2013-03-07 00:44:00,
2013-03-06 19:45:00,39.4,27.5,29.99,NNW,344,9.0,9.0,62,0.00,,---,1.12,VWS V14.01,2013-03-07 00:45:00,
2013-03-06 19:46:00,39.3,27.4,29.99,North,10,16.0,21.0,62,0.00,,---,1.12,VWS V14.01,2013-03-07 00:46:00,
2013-03-06 19:47:00,39.3,27.0,29.99,NNE,28,9.0,21.0,61,0.00,,---,1.12,VWS V14.01,2013-03-07 00:47:00,
2013-03-06 19:48:00,39.3,27.0,29.99,NNE,24,4.0,21.0,61,0.00,,---,1.12,VWS V14.01,2013-03-07 00:48:00,
2013-03-06 19:49:00,39.6,27.3,29.99,NE,35,13.0,15.0,61,0.00,,---,1.12,VWS V14.01,2013-03-07 00:49:00,
2013-03-06 19:50:00,39.3,27.4,29.99,North,5,13.0,13.0,62,0.00,,---,1.12,VWS V14.01,2013-03-07 00:50:00,
2013-03-06 19:51:00,39.3,27.4,29.99,North,351,9.0,13.0,62,0.00,,---,1.12,VWS V14.01,2013-03-07 00:51:00,
2013-03-06 19:52:00,39.3,27.4,29.99,NNW,328,10.0,13.0,62,0.00,,---,1.12,VWS V14.01,2013-03-07 00:52:00,
2013-03-06 19:53:00,39.3,27.0,29.99,NNE,19,26.0,26.0,61,0.00,,---,1.12,VWS V14.01,2013-03-07 00:53:00,
2013-03-06 19:54:00,39.4,27.5,29.99,NNW,340,5.0,7.0,62,0.00,,---,1.12,VWS V14.01,2013-03-07 00:54:00,
2013-03-06 19:55:00,39.4,27.1,29.99,NW,323,10.0,12.0,61,0.00,,---,1.12,VWS V14.01,2013-03-07 00:55:00,
2013-03-06 19:56:00,39.4,27.1,29.99,North,355,4.0,12.0,61,0.00,,---,1.12,VWS V14.01,2013-03-07 00:56:00,
2013-03-06 19:57:00,39.4,27.1,29.99,North,5,10.0,12.0,61,0.00,,---,1.12,VWS V14.01,2013-03-07 00:57:00,
2013-03-06 19:58:00,39.3,27.0,29.99,NNE,19,20.0,29.0,61,0.00,,---,1.12,VWS V14.01,2013-03-07 00:58:00,
2013-03-06 19:59:00,39.3,27.4,29.99,NE,41,12.0,12.0,62,0.00,,---,1.12,VWS V14.01,2013-03-07 00:59:00,
2013-03-06 20:00:00,39.3,27.0,29.99,NNW,348,5.0,9.0,61,0.00,,---,1.12,VWS V14.01,2013-03-07 01:00:00,
2013-03-06 20:01:00,39.3,27.0,29.99,North,9,16.0,18.0,61,0.00,,---,1.12,VWS V14.01,2013-03-07 01:01:00,
2013-03-06 20:02:00,39.3,26.6,29.99,North,351,15.0,21.0,60,0.00,,---,1.12,VWS V14.01,2013-03-07 01:02:00,
2013-03-06 20:03:00,39.4,26.7,29.99,North,360,11.0,21.0,60,0.00,,---,1.12,VWS V14.01,2013-03-07 01:03:00,
2013-03-06 20:04:00,39.4,26.7,29.99,NNW,336,14.0,21.0,60,0.00,,---,1.12,VWS V14.01,2013-03-07 01:04:00,
2013-03-06 20:05:00,39.4,27.1,29.99,NW,309,2.0,12.0,61,0.00,,---,1.12,VWS V14.01,2013-03-07 01:05:00,
2013-03-06 20:06:00,39.6,26.9,29.99,NNE,28,5.0,8.0,60,0.00,,---,1.12,VWS V14.01,2013-03-07 01:06:00,
2013-03-06 20:07:00,39.4,26.7,29.99,North,355,16.0,17.0,60,0.00,,---,1.12,VWS V14.01,2013-03-07 01:07:00,
2013-03-06 20:08:00,39.4,26.7,29.99,North,5,11.0,24.0,60,0.00,,---,1.12,VWS V14.01,2013-03-07 01:08:00,
2013-03-06 20:09:00,39.4,26.7,29.99,NNW,348,7.0,24.0,60,0.00,,---,1.12,VWS V14.01,2013-03-07 01:09:00,
2013-03-06 20:10:00,39.3,27.0,29.99,NNE,19,10.0,14.0,61,0.00,,---,1.12,VWS V14.01,2013-03-07 01:10:00,
2013-03-06 20:11:00,39.4,26.7,29.99,North,355,4.0,11.0,60,0.00,,---,1.12,VWS V14.01,2013-03-07 01:11:00,
2013-03-06 20:12:00,39.4,26.7,29.99,NE,42,3.0,11.0,60,0.00,,---,1.12,VWS V14.01,2013-03-07 01:12:00,
2013-03-06 20:13:00,39.4,26.7,29.99,NW,311,10.0,14.0,60,0.00,,---,1.12,VWS V14.01,2013-03-07 01:13:00,
2013-03-06 20:14:00,39.4,26.7,29.99,NE,53,12.0,18.0,60,0.00,,---,1.12,VWS V14.01,2013-03-07 01:14:00,
2013-03-06 20:15:00,39.6,26.9,29.99,North,9,4.0,8.0,60,0.00,,---,1.12,VWS V14.01,2013-03-07 01:15:00,
2013-03-06 20:16:00,39.4,26.7,29.99,NNE,18,11.0,16.0,60,0.00,,---,1.12,VWS V14.01,2013-03-07 01:16:00,
2013-03-06 20:17:00,39.4,26.7,29.99,WNW,296,5.0,16.0,60,0.00,,---,1.12,VWS V14.01,2013-03-07 01:17:00,
2013-03-06 20:18:00,39.4,26.7,29.99,North,350,8.0,16.0,60,0.00,,---,1.12,VWS V14.01,2013-03-07 01:18:00,
2013-03-06 20:19:00,39.4,26.7,29.99,North,360,10.0,16.0,60,0.00,,---,1.12,VWS V14.01,2013-03-07 01:19:00,
2013-03-06 20:20:00,39.4,26.7,29.99,North,355,4.0,11.0,60,0.00,,---,1.12,VWS V14.01,2013-03-07 01:20:00,
2013-03-06 20:21:00,39.4,26.7,29.99,NNE,19,5.0,7.0,60,0.00,,---,1.12,VWS V14.01,2013-03-07 01:21:00,
2013-03-06 20:22:00,39.4,26.7,29.99,NNE,22,6.0,7.0,60,0.00,,---,1.12,VWS V14.01,2013-03-07 01:22:00,
2013-03-06 20:23:00,39.3,26.6,29.99,NNE,32,3.0,7.0,60,0.00,,---,1.12,VWS V14.01,2013-03-07 01:23:00,
2013-03-06 20:24:00,39.3,26.6,29.99,NE,37,5.0,7.0,60,0.00,,---,1.12,VWS V14.01,2013-03-07 01:24:00,
2013-03-06 20:25:00,39.4,26.7,29.99,NE,42,11.0,16.0,60,0.00,,---,1.12,VWS V14.01,2013-03-07 01:25:00,
2013-03-06 20:26:00,39.3,26.6,29.99,North,350,4.0,13.0,60,0.00,,---,1.12,VWS V14.01,2013-03-07 01:26:00,
2013-03-06 20:27:00,39.3,26.6,29.99,ENE,61,6.0,13.0,60,0.00,,---,1.12,VWS V14.01,2013-03-07 01:27:00,
2013-03-06 20:28:00,39.3,26.6,29.99,NW,314,10.0,19.0,60,0.00,,---,1.12,VWS V14.01,2013-03-07 01:28:00,
2013-03-06 20:29:00,39.4,26.3,30.00,NE,47,9.0,19.0,59,0.00,,---,1.12,VWS V14.01,2013-03-07 01:29:00,
2013-03-06 20:30:00,39.4,26.7,29.99,NNE,23,5.0,7.0,60,0.00,,---,1.12,VWS V14.01,2013-03-07 01:30:00,
2013-03-06 20:31:00,39.4,26.7,30.00,NNE,26,3.0,10.0,60,0.00,,---,1.12,VWS V14.01,2013-03-07 01:31:00,
2013-03-06 20:32:00,39.4,26.7,30.00,NNE,26,1.0,10.0,60,0.00,,---,1.12,VWS V14.01,2013-03-07 01:32:00,
2013-03-06 20:33:00,39.4,26.7,30.00,NNE,25,5.0,10.0,60,0.00,,---,1.12,VWS V14.01,2013-03-07 01:33:00,
2013-03-06 20:34:00,39.4,26.7,30.00,NNW,342,5.0,10.0,60,0.00,,---,1.12,VWS V14.01,2013-03-07 01:34:00,
2013-03-06 20:35:00,39.3,26.6,29.99,North,9,11.0,13.0,60,0.00,,---,1.12,VWS V14.01,2013-03-07 01:35:00,
2013-03-06 20:36:00,39.3,26.6,30.00,NE,42,8.0,15.0,60,0.00,,---,1.12,VWS V14.01,2013-03-07 01:36:00,
2013-03-06 20:37:00,39.3,26.6,30.00,North,5,6.0,15.0,60,0.00,,---,1.12,VWS V14.01,2013-03-07 01:37:00,
2013-03-06 20:38:00,39.3,27.0,30.00,NNE,19,6.0,15.0,61,0.00,,---,1.12,VWS V14.01,2013-03-07 01:38:00,
2013-03-06 20:39:00,39.3,26.6,30.00,NNW,340,4.0,15.0,60,0.00,,---,1.12,VWS V14.01,2013-03-07 01:39:00,
2013-03-06 20:40:00,39.4,26.7,30.00,NNE,19,5.0,10.0,60,0.00,,---,1.12,VWS V14.01,2013-03-07 01:40:00,
2013-03-06 20:41:00,39.3,27.0,30.00,NNW,340,1.0,4.0,61,0.00,,---,1.12,VWS V14.01,2013-03-07 01:41:00,
2013-03-06 20:42:00,39.3,27.0,30.00,North,355,7.0,7.0,61,0.00,,---,1.12,VWS V14.01,2013-03-07 01:42:00,
2013-03-06 20:43:00,39.2,26.9,30.00,NNE,31,7.0,10.0,61,0.00,,---,1.12,VWS V14.01,2013-03-07 01:43:00,
2013-03-06 20:44:00,39.2,26.5,30.00,NNE,29,5.0,10.0,60,0.00,,---,1.12,VWS V14.01,2013-03-07 01:44:00,
2013-03-06 20:45:00,39.3,26.6,30.00,NNE,13,7.0,15.0,60,0.00,,---,1.12,VWS V14.01,2013-03-07 01:45:00,
2013-03-06 20:46:00,39.2,26.9,30.00,NNE,20,4.0,7.0,61,0.00,,---,1.12,VWS V14.01,2013-03-07 01:46:00,
2013-03-06 20:47:00,39.2,26.5,30.00,North,9,5.0,7.0,60,0.00,,---,1.12,VWS V14.01,2013-03-07 01:47:00,
2013-03-06 20:48:00,39.2,26.9,30.00,NNE,21,3.0,7.0,61,0.00,,---,1.12,VWS V14.01,2013-03-07 01:48:00,
2013-03-06 20:49:00,39.2,26.5,30.00,North,355,6.0,15.0,60,0.00,,---,1.12,VWS V14.01,2013-03-07 01:49:00,
2013-03-06 20:50:00,39.3,27.0,30.00,NNW,340,0.0,4.0,61,0.00,,---,1.12,VWS V14.01,2013-03-07 01:50:00,
2013-03-06 20:51:00,39.2,26.5,30.00,NE,39,4.0,6.0,60,0.00,,---,1.12,VWS V14.01,2013-03-07 01:51:00,
2013-03-06 20:52:00,39.2,26.9,30.00,NNE,12,7.0,9.0,61,0.00,,---,1.12,VWS V14.01,2013-03-07 01:52:00,
2013-03-06 20:53:00,39.2,26.5,30.00,NE,42,7.0,11.0,60,0.00,,---,1.12,VWS V14.01,2013-03-07 01:53:00,
2013-03-06 20:54:00,39.2,26.9,30.00,NNE,12,2.0,11.0,61,0.00,,---,1.12,VWS V14.01,2013-03-07 01:54:00,
2013-03-06 20:55:00,39.2,26.9,30.00,NNE,21,6.0,7.0,61,0.00,,---,1.12,VWS V14.01,2013-03-07 01:55:00,
2013-03-06 20:56:00,39.2,26.9,30.00,NE,36,4.0,5.0,61,0.00,,---,1.12,VWS V14.01,2013-03-07 01:56:00,
2013-03-06 20:57:00,39.2,26.9,30.00,NE,37,2.0,5.0,61,0.00,,---,1.12,VWS V14.01,2013-03-07 01:57:00,
2013-03-06 20:58:00,39.2,27.3,30.00,North,5,5.0,5.0,62,0.00,,---,1.12,VWS V14.01,2013-03-07 01:58:00,
2013-03-06 20:59:00,39.2,27.3,30.01,North,9,2.0,5.0,62,0.00,,---,1.12,VWS V14.01,2013-03-07 01:59:00,
2013-03-06 21:00:00,39.2,26.9,30.00,NE,46,6.0,6.0,61,0.00,,---,1.12,VWS V14.01,2013-03-07 02:00:00,
2013-03-06 21:01:00,39.0,26.7,30.01,NW,325,7.0,7.0,61,0.00,,---,1.12,VWS V14.01,2013-03-07 02:01:00,
2013-03-06 21:02:00,39.0,26.7,30.01,NNW,340,6.0,7.0,61,0.00,,---,1.12,VWS V14.01,2013-03-07 02:02:00,
2013-03-06 21:03:00,39.0,26.7,30.01,NNW,345,5.0,7.0,61,0.00,,---,1.12,VWS V14.01,2013-03-07 02:03:00,
2013-03-06 21:04:00,39.0,27.1,30.01,NNW,341,4.0,7.0,62,0.00,,---,1.12,VWS V14.01,2013-03-07 02:04:00,
2013-03-06 21:05:00,39.2,26.9,30.00,NE,36,3.0,5.0,61,0.00,,---,1.12,VWS V14.01,2013-03-07 02:05:00,
2013-03-06 21:06:00,39.0,27.1,30.01,North,360,9.0,12.0,62,0.00,,---,1.12,VWS V14.01,2013-03-07 02:06:00,
2013-03-06 21:07:00,38.9,26.6,30.01,NNW,345,7.0,12.0,61,0.00,,---,1.12,VWS V14.01,2013-03-07 02:07:00,
2013-03-06 21:08:00,39.0,26.3,30.01,NNW,336,10.0,13.0,60,0.00,,---,1.12,VWS V14.01,2013-03-07 02:08:00,
2013-03-06 21:09:00,39.0,26.3,30.01,North,5,3.0,13.0,60,0.00,,---,1.12,VWS V14.01,2013-03-07 02:09:00,
2013-03-06 21:10:00,39.0,27.1,30.01,North,5,5.0,7.0,62,0.00,,---,1.12,VWS V14.01,2013-03-07 02:10:00,
2013-03-06 21:11:00,39.0,26.3,30.01,North,355,4.0,11.0,60,0.00,,---,1.12,VWS V14.01,2013-03-07 02:11:00,
2013-03-06 21:12:00,39.0,26.3,30.01,NNW,341,6.0,11.0,60,0.00,,---,1.12,VWS V14.01,2013-03-07 02:12:00,
2013-03-06 21:13:00,39.2,26.5,30.01,NNE,24,9.0,11.0,60,0.00,,---,1.12,VWS V14.01,2013-03-07 02:13:00,
2013-03-06 21:14:00,39.2,26.5,30.02,North,350,7.0,12.0,60,0.00,,---,1.12,VWS V14.01,2013-03-07 02:14:00,
2013-03-06 21:15:00,39.0,26.7,30.01,NNW,338,6.0,6.0,61,0.00,,---,1.12,VWS V14.01,2013-03-07 02:15:00,
2013-03-06 21:16:00,39.2,26.5,30.02,NE,41,6.0,11.0,60,0.00,,---,1.12,VWS V14.01,2013-03-07 02:16:00,
2013-03-06 21:17:00,39.2,26.5,30.02,NNE,26,5.0,11.0,60,0.00,,---,1.12,VWS V14.01,2013-03-07 02:17:00,
2013-03-06 21:18:00,39.3,26.6,30.02,NW,322,4.0,11.0,60,0.00,,---,1.12,VWS V14.01,2013-03-07 02:18:00,
2013-03-06 21:19:00,39.3,26.6,30.02,NNE,28,6.0,11.0,60,0.00,,---,1.12,VWS V14.01,2013-03-07 02:19:00,
2013-03-06 21:20:00,39.0,26.3,30.01,NNE,32,10.0,11.0,60,0.00,,---,1.12,VWS V14.01,2013-03-07 02:20:00,
2013-03-06 21:21:00,39.3,26.6,30.02,NNW,336,3.0,10.0,60,0.00,,---,1.12,VWS V14.01,2013-03-07 02:21:00,
2013-03-06 21:22:00,39.2,26.5,30.02,NNW,335,1.0,10.0,60,0.00,,---,1.12,VWS V14.01,2013-03-07 02:22:00,
2013-03-06 21:23:00,39.2,26.5,30.02,WNW,288,3.0,10.0,60,0.00,,---,1.12,VWS V14.01,2013-03-07 02:23:00,
2013-03-06 21:24:00,39.2,26.5,30.02,North,355,11.0,11.0,60,0.00,,---,1.12,VWS V14.01,2013-03-07 02:24:00,
2013-03-06 21:25:00,39.2,26.5,30.02,NNE,32,6.0,11.0,60,0.00,,---,1.12,VWS V14.01,2013-03-07 02:25:00,
2013-03-06 21:26:00,39.2,26.5,30.02,NNE,21,6.0,10.0,60,0.00,,---,1.12,VWS V14.01,2013-03-07 02:26:00,
2013-03-06 21:27:00,39.2,26.5,30.02,NNE,20,4.0,10.0,60,0.00,,---,1.12,VWS V14.01,2013-03-07 02:27:00,
2013-03-06 21:28:00,39.2,26.5,30.02,NW,308,4.0,10.0,60,0.00,,---,1.12,VWS V14.01,2013-03-07 02:28:00,
2013-03-06 21:29:00,39.2,26.5,30.02,NNW,336,3.0,10.0,60,0.00,,---,1.12,VWS V14.01,2013-03-07 02:29:00,
2013-03-06 21:30:00,39.3,26.6,30.02,NNW,344,7.0,10.0,60,0.00,,---,1.12,VWS V14.01,2013-03-07 02:30:00,
2013-03-06 21:31:00,39.2,26.5,30.02,NNW,334,6.0,9.0,60,0.00,,---,1.12,VWS V14.01,2013-03-07 02:31:00,
2013-03-06 21:32:00,39.2,26.5,30.02,North,355,5.0,9.0,60,0.00,,---,1.12,VWS V14.01,2013-03-07 02:32:00,
2013-03-06 21:33:00,39.2,26.5,30.02,NW,311,4.0,9.0,60,0.00,,---,1.12,VWS V14.01,2013-03-07 02:33:00,
2013-03-06 21:34:00,39.2,26.5,30.02,NW,311,4.0,9.0,60,0.00,,---,1.12,VWS V14.01,2013-03-07 02:34:00,
2013-03-06 21:35:00,39.2,26.5,30.02,NNW,344,7.0,10.0,60,0.00,,---,1.12,VWS V14.01,2013-03-07 02:35:00,
2013-03-06 21:36:00,39.2,26.5,30.02,NW,325,2.0,5.0,60,0.00,,---,1.12,VWS V14.01,2013-03-07 02:36:00,
2013-03-06 21:37:00,39.2,26.9,30.02,NNW,348,5.0,10.0,61,0.00,,---,1.12,VWS V14.01,2013-03-07 02:37:00,
2013-03-06 21:38:00,39.0,26.7,30.02,NNW,327,3.0,10.0,61,0.00,,---,1.12,VWS V14.01,2013-03-07 02:38:00,
2013-03-06 21:39:00,39.0,26.7,30.02,NNW,328,2.0,10.0,61,0.00,,---,1.12,VWS V14.01,2013-03-07 02:39:00,
2013-03-06 21:40:00,39.2,26.5,30.02,North,355,5.0,9.0,60,0.00,,---,1.12,VWS V14.01,2013-03-07 02:40:00,
2013-03-06 21:41:00,39.0,26.7,30.02,NNW,328,0.0,2.0,61,0.00,,---,1.12,VWS V14.01,2013-03-07 02:41:00,
2013-03-06 21:42:00,38.9,26.6,30.02,NNW,328,0.0,2.0,61,0.00,,---,1.12,VWS V14.01,2013-03-07 02:42:00,
2013-03-06 21:43:00,38.9,26.6,30.02,NNW,328,0.0,2.0,61,0.00,,---,1.12,VWS V14.01,2013-03-07 02:43:00,
2013-03-06 21:44:00,38.9,26.6,30.03,NNW,329,1.0,2.0,61,0.00,,---,1.12,VWS V14.01,2013-03-07 02:44:00,
2013-03-06 21:45:00,39.2,26.5,30.02,NW,325,3.0,5.0,60,0.00,,---,1.12,VWS V14.01,2013-03-07 02:45:00,
2013-03-06 21:46:00,38.9,26.6,30.03,NNW,329,1.0,1.0,61,0.00,,---,1.12,VWS V14.01,2013-03-07 02:46:00,
2013-03-06 21:47:00,38.9,26.6,30.03,NNW,329,0.0,2.0,61,0.00,,---,1.12,VWS V14.01,2013-03-07 02:47:00,
2013-03-06 21:48:00,38.9,26.6,30.03,NNW,329,0.0,2.0,61,0.00,,---,1.12,VWS V14.01,2013-03-07 02:48:00,
2013-03-06 21:49:00,38.7,26.4,30.03,NNW,329,0.0,2.0,61,0.00,,---,1.12,VWS V14.01,2013-03-07 02:49:00,
2013-03-06 21:50:00,39.0,26.7,30.02,NNW,328,0.0,2.0,61,0.00,,---,1.12,VWS V14.01,2013-03-07 02:50:00,
2013-03-06 21:51:00,38.7,26.8,30.03,NNW,329,1.0,1.0,62,0.00,,---,1.12,VWS V14.01,2013-03-07 02:51:00,
2013-03-06 21:52:00,38.7,26.8,30.03,NNW,329,3.0,3.0,62,0.00,,---,1.12,VWS V14.01,2013-03-07 02:52:00,
2013-03-06 21:53:00,38.7,27.2,30.03,NNW,329,2.0,4.0,63,0.00,,---,1.12,VWS V14.01,2013-03-07 02:53:00,
2013-03-06 21:54:00,38.6,27.1,30.03,NNW,329,0.0,4.0,63,0.00,,---,1.12,VWS V14.01,2013-03-07 02:54:00,
2013-03-06 21:55:00,38.9,26.6,30.03,NNW,329,1.0,1.0,61,0.00,,---,1.12,VWS V14.01,2013-03-07 02:55:00,
2013-03-06 21:56:00,38.6,27.1,30.03,NNW,329,0.0,2.0,63,0.00,,---,1.12,VWS V14.01,2013-03-07 02:56:00,
2013-03-06 21:57:00,38.4,27.3,30.03,NNW,329,0.0,2.0,64,0.00,,---,1.12,VWS V14.01,2013-03-07 02:57:00,
2013-03-06 21:58:00,38.4,26.9,30.03,NNW,344,7.0,9.0,63,0.00,,---,1.12,VWS V14.01,2013-03-07 02:58:00,
2013-03-06 21:59:00,38.3,26.4,30.03,NE,56,5.0,9.0,62,0.00,,---,1.12,VWS V14.01,2013-03-07 02:59:00,
2013-03-06 22:00:00,38.7,26.8,30.03,NNW,329,0.0,0.0,62,0.00,,---,1.12,VWS V14.01,2013-03-07 03:00:00,
2013-03-06 22:01:00,38.2,26.7,30.03,NNW,348,6.0,6.0,63,0.00,,---,1.12,VWS V14.01,2013-03-07 03:01:00,
2013-03-06 22:02:00,38.2,26.7,30.03,NNE,13,6.0,6.0,63,0.00,,---,1.12,VWS V14.01,2013-03-07 03:02:00,
2013-03-06 22:03:00,38.2,26.3,30.03,NNW,336,12.0,19.0,62,0.00,,---,1.12,VWS V14.01,2013-03-07 03:03:00,
2013-03-06 22:04:00,38.3,26.0,30.03,NNW,327,14.0,19.0,61,0.00,,---,1.12,VWS V14.01,2013-03-07 03:04:00,
2013-03-06 22:05:00,38.6,27.1,30.03,NNW,329,0.0,2.0,63,0.00,,---,1.12,VWS V14.01,2013-03-07 03:05:00,
2013-03-06 22:06:00,38.4,26.1,30.03,NNW,335,1.0,14.0,61,0.00,,---,1.12,VWS V14.01,2013-03-07 03:06:00,
2013-03-06 22:07:00,38.4,26.1,30.03,NW,321,5.0,14.0,61,0.00,,---,1.12,VWS V14.01,2013-03-07 03:07:00,
2013-03-06 22:08:00,38.6,26.3,30.03,NNE,15,5.0,14.0,61,0.00,,---,1.12,VWS V14.01,2013-03-07 03:08:00,
2013-03-06 22:09:00,38.6,25.9,30.03,NNE,16,5.0,14.0,60,0.00,,---,1.12,VWS V14.01,2013-03-07 03:09:00,
2013-03-06 22:10:00,38.3,26.8,30.03,NW,307,5.0,5.0,63,0.00,,---,1.12,VWS V14.01,2013-03-07 03:10:00,
2013-03-06 22:11:00,38.6,25.9,30.03,WNW,286,6.0,6.0,60,0.00,,---,1.12,VWS V14.01,2013-03-07 03:11:00,
2013-03-06 22:12:00,38.7,26.0,30.03,WNW,294,2.0,6.0,60,0.00,,---,1.12,VWS V14.01,2013-03-07 03:12:00,
2013-03-06 22:13:00,38.7,26.4,30.03,NNE,20,3.0,6.0,61,0.00,,---,1.12,VWS V14.01,2013-03-07 03:13:00,
2013-03-06 22:14:00,38.7,26.4,30.03,NNW,331,6.0,6.0,61,0.00,,---,1.12,VWS V14.01,2013-03-07 03:14:00,
2013-03-06 22:15:00,38.4,26.1,30.03,NW,314,5.0,14.0,61,0.00,,---,1.12,VWS V14.01,2013-03-07 03:15:00,
2013-03-06 22:16:00,38.7,26.0,30.03,NNW,342,14.0,14.0,60,0.00,,---,1.12,VWS V14.01,2013-03-07 03:16:00,
2013-03-06 22:17:00,38.7,25.6,30.03,North,355,9.0,14.0,59,0.00,,---,1.12,VWS V14.01,2013-03-07 03:17:00,
2013-03-06 22:18:00,38.7,25.6,30.03,NNE,17,10.0,14.0,59,0.00,,---,1.12,VWS V14.01,2013-03-07 03:18:00,
2013-03-06 22:19:00,38.7,25.6,30.03,NNE,19,4.0,14.0,59,0.00,,---,1.12,VWS V14.01,2013-03-07 03:19:00,
2013-03-06 22:20:00,38.6,25.9,30.03,NW,312,4.0,5.0,60,0.00,,---,1.12,VWS V14.01,2013-03-07 03:20:00,
2013-03-06 22:21:00,38.9,25.8,30.03,North,355,7.0,7.0,59,0.00,,---,1.12,VWS V14.01,2013-03-07 03:21:00,
2013-03-06 22:22:00,38.9,25.4,30.03,NNW,334,9.0,13.0,58,0.00,,---,1.12,VWS V14.01,2013-03-07 03:22:00,
2013-03-06 22:23:00,39.0,25.5,30.03,NNW,339,5.0,13.0,58,0.00,,---,1.12,VWS V14.01,2013-03-07 03:23:00,
2013-03-06 22:24:00,39.0,25.9,30.03,North,9,10.0,13.0,59,0.00,,---,1.12,VWS V14.01,2013-03-07 03:24:00,
2013-03-06 22:25:00,38.7,26.0,30.03,NE,41,4.0,10.0,60,0.00,,---,1.12,VWS V14.01,2013-03-07 03:25:00,
2013-03-06 22:26:00,39.0,25.5,30.03,NE,38,4.0,13.0,58,0.00,,---,1.12,VWS V14.01,2013-03-07 03:26:00,
2013-03-06 22:27:00,39.0,25.5,30.03,NNE,17,6.0,13.0,58,0.00,,---,1.12,VWS V14.01,2013-03-07 03:27:00,
2013-03-06 22:28:00,39.0,25.9,30.03,NNE,19,7.0,13.0,59,0.00,,---,1.12,VWS V14.01,2013-03-07 03:28:00,
2013-03-06 22:29:00,39.0,25.9,30.03,NNW,332,10.0,13.0,59,0.00,,---,1.12,VWS V14.01,2013-03-07 03:29:00,
2013-03-06 22:30:00,38.9,25.8,30.03,East,80,6.0,6.0,59,0.00,,---,1.12,VWS V14.01,2013-03-07 03:30:00,
2013-03-06 22:31:00,39.2,26.1,30.03,NNE,23,1.0,13.0,59,0.00,,---,1.12,VWS V14.01,2013-03-07 03:31:00,
2013-03-06 22:32:00,39.2,26.1,30.03,North,360,5.0,13.0,59,0.00,,---,1.12,VWS V14.01,2013-03-07 03:32:00,
2013-03-06 22:33:00,39.0,25.9,30.03,NW,315,0.0,13.0,59,0.00,,---,1.12,VWS V14.01,2013-03-07 03:33:00,
2013-03-06 22:34:00,39.0,25.9,30.03,WNW,301,2.0,13.0,59,0.00,,---,1.12,VWS V14.01,2013-03-07 03:34:00,
2013-03-06 22:35:00,39.0,25.5,30.03,NNE,24,5.0,13.0,58,0.00,,---,1.12,VWS V14.01,2013-03-07 03:35:00,
2013-03-06 22:36:00,39.0,26.3,30.03,NNE,13,4.0,6.0,60,0.00,,---,1.12,VWS V14.01,2013-03-07 03:36:00,
2013-03-06 22:37:00,39.0,26.3,30.03,NNW,348,0.0,6.0,60,0.00,,---,1.12,VWS V14.01,2013-03-07 03:37:00,
2013-03-06 22:38:00,39.0,26.3,30.03,North,9,2.0,6.0,60,0.00,,---,1.12,VWS V14.01,2013-03-07 03:38:00,
2013-03-06 22:39:00,38.9,26.2,30.03,NNW,333,5.0,7.0,60,0.00,,---,1.12,VWS V14.01,2013-03-07 03:39:00,
2013-03-06 22:40:00,39.2,26.1,30.03,NNE,20,5.0,13.0,59,0.00,,---,1.12,VWS V14.01,2013-03-07 03:40:00,
2013-03-06 22:41:00,38.9,26.2,30.03,NNE,17,6.0,10.0,60,0.00,,---,1.12,VWS V14.01,2013-03-07 03:41:00,
2013-03-06 22:42:00,38.9,26.2,30.03,NE,46,13.0,13.0,60,0.00,,---,1.12,VWS V14.01,2013-03-07 03:42:00,
2013-03-06 22:43:00,38.9,26.2,30.03,NE,45,9.0,13.0,60,0.00,,---,1.12,VWS V14.01,2013-03-07 03:43:00,
2013-03-06 22:44:00,38.9,26.2,30.03,NNE,26,13.0,16.0,60,0.00,,---,1.12,VWS V14.01,2013-03-07 03:44:00,
2013-03-06 22:45:00,39.0,26.3,30.03,NNE,29,4.0,6.0,60,0.00,,---,1.12,VWS V14.01,2013-03-07 03:45:00,
2013-03-06 22:46:00,38.7,26.4,30.03,NNE,14,9.0,14.0,61,0.00,,---,1.12,VWS V14.01,2013-03-07 03:46:00,
2013-03-06 22:47:00,38.7,26.4,30.03,NE,42,4.0,14.0,61,0.00,,---,1.12,VWS V14.01,2013-03-07 03:47:00,
2013-03-06 22:48:00,38.7,26.4,30.03,NE,41,6.0,14.0,61,0.00,,---,1.12,VWS V14.01,2013-03-07 03:48:00,
2013-03-06 22:49:00,38.6,26.3,30.03,NE,44,6.0,14.0,61,0.00,,---,1.12,VWS V14.01,2013-03-07 03:49:00,
2013-03-06 22:50:00,38.9,26.2,30.03,NE,44,10.0,10.0,60,0.00,,---,1.12,VWS V14.01,2013-03-07 03:50:00,
2013-03-06 22:51:00,38.6,25.9,30.03,NE,40,5.0,13.0,60,0.00,,---,1.12,VWS V14.01,2013-03-07 03:51:00,
2013-03-06 22:52:00,38.6,25.9,30.03,NE,50,6.0,13.0,60,0.00,,---,1.12,VWS V14.01,2013-03-07 03:52:00,
2013-03-06 22:53:00,38.6,26.3,30.03,ENE,59,9.0,13.0,61,0.00,,---,1.12,VWS V14.01,2013-03-07 03:53:00,
2013-03-06 22:54:00,38.6,25.9,30.03,East,79,4.0,13.0,60,0.00,,---,1.12,VWS V14.01,2013-03-07 03:54:00,
2013-03-06 22:55:00,38.7,26.4,30.03,NE,39,10.0,14.0,61,0.00,,---,1.12,VWS V14.01,2013-03-07 03:55:00,
2013-03-06 22:56:00,38.6,26.3,30.03,NE,51,4.0,12.0,61,0.00,,---,1.12,VWS V14.01,2013-03-07 03:56:00,
2013-03-06 22:57:00,38.6,26.3,30.03,NE,53,8.0,12.0,61,0.00,,---,1.12,VWS V14.01,2013-03-07 03:57:00,
2013-03-06 22:58:00,38.6,26.3,30.03,NE,53,4.0,12.0,61,0.00,,---,1.12,VWS V14.01,2013-03-07 03:58:00,
2013-03-06 22:59:00,38.6,26.3,30.03,NE,34,5.0,12.0,61,0.00,,---,1.12,VWS V14.01,2013-03-07 03:59:00,
2013-03-06 23:00:00,38.6,26.3,30.03,NE,52,7.0,13.0,61,0.00,,---,1.12,VWS V14.01,2013-03-07 04:00:00,
2013-03-06 23:01:00,38.6,26.3,30.03,NNE,15,17.0,19.0,61,0.00,,---,1.12,VWS V14.01,2013-03-07 04:01:00,
2013-03-06 23:02:00,38.6,26.3,30.03,NNE,28,11.0,19.0,61,0.00,,---,1.12,VWS V14.01,2013-03-07 04:02:00,
2013-03-06 23:03:00,38.6,25.9,30.03,ENE,74,13.0,19.0,60,0.00,,---,1.12,VWS V14.01,2013-03-07 04:03:00,
2013-03-06 23:04:00,38.6,26.3,30.03,NE,36,14.0,19.0,61,0.00,,---,1.12,VWS V14.01,2013-03-07 04:04:00,
2013-03-06 23:05:00,38.6,26.3,30.03,NNE,31,10.0,12.0,61,0.00,,---,1.12,VWS V14.01,2013-03-07 04:05:00,
2013-03-06 23:06:00,38.7,26.0,30.03,NNE,24,3.0,11.0,60,0.00,,---,1.12,VWS V14.01,2013-03-07 04:06:00,
2013-03-06 23:07:00,38.7,25.6,30.03,NE,49,12.0,15.0,59,0.00,,---,1.12,VWS V14.01,2013-03-07 04:07:00,
2013-03-06 23:08:00,38.9,25.8,30.03,NNE,29,3.0,15.0,59,0.00,,---,1.12,VWS V14.01,2013-03-07 04:08:00,
2013-03-06 23:09:00,38.9,25.8,30.03,NW,311,5.0,15.0,59,0.00,,---,1.12,VWS V14.01,2013-03-07 04:09:00,
2013-03-06 23:10:00,38.6,26.3,30.03,NNE,19,9.0,9.0,61,0.00,,---,1.12,VWS V14.01,2013-03-07 04:10:00,
2013-03-06 23:11:00,38.9,26.2,30.03,North,5,4.0,5.0,60,0.00,,---,1.12,VWS V14.01,2013-03-07 04:11:00,
2013-03-06 23:12:00,38.9,26.2,30.03,NE,34,1.0,5.0,60,0.00,,---,1.12,VWS V14.01,2013-03-07 04:12:00,
2013-03-06 23:13:00,38.9,26.2,30.03,NE,47,0.0,5.0,60,0.00,,---,1.12,VWS V14.01,2013-03-07 04:13:00,
2013-03-06 23:14:00,38.9,26.2,30.03,NE,44,3.0,5.0,60,0.00,,---,1.12,VWS V14.01,2013-03-07 04:14:00,
2013-03-06 23:15:00,38.7,26.0,30.03,NNE,19,5.0,11.0,60,0.00,,---,1.12,VWS V14.01,2013-03-07 04:15:00,
2013-03-06 23:16:00,38.7,26.0,30.03,WNW,294,1.0,13.0,60,0.00,,---,1.12,VWS V14.01,2013-03-07 04:16:00,
2013-03-06 23:17:00,38.7,26.4,30.03,NNE,33,6.0,13.0,61,0.00,,---,1.12,VWS V14.01,2013-03-07 04:17:00,
2013-03-06 23:18:00,38.7,26.0,30.03,North,360,6.0,13.0,60,0.00,,---,1.12,VWS V14.01,2013-03-07 04:18:00,
2013-03-06 23:19:00,38.7,26.0,30.03,WNW,294,4.0,13.0,60,0.00,,---,1.12,VWS V14.01,2013-03-07 04:19:00,
2013-03-06 23:20:00,38.9,25.8,30.03,NW,315,0.0,3.0,59,0.00,,---,1.12,VWS V14.01,2013-03-07 04:20:00,
2013-03-06 23:21:00,38.7,26.0,30.03,NNW,329,5.0,9.0,60,0.00,,---,1.12,VWS V14.01,2013-03-07 04:21:00,
2013-03-06 23:22:00,38.7,26.4,30.03,NW,313,4.0,9.0,61,0.00,,---,1.12,VWS V14.01,2013-03-07 04:22:00,
2013-03-06 23:23:00,38.7,26.4,30.03,NW,315,1.0,9.0,61,0.00,,---,1.12,VWS V14.01,2013-03-07 04:23:00,
2013-03-06 23:24:00,38.6,26.3,30.03,NE,56,5.0,10.0,61,0.00,,---,1.12,VWS V14.01,2013-03-07 04:24:00,
2013-03-06 23:25:00,38.9,26.2,30.03,WNW,297,3.0,13.0,60,0.00,,---,1.12,VWS V14.01,2013-03-07 04:25:00,
2013-03-06 23:26:00,38.7,25.6,30.03,North,11,2.0,18.0,59,0.00,,---,1.12,VWS V14.01,2013-03-07 04:26:00,
2013-03-06 23:27:00,38.7,25.6,30.03,NW,311,4.0,18.0,59,0.00,,---,1.12,VWS V14.01,2013-03-07 04:27:00,
2013-03-06 23:28:00,38.7,26.0,30.03,NW,315,4.0,18.0,60,0.00,,---,1.12,VWS V14.01,2013-03-07 04:28:00,
2013-03-06 23:29:00,38.7,25.6,30.03,ESE,111,4.0,18.0,59,0.00,,---,1.12,VWS V14.01,2013-03-07 04:29:00,
2013-03-06 23:30:00,38.7,26.0,30.03,NW,306,3.0,6.0,60,0.00,,---,1.12,VWS V14.01,2013-03-07 04:30:00,
2013-03-06 23:31:00,38.7,25.6,30.03,NE,46,7.0,9.0,59,0.00,,---,1.12,VWS V14.01,2013-03-07 04:31:00,
2013-03-06 23:32:00,38.7,25.6,30.03,North,11,3.0,10.0,59,0.00,,---,1.12,VWS V14.01,2013-03-07 04:32:00,
2013-03-06 23:33:00,38.7,26.0,30.03,WNW,285,10.0,12.0,60,0.00,,---,1.12,VWS V14.01,2013-03-07 04:33:00,
2013-03-06 23:34:00,38.6,25.9,30.03,SW,232,9.0,13.0,60,0.00,,---,1.12,VWS V14.01,2013-03-07 04:34:00,
2013-03-06 23:35:00,38.7,25.6,30.03,NE,40,4.0,18.0,59,0.00,,---,1.12,VWS V14.01,2013-03-07 04:35:00,
2013-03-06 23:36:00,38.6,26.3,30.03,West,271,3.0,10.0,61,0.00,,---,1.12,VWS V14.01,2013-03-07 04:36:00,
2013-03-06 23:37:00,38.6,26.3,30.03,SW,235,5.0,10.0,61,0.00,,---,1.12,VWS V14.01,2013-03-07 04:37:00,
2013-03-06 23:38:00,38.4,26.1,30.03,WSW,256,5.0,10.0,61,0.00,,---,1.12,VWS V14.01,2013-03-07 04:38:00,
2013-03-06 23:39:00,38.4,26.1,30.03,WSW,248,6.0,10.0,61,0.00,,---,1.12,VWS V14.01,2013-03-07 04:39:00,
2013-03-06 23:40:00,38.7,25.6,30.03,NNE,18,6.0,9.0,59,0.00,,---,1.12,VWS V14.01,2013-03-07 04:40:00,
2013-03-06 23:41:00,38.4,26.1,30.03,SW,230,5.0,6.0,61,0.00,,---,1.12,VWS V14.01,2013-03-07 04:41:00,
2013-03-06 23:42:00,38.3,26.4,30.03,WNW,285,4.0,8.0,62,0.00,,---,1.12,VWS V14.01,2013-03-07 04:42:00,
2013-03-06 23:43:00,38.3,26.4,30.03,WNW,296,4.0,8.0,62,0.00,,---,1.12,VWS V14.01,2013-03-07 04:43:00,
2013-03-06 23:44:00,38.3,26.8,30.03,NNW,344,5.0,10.0,63,0.00,,---,1.12,VWS V14.01,2013-03-07 04:44:00,
2013-03-06 23:45:00,38.6,26.3,30.03,NW,313,10.0,10.0,61,0.00,,---,1.12,VWS V14.01,2013-03-07 04:45:00,
2013-03-06 23:46:00,38.2,26.0,30.03,North,355,4.0,7.0,61,0.00,,---,1.12,VWS V14.01,2013-03-07 04:46:00,
2013-03-06 23:47:00,38.2,26.0,30.03,NW,313,3.0,7.0,61,0.00,,---,1.12,VWS V14.01,2013-03-07 04:47:00,
2013-03-06 23:48:00,38.2,26.0,30.03,East,82,0.0,7.0,61,0.00,,---,1.12,VWS V14.01,2013-03-07 04:48:00,
2013-03-06 23:49:00,38.2,26.0,30.03,East,82,0.0,7.0,61,0.00,,---,1.12,VWS V14.01,2013-03-07 04:49:00,
2013-03-06 23:50:00,38.4,26.1,30.03,SW,229,4.0,6.0,61,0.00,,---,1.12,VWS V14.01,2013-03-07 04:50:00,
2013-03-06 23:51:00,38.2,25.5,30.03,North,5,5.0,5.0,60,0.00,,---,1.12,VWS V14.01,2013-03-07 04:51:00,
2013-03-06 23:52:00,38.2,25.5,30.03,North,360,2.0,11.0,60,0.00,,---,1.12,VWS V14.01,2013-03-07 04:52:00,
2013-03-06 23:53:00,38.3,25.6,30.03,NNE,28,8.0,11.0,60,0.00,,---,1.12,VWS V14.01,2013-03-07 04:53:00,
2013-03-06 23:54:00,38.3,25.6,30.03,NNE,30,6.0,11.0,60,0.00,,---,1.12,VWS V14.01,2013-03-07 04:54:00,
2013-03-06 23:55:00,38.2,26.3,30.03,NE,44,0.0,7.0,62,0.00,,---,1.12,VWS V14.01,2013-03-07 04:55:00,
2013-03-06 23:56:00,38.3,26.0,30.03,NW,309,3.0,10.0,61,0.00,,---,1.12,VWS V14.01,2013-03-07 04:56:00,
2013-03-06 23:57:00,38.3,26.0,30.03,West,263,4.0,10.0,61,0.00,,---,1.12,VWS V14.01,2013-03-07 04:57:00,
2013-03-06 23:58:00,38.3,25.6,30.03,SSW,210,3.0,10.0,60,0.00,,---,1.12,VWS V14.01,2013-03-07 04:58:00,
2013-03-06 23:59:00,38.3,25.6,30.02,SSE,149,3.0,10.0,60,0.00,,---,1.12,VWS V14.01,2013-03-07 04:59:00,